[[{"header":{"parameterUnit":"m.s-1","parameterCategory":1,"la1":31.0,"la2":29.5877,"lo1":-88.7671,"lo2":-86.6584,"dy":0.0162,"dx":0.0185,"nx":115,"ny":88,"refTime":"2023-09-20T12:00:00:Z","depth":0,"parameterNumber":2,"parameterNumberName":"U-component_of_WINDS"},"data":[0.0,0.0,0.0,0.0,0.0,0.0,0.0,0.0,0.0,0.0,0.0,0.0,0.0,0.0,0.0,0.0,0.0,0.0,0.0,0.0,0.0,0.0,0.0,0.0,0.0,0.0,0.0,0.0,0.0,0.0,0.0,0.0,0.0,0.0,0.0,0.0,0.0,0.0,0.0,0.0,0.0,0.0,0.0,0.0,0.0,0.0,0.0,0.0,0.0,0.0,0.0,0.0,0.0,0.0,0.0,0.0,0.0,0.0,0.0,0.0,0.0,0.0,0.0,0.0,0.0,0.0,0.0,0.0,0.0,0.0,0.0,0.0,0.0,0.0,0.0,0.0,0.0,0.0,0.0,0.0,0.0,0.0,0.0,0.0,0.0,0.0,0.0,0.0,0.0,0.0,0.0,0.0,0.0,0.0,0.0,0.0,0.0,0.0,0.0,0.0,0.0,0.0,0.0,0.0,0.0,0.0,0.0,0.0,0.0,0.0,0.0,0.0,0.0,0.0,0.0,0.0,0.0,0.0,0.0,0.0,0.0,0.0,0.0,0.0,0.0,0.0,0.0,0.0,0.0,0.0,0.0,0.0,0.0,0.0,0.0,0.0,0.0,0.0,0.0,0.0,0.0,0.0,0.0,0.0,0.0,0.0,0.0,0.0,0.0,0.0,0.0,0.0,0.0,0.0,0.0,0.0,0.0,0.0,0.0,0.0,0.0,0.0,0.0,0.0,0.0,0.0,0.0,0.0,0.0,0.0,0.0,0.0,0.0,0.0,0.0,0.0,0.0,0.0,0.0,0.0,0.0,0.0,0.0,0.0,0.0,0.0,0.0,0.0,0.0,0.0,0.0,0.0,0.0,0.0,0.0,0.0,0.0,0.0,0.0,0.0,0.0,0.0,0.0,0.0,0.0,0.0,0.0,0.0,0.0,0.0,0.0,0.0,0.0,0.0,0.0,0.0,0.0,0.0,0.0,0.0,0.0,0.0,0.0,0.0,0.0,0.0,0.0,0.0,0.0,0.0,0.0,0.0,0.0,0.0,0.0,0.0,0.0,0.0,0.0,0.0,0.0,0.0,0.0,0.0,0.0,0.0,0.0,0.0,0.0,0.0,0.0,0.0,0.0,0.0,0.0,0.0,0.0,0.0,0.0,0.0,0.0,0.0,0.0,0.0,0.0,0.0,0.0,0.0,0.0,0.0,0.0,0.0,0.0,0.0,0.0,0.0,0.0,0.0,0.0,0.0,0.0,0.0,0.0,0.0,0.0,0.0,0.0,0.0,0.0,0.0,0.0,0.0,0.0,0.0,0.0,0.0,0.0,0.0,0.0,0.0,0.0,0.0,0.0,0.0,0.0,0.0,0.0,0.0,0.0,0.0,0.0,0.0,0.0,0.0,0.0,0.0,0.0,0.0,0.0,0.0,0.0,0.0,0.0,0.0,0.0,0.0,0.0,0.0,0.0,0.0,0.0,0.0,0.0,0.0,0.0,0.0,0.0,0.0,0.0,0.0,0.0,0.0,0.0,0.0,0.0,0.0,0.0,0.0,0.0,0.0,0.0,0.0,0.0,0.0,0.0,0.0,0.0,0.0,0.0,0.0,0.0,0.0,0.0,0.0,0.0,0.0,0.0,0.0,0.0,0.0,0.0,0.0,0.0,0.0,0.0,0.0,0.0,0.0,0.0,0.0,0.0,0.0,0.0,0.0,0.0,0.0,0.0,0.0,0.0,0.0,0.0,0.0,0.0,0.0,0.0,0.0,0.0,0.0,0.0,0.0,0.0,0.0,0.0,0.0,0.0,0.0,0.0,0.0,0.0,0.0,0.0,0.0,0.0,0.0,0.0,0.0,0.0,0.0,0.0,0.0,0.0,0.0,0.0,0.0,0.0,0.0,0.0,0.0,0.0,0.0,0.0,0.0,0.0,0.0,0.0,0.0,0.0,0.0,0.0,0.0,0.0,0.0,0.0,0.0,0.0,0.0,0.0,0.0,0.0,0.0,0.0,0.0,0.0,0.0,0.0,0.0,0.0,0.0,0.0,0.0,0.0,0.0,0.0,0.0,0.0,0.0,0.0,0.0,0.0,0.0,0.0,0.0,0.0,0.0,0.0,0.0,0.0,0.0,0.0,0.0,0.0,0.0,0.0,0.0,0.0,0.0,0.0,0.0,0.0,0.0,0.0,0.0,0.0,0.0,0.0,0.0,0.0,0.0,0.0,0.0,0.0,0.0,0.0,0.0,0.0,0.0,0.0,0.0,0.0,0.0,0.0,0.0,0.0,0.0,0.0,0.0,0.0,0.0,0.0,0.0,0.0,0.0,0.0,0.0,0.0,0.0,0.0,0.0,0.0,0.0,0.0,0.0,0.0,0.0,0.0,0.0,0.0,0.0,0.0,0.0,0.0,0.0,0.0,0.0,0.0,0.0,0.0,0.0,0.0,0.0,0.0,0.0,0.0,0.0,0.0,0.0,0.0,0.0,0.0,0.0,0.0,0.0,0.0,0.0,0.0,0.0,0.0,0.0,0.0,0.0,0.0,0.0,0.0,0.0,0.0,0.0,0.0,0.0,0.0,0.0,0.0,0.0,0.0,0.0,0.0,0.0,0.0,0.0,0.0,0.0,0.0,0.0,0.0,0.0,0.0,0.0,0.0,0.0,0.0,0.0,0.0,0.0,0.0,0.0,0.0,0.0,0.0,0.0,0.0,0.0,0.0,0.0,0.0,0.0,0.0,0.0,0.0,0.0,0.0,0.0,0.0,0.0,0.0,0.0,0.0,0.0,0.0,0.0,0.0,0.0,0.0,0.0,0.0,0.0,0.0,0.0,0.0,0.0,0.0,0.0,0.0,0.0,0.0,0.0,0.0,0.0,0.0,0.0,0.0,0.0,0.0,0.0,0.0,0.0,0.0,0.0,0.0,0.0,0.0,0.0,0.0,0.0,0.0,0.0,0.0,0.0,0.0,0.0,0.0,0.0,0.0,0.0,0.0,0.0,0.0,0.0,0.0,0.0,0.0,0.0,0.0,0.0,0.0,0.0,0.0,0.0,0.0,0.0,0.0,0.0,0.0,0.0,0.0,0.0,0.0,0.0,0.0,0.0,0.0,0.0,0.0,0.0,0.0,0.0,0.0,0.0,0.0,0.0,0.0,0.0,0.0,0.0,0.0,0.0,0.0,0.0,0.0,0.0,0.0,0.0,0.0,0.0,0.0,0.0,0.0,0.0,0.0,0.0,0.0,0.0,0.0,0.0,0.0,0.0,0.0,0.0,0.0,0.0,0.0,0.0,0.0,0.0,0.0,0.0,0.0,0.0,0.0,0.0,0.0,0.0,0.0,0.0,0.0,0.0,0.0,0.0,0.0,0.0,0.0,0.0,0.0,0.0,0.0,0.0,0.0,0.0,0.0,0.0,0.0,0.0,0.0,0.0,0.0,0.0,0.0,0.0,0.0,0.0,0.0,0.0,0.0,0.0,0.0,0.0,0.0,0.0,0.0,0.0,0.0,0.0,0.0,0.0,0.0,0.0,0.0,0.0,0.0,0.0,0.0,0.0,0.0,0.0,0.0,0.0,0.0,0.0,0.0,0.0,0.0,0.0,0.0,0.0,0.0,0.0,0.0,0.0,0.0,0.0,0.0,0.0,0.0,0.0,0.0,0.0,0.0,0.0,0.0,0.0,0.0,0.0,0.0,0.0,0.0,0.0,0.0,0.0,0.0,0.0,0.0,0.0,0.0,0.0,0.0,0.0,0.0,0.0,0.0,0.0,0.0,0.0,0.0,0.0,0.0,0.0,0.0,0.0,0.0,0.0,0.0,0.0,0.0,0.0,0.0,0.0,0.0,0.0,0.0,0.0,0.0,0.0,0.0,0.0,0.0,0.0,0.0,0.0,0.0,0.0,0.0,0.0,0.0,0.0,0.0,0.0,0.0,0.0,0.0,0.0,0.0,0.0,0.0,0.0,0.0,0.0,0.0,0.0,0.0,0.0,0.0,0.0,0.0,0.0,0.0,0.0,0.0,0.0,0.0,0.0,0.0,0.0,0.0,0.0,0.0,0.0,0.0,0.0,0.0,0.0,0.0,0.0,0.0,0.0,0.0,0.0,0.0,0.0,0.0,0.0,0.0,0.0,0.0,0.0,0.0,0.0,0.0,0.0,0.0,0.0,0.0,0.0,0.0,0.0,0.0,0.0,0.0,0.0,0.0,0.0,0.0,0.0,0.0,0.0,0.0,0.0,0.0,0.0,0.0,0.0,0.0,0.0,0.0,0.0,0.0,0.0,0.0,0.0,-1.2264,0.0,0.0,0.0,0.0,0.0,0.0,0.0,0.0,0.0,0.0,0.0,0.0,0.0,0.0,0.0,0.0,0.0,0.0,0.0,0.0,0.0,0.0,0.0,0.0,0.0,0.0,0.0,0.0,0.0,0.0,0.0,0.0,0.0,0.0,0.0,0.0,0.0,0.0,0.0,0.0,0.0,0.0,0.0,0.0,0.0,0.0,0.0,0.0,0.0,0.0,0.0,0.0,0.0,0.0,0.0,0.0,0.0,0.0,0.0,0.0,0.0,0.0,0.0,0.0,0.0,0.0,0.0,0.0,0.0,0.0,0.0,0.0,0.0,0.0,0.0,0.0,0.0,0.0,0.0,0.0,0.0,0.0,0.0,0.0,0.0,0.0,0.0,0.0,0.0,0.0,0.0,0.0,0.0,0.0,0.0,0.0,0.0,0.0,0.0,0.0,0.0,0.0,0.0,0.0,0.0,0.0,0.0,0.0,0.0,0.0,-1.2647,-1.2344,-1.2166,-1.1927,-1.1678,0.0,0.0,0.0,0.0,0.0,0.0,0.0,0.0,0.0,0.0,0.0,0.0,0.0,0.0,0.0,0.0,0.0,0.0,0.0,0.0,0.0,0.0,0.0,0.0,0.0,0.0,0.0,0.0,0.0,0.0,0.0,0.0,0.0,0.0,0.0,0.0,0.0,0.0,0.0,0.0,0.0,0.0,0.0,0.0,0.0,0.0,0.0,0.0,0.0,0.0,0.0,0.0,0.0,0.0,0.0,0.0,0.0,0.0,0.0,0.0,0.0,0.0,0.0,0.0,0.0,0.0,0.0,0.0,0.0,0.0,0.0,0.0,0.0,0.0,0.0,0.0,0.0,0.0,0.0,0.0,0.0,0.0,0.0,0.0,0.0,0.0,0.0,0.0,0.0,0.0,0.0,0.0,0.0,0.0,0.0,0.0,0.0,0.0,0.0,0.0,0.0,0.0,0.0,0.0,0.0,0.0,0.0,0.0,0.0,0.0,0.0,0.0,-1.1569,-1.1368,-1.1015,0.0,0.0,0.0,0.0,0.0,0.0,0.0,0.0,0.0,0.0,0.0,0.0,0.0,0.0,0.0,0.0,0.0,0.0,0.0,0.0,0.0,0.0,0.0,0.0,0.0,0.0,0.0,0.0,0.0,0.0,0.0,0.0,0.0,0.0,0.0,0.0,0.0,0.0,0.0,0.0,0.0,0.0,0.0,0.0,0.0,0.0,0.0,0.0,0.0,0.0,0.0,0.0,0.0,0.0,0.0,0.0,0.0,0.0,0.0,0.0,0.0,0.0,0.0,0.0,0.0,0.0,0.0,0.0,0.0,0.0,0.0,0.0,0.0,0.0,0.0,0.0,0.0,0.0,0.0,0.0,0.0,0.0,0.0,0.0,0.0,0.0,0.0,0.0,0.0,0.0,0.0,0.0,0.0,0.0,0.0,0.0,0.0,0.0,0.0,0.0,0.0,0.0,0.0,0.0,0.0,0.0,0.0,0.0,0.0,0.0,-1.1528,-1.1023,-1.0981,0.0,-1.0154,0.0,0.0,0.0,0.0,0.0,0.0,0.0,0.0,0.0,0.0,0.0,0.0,0.0,0.0,0.0,0.0,0.0,0.0,0.0,0.0,0.0,0.0,0.0,0.0,0.0,0.0,0.0,0.0,0.0,0.0,0.0,0.0,0.0,0.0,0.0,0.0,0.0,0.0,0.0,0.0,0.0,0.0,0.0,0.0,0.0,0.0,0.0,0.0,0.0,0.0,0.0,0.0,0.0,0.0,0.0,0.0,0.0,0.0,0.0,0.0,0.0,0.0,0.0,0.0,0.0,0.0,0.0,0.0,0.0,0.0,0.0,0.0,0.0,0.0,0.0,0.0,0.0,0.0,0.0,0.0,0.0,0.0,0.0,0.0,0.0,0.0,0.0,0.0,0.0,0.0,0.0,0.0,0.0,0.0,0.0,0.0,0.0,0.0,0.0,0.0,0.0,0.0,0.0,0.0,0.0,0.0,0.0,0.0,0.0,0.0,-1.1515,-1.0973,-1.0576,-1.024,0.0,0.0,0.0,0.0,0.0,0.0,0.0,0.0,0.0,0.0,0.0,0.0,0.0,0.0,0.0,0.0,0.0,0.0,0.0,0.0,0.0,0.0,0.0,0.0,0.0,0.0,0.0,0.0,0.0,0.0,0.0,0.0,0.0,0.0,0.0,0.0,0.0,0.0,0.0,0.0,0.0,0.0,0.0,0.0,0.0,0.0,0.0,0.0,0.0,0.0,0.0,0.0,0.0,0.0,0.0,0.0,0.0,0.0,0.0,0.0,0.0,0.0,0.0,0.0,0.0,0.0,0.0,0.0,0.0,0.0,0.0,0.0,0.0,0.0,0.0,0.0,0.0,0.0,0.0,0.0,0.0,0.0,0.0,0.0,0.0,0.0,0.0,0.0,0.0,0.0,0.0,0.0,0.0,0.0,0.0,0.0,0.0,0.0,0.0,0.0,0.0,0.0,0.0,0.0,0.0,0.0,0.0,0.0,0.0,0.0,-1.1632,-1.1341,-1.0709,-1.0128,-0.9833,-0.9775,0.0,0.0,0.0,0.0,0.0,0.0,0.0,0.0,0.0,0.0,0.0,0.0,0.0,0.0,0.0,0.0,0.0,0.0,0.0,0.0,0.0,0.0,0.0,0.0,0.0,0.0,0.0,0.0,0.0,0.0,0.0,0.0,0.0,0.0,0.0,0.0,0.0,0.0,0.0,0.0,0.0,0.0,0.0,0.0,0.0,0.0,0.0,0.0,0.0,0.0,0.0,0.0,0.0,0.0,0.0,0.0,0.0,0.0,0.0,0.0,0.0,0.0,0.0,0.0,0.0,0.0,0.0,0.0,0.0,0.0,0.0,0.0,0.0,0.0,0.0,0.0,0.0,0.0,0.0,0.0,0.0,0.0,0.0,0.0,0.0,0.0,0.0,0.0,0.0,0.0,0.0,0.0,0.0,0.0,0.0,0.0,0.0,0.0,0.0,0.0,0.0,0.0,0.0,0.0,0.0,0.0,0.0,0.0,-1.1081,-1.1024,-1.0716,-1.0077,-0.9673,-0.933,0.0,0.0,0.0,0.0,0.0,0.0,0.0,0.0,0.0,0.0,0.0,0.0,0.0,0.0,0.0,0.0,0.0,0.0,0.0,0.0,0.0,0.0,0.0,0.0,0.0,0.0,0.0,0.0,0.0,0.0,0.0,0.0,0.0,0.0,0.0,0.0,0.0,0.0,0.0,0.0,0.0,0.0,0.0,0.0,0.0,0.0,0.0,0.0,0.0,0.0,0.0,0.0,0.0,0.0,0.0,0.0,0.0,0.0,0.0,0.0,0.0,0.0,0.0,0.0,0.0,0.0,0.0,0.0,0.0,0.0,0.0,0.0,0.0,0.0,0.0,0.0,0.0,0.0,0.0,0.0,0.0,0.0,0.0,0.0,0.0,0.0,0.0,0.0,0.0,0.0,0.0,0.0,0.0,0.0,0.0,0.0,0.0,0.0,0.0,0.0,0.0,0.0,0.0,0.0,0.0,0.0,0.0,0.0,0.0,-1.1398,-1.0981,-1.054,-0.9988,-0.9674,-0.9302,0.0,0.0,0.0,0.0,0.0,0.0,0.0,0.0,0.0,0.0,0.0,0.0,0.0,0.0,0.0,0.0,0.0,0.0,0.0,0.0,0.0,0.0,0.0,0.0,0.0,0.0,0.0,0.0,0.0,0.0,0.0,0.0,0.0,0.0,0.0,0.0,0.0,0.0,0.0,0.0,0.0,0.0,0.0,0.0,0.0,0.0,0.0,0.0,0.0,0.0,0.0,0.0,0.0,0.0,0.0,0.0,0.0,0.0,0.0,0.0,0.0,0.0,0.0,0.0,0.0,0.0,0.0,0.0,0.0,0.0,0.0,0.0,0.0,0.0,0.0,0.0,0.0,0.0,0.0,0.0,0.0,0.0,0.0,0.0,0.0,0.0,0.0,0.0,0.0,0.0,0.0,0.0,0.0,0.0,0.0,0.0,0.0,0.0,0.0,0.0,0.0,0.0,0.0,0.0,0.0,0.0,0.0,0.0,0.0,-1.1052,0.0,-1.0104,-0.9792,-0.946,-0.9145,0.0,0.0,0.0,0.0,0.0,0.0,0.0,0.0,0.0,0.0,0.0,0.0,0.0,0.0,0.0,0.0,0.0,0.0,0.0,0.0,0.0,0.0,0.0,0.0,0.0,0.0,0.0,0.0,0.0,0.0,0.0,0.0,0.0,0.0,0.0,0.0,0.0,0.0,0.0,0.0,0.0,0.0,0.0,0.0,0.0,0.0,0.0,0.0,0.0,0.0,0.0,0.0,0.0,0.0,0.0,0.0,0.0,0.0,0.0,0.0,0.0,0.0,0.0,0.0,0.0,0.0,0.0,0.0,0.0,0.0,0.0,0.0,0.0,0.0,0.0,0.0,0.0,0.0,0.0,0.0,0.0,0.0,0.0,0.0,0.0,0.0,0.0,0.0,0.0,0.0,0.0,0.0,0.0,0.0,0.0,0.0,0.0,0.0,0.0,0.0,0.0,0.0,0.0,0.0,0.0,0.0,0.0,0.0,-1.0751,-1.0047,-0.9716,-0.9454,-0.9268,-0.8952,-0.8705,0.0,0.0,0.0,0.0,0.0,0.0,0.0,0.0,0.0,0.0,0.0,0.0,0.0,0.0,0.0,0.0,0.0,0.0,0.0,0.0,0.0,0.0,0.0,0.0,0.0,0.0,0.0,0.0,0.0,0.0,0.0,0.0,0.0,0.0,0.0,0.0,0.0,0.0,0.0,0.0,0.0,0.0,0.0,0.0,0.0,0.0,0.0,0.0,0.0,0.0,0.0,0.0,0.0,0.0,0.0,0.0,0.0,0.0,0.0,0.0,0.0,0.0,0.0,0.0,0.0,0.0,0.0,0.0,0.0,0.0,0.0,0.0,0.0,0.0,0.0,0.0,0.0,0.0,0.0,0.0,0.0,0.0,0.0,0.0,0.0,0.0,0.0,0.0,0.0,0.0,0.0,0.0,0.0,0.0,0.0,0.0,0.0,0.0,0.0,0.0,0.0,0.0,0.0,0.0,0.0,0.0,0.0,0.0,0.0,-0.9652,-0.9332,-0.9017,-0.8765,-0.8501,-0.8172,0.0,0.0,0.0,0.0,0.0,0.0,0.0,0.0,0.0,0.0,0.0,0.0,0.0,0.0,0.0,0.0,0.0,0.0,0.0,0.0,0.0,0.0,0.0,0.0,0.0,0.0,0.0,0.0,0.0,0.0,0.0,0.0,0.0,0.0,0.0,0.0,0.0,0.0,0.0,0.0,0.0,0.0,0.0,0.0,0.0,0.0,0.0,0.0,0.0,0.0,0.0,0.0,0.0,0.0,0.0,0.0,0.0,0.0,0.0,0.0,0.0,0.0,0.0,0.0,0.0,0.0,0.0,0.0,0.0,0.0,0.0,0.0,0.0,0.0,0.0,0.0,0.0,0.0,0.0,0.0,0.0,0.0,0.0,0.0,0.0,0.0,0.0,0.0,0.0,0.0,0.0,0.0,0.0,0.0,0.0,0.0,0.0,0.0,0.0,0.0,0.0,0.0,0.0,0.0,0.0,0.0,0.0,0.0,0.0,-0.9145,-0.8894,-0.8635,-0.8192,-0.8042,-0.7782,-0.7396,0.0,0.0,0.0,0.0,0.0,0.0,0.0,0.0,0.0,0.0,0.0,0.0,0.0,0.0,0.0,0.0,0.0,0.0,0.0,0.0,0.0,0.0,0.0,0.0,0.0,0.0,0.0,0.0,0.0,0.0,0.0,0.0,0.0,0.0,0.0,0.0,0.0,0.0,0.0,0.0,0.0,0.0,0.0,0.0,0.0,0.0,0.0,0.0,0.0,0.0,0.0,0.0,0.0,0.0,0.0,0.0,0.0,0.0,0.0,0.0,0.0,0.0,0.0,0.0,0.0,0.0,0.0,0.0,0.0,0.0,0.0,0.0,0.0,0.0,0.0,0.0,0.0,0.0,0.0,0.0,0.0,0.0,0.0,0.0,0.0,0.0,0.0,0.0,0.0,0.0,0.0,0.0,0.0,0.0,0.0,0.0,0.0,0.0,0.0,0.0,0.0,0.0,0.0,0.0,0.0,0.0,0.0,0.0,-0.8484,-0.8489,-0.8218,-0.7731,-0.7526,-0.7396,0.0,0.0,0.0,0.0,0.0,0.0,0.0,0.0,0.0,0.0,0.0,0.0,0.0,0.0,0.0,0.0,0.0,0.0,0.0,0.0,0.0,0.0,0.0,0.0,0.0,0.0,0.0,0.0,0.0,0.0,0.0,0.0,0.0,0.0,0.0,0.0,0.0,0.0,0.0,0.0,0.0,0.0,0.0,0.0,0.0,0.0,0.0,0.0,0.0,0.0,0.0,0.0,0.0,0.0,0.0,0.0,0.0,0.0,0.0,0.0,0.0,0.0,0.0,0.0,0.0,0.0,0.0,0.0,0.0,0.0,0.0,0.0,0.0,0.0,0.0,0.0,0.0,0.0,0.0,0.0,0.0,0.0,0.0,0.0,0.0,0.0,0.0,0.0,0.0,0.0,0.0,0.0,0.0,0.0,0.0,0.0,0.0,0.0,0.0,0.0,0.0,0.0,0.0,0.0,0.0,0.0,0.0,0.0,0.0,-0.8339,-0.8196,-0.7977,-0.754,-0.7396,-0.7068,0.0,0.0,0.0,0.0,0.0,0.0,0.0,0.0,0.0,0.0,0.0,0.0,0.0,0.0,0.0,0.0,0.0,0.0,0.0,0.0,0.0,0.0,0.0,0.0,0.0,0.0,0.0,0.0,0.0,0.0,0.0,0.0,0.0,0.0,0.0,0.0,0.0,0.0,0.0,0.0,0.0,0.0,0.0,0.0,0.0,0.0,0.0,0.0,0.0,0.0,0.0,0.0,0.0,0.0,0.0,0.0,0.0,0.0,0.0,0.0,0.0,0.0,0.0,0.0,0.0,0.0,0.0,0.0,0.0,0.0,0.0,0.0,0.0,0.0,0.0,0.0,0.0,0.0,0.0,0.0,0.0,0.0,0.0,0.0,0.0,0.0,0.0,0.0,0.0,0.0,0.0,0.0,0.0,0.0,0.0,0.0,0.0,0.0,0.0,0.0,0.0,0.0,0.0,0.0,0.0,0.0,0.0,0.0,-0.8592,-0.8155,-0.8009,-0.7753,-0.7387,-0.7167,-0.6755,0.0,0.0,0.0,0.0,0.0,0.0,0.0,0.0,0.0,0.0,0.0,0.0,0.0,0.0,0.0,0.0,0.0,0.0,0.0,0.0,0.0,0.0,0.0,0.0,0.0,0.0,0.0,0.0,0.0,0.0,0.0,0.0,0.0,0.0,0.0,0.0,0.0,0.0,0.0,0.0,0.0,0.0,0.0,0.0,0.0,0.0,0.0,0.0,0.0,0.0,0.0,0.0,0.0,0.0,0.0,0.0,0.0,0.0,0.0,0.0,0.0,0.0,0.0,0.0,0.0,0.0,0.0,0.0,0.0,0.0,0.0,0.0,0.0,0.0,0.0,0.0,0.0,0.0,0.0,0.0,0.0,0.0,0.0,0.0,0.0,0.0,0.0,0.0,0.0,0.0,0.0,0.0,0.0,0.0,0.0,0.0,0.0,0.0,0.0,0.0,0.0,0.0,0.0,0.0,0.0,0.0,0.0,0.0,-0.8482,-0.807,-0.7932,-0.7637,-0.7254,-0.6937,-0.6563,0.0,0.0,0.0,0.0,0.0,0.0,0.0,0.0,0.0,0.0,0.0,0.0,0.0,0.0,0.0,0.0,0.0,0.0,0.0,0.0,0.0,0.0,0.0,0.0,0.0,0.0,0.0,0.0,0.0,0.0,0.0,0.0,0.0,0.0,0.0,0.0,0.0,0.0,0.0,0.0,0.0,0.0,0.0,0.0,0.0,0.0,0.0,0.0,0.0,0.0,0.0,0.0,0.0,0.0,0.0,0.0,0.0,0.0,0.0,0.0,0.0,0.0,0.0,0.0,0.0,0.0,0.0,0.0,0.0,0.0,0.0,0.0,0.0,0.0,0.0,0.0,0.0,0.0,0.0,0.0,0.0,0.0,0.0,0.0,0.0,0.0,0.0,0.0,0.0,0.0,0.0,0.0,0.0,0.0,0.0,0.0,0.0,0.0,0.0,0.0,0.0,0.0,0.0,0.0,0.0,0.0,0.0,0.0,-0.8558,-0.8346,-0.8125,-0.7829,-0.7457,-0.7132,-0.6804,0.0,0.0,0.0,0.0,0.0,0.0,0.0,0.0,0.0,0.0,0.0,0.0,0.0,0.0,0.0,0.0,0.0,0.0,0.0,0.0,0.0,0.0,0.0,0.0,0.0,0.0,0.0,0.0,0.0,0.0,0.0,0.0,0.0,0.0,0.0,0.0,0.0,0.0,0.0,0.0,0.0,0.0,0.0,0.0,0.0,0.0,0.0,0.0,2.286,0.0,0.0,0.0,0.0,0.0,0.0,0.0,0.0,0.0,0.0,0.0,0.0,0.0,0.0,0.0,0.0,0.0,0.0,0.0,0.0,0.0,0.0,0.0,0.0,0.0,0.0,0.0,0.0,0.0,0.0,0.0,0.0,0.0,0.0,0.0,0.0,0.0,0.0,0.0,0.0,0.0,0.0,0.0,0.0,0.0,0.0,0.0,0.0,0.0,0.0,0.0,0.0,0.0,0.0,0.0,0.0,0.0,0.0,0.0,-0.8665,-0.8399,-0.8178,-0.7977,-0.7651,-0.7257,-0.6903,0.0,0.0,0.0,0.0,0.0,0.0,0.0,0.0,0.0,0.0,0.0,0.0,0.0,0.0,0.0,0.0,0.0,0.0,0.0,0.0,0.0,0.0,0.0,0.0,0.0,0.0,0.0,0.0,0.0,0.0,0.0,0.0,0.0,0.0,0.0,0.0,0.0,0.0,0.0,0.0,0.0,0.0,0.0,0.0,0.0,0.0,0.0,0.0,0.0,0.0,0.0,0.0,0.0,0.0,0.0,0.0,0.0,0.0,0.0,0.0,0.0,0.0,0.0,0.0,0.0,0.0,0.0,0.0,0.0,0.0,0.0,0.0,0.0,0.0,0.0,0.0,0.0,0.0,0.0,0.0,0.0,0.0,0.0,0.0,0.0,0.0,0.0,0.0,0.0,0.0,0.0,0.0,0.0,0.0,0.0,0.0,0.0,0.0,0.0,0.0,0.0,0.0,0.0,0.0,0.0,0.0,0.0,-0.9089,-0.8775,-0.8403,-0.8178,-0.803,-0.7804,-0.7338,-0.6889,-0.6466,0.0,0.0,0.0,0.0,0.0,0.0,0.0,0.0,0.0,0.0,0.0,0.0,0.0,0.0,0.0,0.0,0.0,0.0,0.0,0.0,0.0,0.0,0.0,0.0,0.0,0.0,0.0,0.0,0.0,0.0,0.0,0.0,0.0,0.0,0.0,0.0,0.0,0.0,1.7346,1.8483,0.0,0.0,0.0,0.0,0.0,0.0,0.0,0.0,2.3809,0.0,0.0,0.0,0.0,0.0,0.0,0.0,0.0,0.0,0.0,0.0,0.0,0.0,0.0,0.0,0.0,0.0,0.0,0.0,0.0,0.0,0.0,0.0,0.0,0.0,0.0,0.0,0.0,0.0,0.0,0.0,0.0,0.0,0.0,0.0,0.0,0.0,0.0,0.0,0.0,0.0,0.0,0.0,0.0,0.0,0.0,0.0,0.0,0.0,0.0,0.0,0.0,0.0,0.0,0.0,0.0,-0.9322,-0.9094,-0.8789,-0.8403,-0.8178,-0.803,-0.7799,-0.7334,-0.6996,-0.6783,0.0,0.0,0.0,0.0,0.0,0.0,0.0,0.0,0.0,0.0,0.0,0.0,0.0,0.0,0.0,0.0,0.0,0.0,0.0,0.0,0.0,0.0,0.0,0.0,0.0,0.0,0.0,0.0,0.0,0.0,0.0,0.0,0.0,0.0,0.0,0.0,0.0,0.0,0.0,1.8934,1.9565,0.0,0.0,0.0,0.0,0.0,0.0,0.0,0.0,2.441,0.0,0.0,0.0,0.0,0.0,0.0,0.0,0.0,0.0,0.0,0.0,0.0,0.0,0.0,0.0,0.0,0.0,0.0,0.0,0.0,0.0,0.0,0.0,0.0,0.0,0.0,0.0,0.0,0.0,0.0,0.0,0.0,0.0,0.0,0.0,0.0,0.0,0.0,0.0,0.0,0.0,0.0,0.0,0.0,0.0,0.0,0.0,0.0,0.0,0.0,0.0,0.0,0.0,0.0,0.0,-0.9468,-0.9236,-0.9013,-0.8713,-0.8479,-0.825,-0.7957,-0.7565,-0.7173,0.0,0.0,0.0,0.0,0.0,0.0,0.0,0.0,0.0,0.0,0.0,0.0,0.0,0.0,0.0,0.0,0.0,0.0,0.0,0.0,0.0,0.0,0.0,0.0,0.0,0.0,0.0,0.0,0.0,0.0,0.0,0.0,0.0,0.0,0.0,0.0,0.0,0.0,0.0,0.0,1.9678,2.0257,2.1053,0.0,0.0,0.0,0.0,0.0,0.0,2.5043,2.5521,0.0,0.0,0.0,0.0,0.0,0.0,0.0,0.0,0.0,0.0,0.0,0.0,0.0,0.0,0.0,0.0,0.0,0.0,0.0,0.0,0.0,0.0,0.0,0.0,0.0,0.0,0.0,0.0,0.0,0.0,0.0,0.0,0.0,0.0,0.0,0.0,0.0,0.0,0.0,0.0,0.0,0.0,0.0,0.0,0.0,0.0,0.0,0.0,0.0,0.0,0.0,0.0,0.0,0.0,0.0,-0.9695,-0.9533,-0.9306,-0.9099,-0.8861,-0.8551,-0.8255,-0.7787,-0.7403,0.0,0.0,0.0,0.0,0.0,0.0,0.0,0.0,0.0,0.0,0.0,0.0,0.0,0.0,0.0,0.0,0.0,0.0,0.0,0.0,0.0,0.0,0.0,0.0,0.0,0.0,0.0,0.0,0.0,0.0,0.0,0.0,0.0,0.0,0.0,0.0,0.0,0.0,0.0,0.0,0.0,2.0978,2.1931,2.2469,0.0,0.0,0.0,0.0,2.5396,2.5909,0.0,0.0,0.0,0.0,0.0,0.0,0.0,0.0,0.0,0.0,0.0,0.0,0.0,0.0,0.0,0.0,0.0,0.0,0.0,0.0,0.0,0.0,0.0,0.0,0.0,0.0,0.0,0.0,0.0,0.0,0.0,0.0,0.0,0.0,0.0,0.0,0.0,0.0,0.0,0.0,0.0,0.0,0.0,0.0,0.0,0.0,0.0,0.0,0.0,0.0,0.0,0.0,0.0,0.0,0.0,0.0,-0.9922,-0.9841,-0.9614,-0.9246,-0.9084,-0.8851,-0.8627,-0.8093,-0.7557,0.0,0.0,0.0,0.0,0.0,0.0,0.0,0.0,0.0,0.0,0.0,0.0,0.0,0.0,0.0,0.0,0.0,0.0,0.0,0.0,0.0,0.0,0.0,0.0,0.0,0.0,0.0,0.0,0.0,0.0,0.0,0.0,0.0,0.0,0.0,0.0,0.0,0.0,0.0,0.0,0.0,2.1337,2.1831,2.2428,2.3004,0.0,0.0,2.4637,2.515,2.5725,0.0,0.0,0.0,0.0,0.0,0.0,0.0,0.0,0.0,0.0,0.0,0.0,0.0,0.0,0.0,0.0,0.0,0.0,0.0,0.0,0.0,0.0,0.0,0.0,0.0,0.0,0.0,0.0,0.0,0.0,0.0,0.0,0.0,0.0,0.0,0.0,0.0,0.0,0.0,0.0,0.0,0.0,0.0,0.0,0.0,0.0,0.0,0.0,0.0,0.0,0.0,0.0,0.0,0.0,0.0,-1.0438,-1.0218,-1.0218,-1.0062,-0.9846,-0.9614,-0.9387,-0.9018,-0.8546,-0.8089,0.0,0.0,0.0,0.0,0.0,0.0,0.0,0.0,0.0,0.0,0.0,0.0,0.0,0.0,0.0,0.0,0.0,0.0,0.0,0.0,0.0,0.0,0.0,0.0,0.0,0.0,0.0,0.0,0.0,0.0,0.0,0.0,0.0,0.0,0.0,0.0,0.0,0.0,0.0,0.0,0.0,0.0,2.2475,2.2981,0.0,0.0,0.0,2.5406,2.6075,0.0,0.0,0.0,0.0,0.0,0.0,0.0,0.0,0.0,0.0,0.0,0.0,0.0,0.0,0.0,0.0,0.0,0.0,0.0,0.0,0.0,0.0,0.0,0.0,0.0,0.0,0.0,0.0,0.0,0.0,0.0,0.0,0.0,0.0,0.0,0.0,0.0,0.0,0.0,0.0,0.0,0.0,0.0,0.0,0.0,0.0,0.0,0.0,0.0,0.0,0.0,0.0,0.0,0.0,0.0,0.0,0.0,-1.0738,-1.0738,-1.0663,-1.0443,-1.0218,-0.9992,-0.962,-0.9165,0.0,0.0,0.0,0.0,0.0,0.0,0.0,0.0,0.0,0.0,0.0,0.0,0.0,0.0,0.0,0.0,0.0,0.0,0.0,0.0,0.0,0.0,0.0,0.0,0.0,0.0,0.0,1.2854,0.0,0.0,0.0,0.0,0.0,0.0,0.0,0.0,0.0,0.0,0.0,0.0,0.0,0.0,2.2031,2.2847,2.3283,2.3819,0.0,0.0,2.5809,2.6587,2.724,2.7825,0.0,0.0,0.0,0.0,0.0,0.0,0.0,0.0,0.0,0.0,0.0,0.0,0.0,0.0,0.0,0.0,0.0,0.0,0.0,0.0,0.0,0.0,0.0,0.0,0.0,0.0,0.0,0.0,0.0,0.0,0.0,0.0,0.0,0.0,0.0,0.0,0.0,0.0,0.0,0.0,0.0,0.0,0.0,0.0,0.0,0.0,0.0,0.0,0.0,0.0,0.0,0.0,0.0,0.0,-1.1558,-1.1335,-1.1335,-1.126,-1.1037,-1.0812,-1.0669,-1.0438,-0.9841,-0.9236,0.0,0.0,0.0,0.0,0.0,0.0,0.0,0.0,0.0,0.0,0.0,0.0,0.0,0.0,0.0,0.0,0.0,0.0,0.0,0.0,0.0,0.0,0.0,0.0,0.0,0.0,0.0,0.0,0.0,0.0,0.0,0.0,0.0,0.0,0.0,0.0,0.0,0.0,0.0,0.0,0.0,2.2199,2.242,2.2958,2.3586,0.0,2.465,2.5342,2.6056,2.6721,2.7378,2.8027,0.0,0.0,0.0,0.0,0.0,0.0,0.0,0.0,0.0,0.0,0.0,0.0,0.0,0.0,0.0,0.0,0.0,0.0,0.0,0.0,0.0,0.0,0.0,0.0,0.0,0.0,0.0,0.0,0.0,0.0,0.0,0.0,0.0,0.0,0.0,0.0,0.0,0.0,0.0,0.0,0.0,0.0,0.0,0.0,0.0,0.0,0.0,0.0,0.0,0.0,0.0,0.0,0.0,-1.2009,-1.1935,-1.1929,-1.1929,-1.1861,-1.1484,-1.1329,-1.1254,-1.0519,-0.9916,0.0,0.0,0.0,0.0,0.0,0.0,0.0,0.0,0.0,0.0,0.0,0.0,0.0,0.0,0.0,0.0,0.0,0.0,0.0,0.0,0.0,0.0,0.0,0.0,0.0,0.0,0.0,0.0,1.5143,1.5842,1.6901,0.0,0.0,0.0,0.0,0.0,0.0,0.0,0.0,0.0,0.0,2.1788,2.1975,2.2407,0.0,0.0,2.4028,2.4721,2.5536,2.6176,2.6864,2.7645,2.8271,0.0,0.0,0.0,0.0,0.0,0.0,0.0,0.0,0.0,0.0,0.0,0.0,0.0,0.0,0.0,0.0,0.0,0.0,0.0,0.0,0.0,0.0,0.0,0.0,0.0,0.0,0.0,0.0,0.0,0.0,0.0,0.0,0.0,0.0,0.0,0.0,0.0,0.0,0.0,0.0,0.0,0.0,0.0,0.0,0.0,0.0,0.0,0.0,0.0,0.0,0.0,0.0,-1.2934,-1.2934,-1.2941,-1.2941,-1.2873,-1.2565,-1.2339,-1.2257,-1.1426,-1.0854,0.0,0.0,0.0,0.0,0.0,0.0,0.0,0.0,0.0,0.0,0.0,0.0,0.0,0.0,0.0,0.0,0.0,0.0,0.0,0.0,0.0,0.0,0.0,0.0,0.0,0.0,0.0,0.0,1.5455,1.6255,1.7432,0.0,0.0,0.0,0.0,0.0,0.0,0.0,0.0,0.0,0.0,2.121,2.1336,2.1824,2.2345,2.2763,2.3365,2.4073,2.5021,2.5618,2.6336,2.7203,0.0,0.0,0.0,0.0,0.0,0.0,0.0,0.0,0.0,0.0,0.0,0.0,0.0,0.0,0.0,0.0,0.0,0.0,0.0,0.0,0.0,0.0,0.0,0.0,0.0,0.0,0.0,-1.9309,0.0,0.0,-2.0604,0.0,0.0,0.0,0.0,0.0,0.0,0.0,0.0,0.0,0.0,0.0,0.0,0.0,0.0,0.0,0.0,0.0,0.0,0.0,0.0,0.0,0.0,-1.4477,-1.4491,-1.4469,-1.4328,-1.4194,-1.3967,-1.371,-1.354,-1.2654,-1.1966,-1.1581,0.0,0.0,0.0,0.0,0.0,0.0,0.0,0.0,0.0,0.0,0.0,0.0,0.0,0.0,0.0,0.0,0.0,0.0,0.0,0.0,0.0,0.0,0.0,0.0,0.0,0.0,1.4879,1.5886,1.6724,0.0,0.0,0.0,0.0,0.0,0.0,0.0,0.0,0.0,0.0,2.0431,2.0646,2.0646,2.1256,2.1847,2.2099,2.2726,2.345,2.4376,2.5034,2.5742,0.0,0.0,0.0,0.0,0.0,0.0,0.0,0.0,0.0,0.0,0.0,0.0,0.0,0.0,0.0,0.0,0.0,0.0,0.0,0.0,0.0,0.0,0.0,0.0,0.0,0.0,0.0,-2.0541,-2.0885,0.0,0.0,0.0,0.0,0.0,0.0,0.0,0.0,0.0,0.0,0.0,-2.134,-2.0829,0.0,0.0,0.0,0.0,0.0,0.0,0.0,0.0,0.0,0.0,0.0,0.0,-1.5374,-1.5381,-1.5374,-1.5219,-1.4987,-1.4762,-1.4606,-1.4365,-1.3719,-1.2876,-1.1927,0.0,0.0,0.0,0.0,0.0,0.0,0.0,0.0,0.0,0.0,0.0,0.0,0.0,0.0,0.0,0.0,0.0,0.0,0.0,0.0,0.0,0.0,0.0,0.0,0.0,1.3833,0.0,0.0,0.0,0.0,0.0,0.0,0.0,0.0,0.0,0.0,0.0,1.9462,1.9462,2.0004,2.0409,2.042,2.123,2.2062,0.0,0.0,0.0,0.0,0.0,0.0,0.0,0.0,0.0,0.0,0.0,0.0,0.0,0.0,3.1298,3.1069,3.1201,3.1393,3.1654,0.0,0.0,0.0,0.0,0.0,0.0,0.0,0.0,0.0,0.0,0.0,0.0,0.0,0.0,-2.1559,-2.1907,-2.2377,0.0,0.0,0.0,0.0,0.0,0.0,0.0,0.0,-2.2922,-2.2639,-2.2582,-2.2073,-2.174,0.0,-2.1176,-2.0447,0.0,0.0,0.0,0.0,0.0,0.0,0.0,0.0,-1.6526,-1.6526,-1.6526,-1.6361,-1.6118,-1.5976,-1.5732,-1.5336,-1.459,-1.3605,-1.2466,-1.1582,-1.0621,0.0,0.0,0.0,0.0,0.0,0.0,0.0,0.0,0.0,0.0,0.0,0.0,0.0,0.0,0.0,0.0,0.0,0.0,0.0,0.0,0.0,0.0,0.0,1.3557,0.0,0.0,0.0,0.0,0.0,0.0,0.0,0.0,0.0,1.8889,1.9028,1.913,1.912,1.9741,2.0136,2.0045,0.0,0.0,0.0,0.0,0.0,0.0,0.0,2.5897,2.6816,2.7457,2.814,2.8943,2.972,3.0366,3.069,0.0,0.0,3.1188,3.1366,3.1616,3.1918,3.2411,3.2832,3.3009,3.3539,3.3962,0.0,0.0,0.0,0.0,0.0,0.0,0.0,0.0,-2.1754,-2.217,0.0,-2.3138,0.0,0.0,0.0,0.0,-2.4349,-2.4218,0.0,0.0,-2.3676,-2.3372,-2.3364,-2.3283,-2.316,-2.2969,-2.2981,-2.2681,-2.2038,-1.995,0.0,0.0,0.0,0.0,0.0,0.0,-1.804,-1.8023,-1.8014,-1.7789,-1.7456,-1.7456,-1.7131,-1.6453,-1.5331,-1.4306,-1.3398,-1.2584,-1.1686,-1.0778,-0.9481,0.0,0.0,0.0,0.0,0.0,0.0,0.0,0.0,0.0,0.0,0.0,0.0,0.0,0.0,0.0,0.0,0.0,0.0,0.0,0.0,1.2539,0.0,0.0,0.0,0.0,0.0,0.0,0.0,0.0,0.0,0.0,1.8375,1.886,1.9185,1.9175,0.0,0.0,0.0,0.0,2.1216,2.1963,2.2405,2.2949,2.3821,2.4496,2.5231,2.6126,0.0,0.0,2.8639,2.9322,2.9855,3.0091,3.0505,3.0989,3.1759,3.2041,3.2315,3.2658,3.2867,3.3064,3.3279,3.355,3.3668,-2.0566,0.0,0.0,0.0,0.0,-2.185,-2.2293,-2.2877,-2.3394,-2.3718,-2.4061,-2.4495,0.0,0.0,0.0,0.0,0.0,0.0,-2.5747,-2.5747,-2.5362,-2.5156,-2.5156,-2.4731,-2.4365,-2.4151,-2.3929,-2.3644,-2.3139,-2.2274,-2.1159,-1.988,0.0,0.0,0.0,0.0,-1.9054,-1.8913,-1.8754,-1.8594,-1.8345,-1.8193,-1.7789,-1.7139,-1.63,-1.5546,-1.4796,-1.3966,-1.3016,-1.195,-1.0837,0.0,0.0,0.0,0.0,0.0,0.0,0.0,0.0,0.0,0.0,0.0,0.0,0.0,0.0,0.0,0.0,0.0,0.0,0.0,1.0962,1.1639,1.2243,0.0,0.0,0.0,0.0,0.0,0.0,0.0,0.0,0.0,1.7209,1.7809,1.8156,0.0,0.0,1.9447,1.9362,2.0361,2.1281,2.1839,2.2442,0.0,2.3966,2.4716,2.5531,2.6406,2.7557,2.8581,2.9391,2.9928,3.0396,3.0683,3.1222,3.1735,3.1982,3.1874,3.187,3.2229,3.282,3.3367,3.3751,3.4298,3.4802,-2.2195,-2.2035,-2.1803,-2.1959,-2.2478,-2.2927,-2.3372,-2.397,-2.4394,-2.4743,-2.5229,-2.5594,-2.5943,-2.6371,-2.6577,0.0,0.0,0.0,-2.6837,-2.6769,-2.644,-2.6314,-2.6176,-2.5804,-2.5441,-2.5158,-2.4957,-2.4587,-2.4009,-2.379,-2.3043,-2.1756,0.0,0.0,-2.0245,-2.0157,-2.0001,-1.9854,-1.9636,-1.939,-1.9143,-1.8754,-1.8345,-1.7951,-1.7212,-1.6476,-1.5899,-1.5061,-1.4115,-1.3144,-1.2009,-1.0795,0.0,0.0,0.0,0.0,0.0,0.0,0.0,0.0,0.0,0.0,0.0,0.547,0.6247,0.0,0.0,0.0,0.8702,0.9555,1.0341,1.081,0.0,0.0,0.0,0.0,0.0,0.0,0.0,1.5123,1.5494,1.5928,1.6236,1.6768,1.726,1.7802,1.8556,1.9108,1.9127,0.0,2.0809,2.1252,2.2014,2.2777,2.3593,2.4394,2.5241,2.6402,2.7537,2.8532,2.9198,2.9761,3.0237,3.0673,3.1278,3.1739,3.191,3.1866,3.2048,3.2594,3.3145,3.3681,3.4049,3.4648,3.5182,-2.3512,-2.3886,-2.308,-2.2896,-2.326,-2.3631,-2.4169,-2.4679,-2.5075,-2.5574,-2.6103,-2.6414,-2.6815,-2.7249,-2.7587,0.0,-2.7721,-2.7734,-2.768,-2.7465,-2.7317,-2.7114,-2.6922,-2.6703,-2.6427,-2.6103,-2.6103,-2.5727,-2.4992,-2.4932,-2.456,-2.3779,-2.2703,-2.1849,-2.1292,-2.1108,-2.0954,-2.0722,-2.0498,-2.0186,-1.9942,-1.9222,-1.8816,-1.8745,-1.7951,-1.731,-1.6804,-1.5974,-1.5144,-1.4223,-1.3124,-1.1906,-1.059,0.0,0.0,0.0,0.0,0.0,0.0,0.0,0.0,0.0,0.0,0.0,0.0,0.0,0.0,0.0,0.813,0.0,0.9725,0.9974,0.0,0.0,0.0,1.2086,1.3306,1.348,1.3794,1.4514,0.0,0.0,1.5228,1.5658,1.6319,1.7367,1.8095,1.8674,1.8772,1.9381,1.9932,2.0304,2.1175,2.197,2.2875,2.3824,2.4894,2.6235,2.7075,2.7894,2.866,2.9306,2.982,3.0373,3.0953,3.1471,3.1601,3.2148,3.2717,3.3451,3.3706,3.3917,3.4202,3.466,3.5,-2.4912,-2.5013,-2.5153,-2.5097,-2.4844,-2.5466,-2.5993,-2.6366,-2.6822,-2.72,-2.7563,-2.7957,-2.8524,-2.926,-2.9398,-2.9603,-2.9726,-2.9535,-2.9466,-2.9384,-2.9122,-2.8983,-2.8913,-2.869,-2.8396,-2.8041,-2.8041,-2.761,-2.6895,-2.6883,-2.6514,-2.5768,-2.5442,-2.4234,-2.2208,-2.2101,-2.1863,-2.1492,-2.1195,-2.0731,-2.0186,-1.9784,-1.9548,-1.9399,-1.8754,-1.8175,-1.7683,-1.6878,-1.5989,-1.509,-1.4223,-1.3178,-1.2014,-1.0631,0.0,0.0,0.0,0.0,0.0,0.0,0.0,0.0,0.0,0.2974,0.4125,0.0,0.5189,0.0,0.6692,0.7714,0.8492,0.8991,0.0,0.0,1.0891,1.1377,1.2247,1.2572,1.2832,1.3322,1.3619,1.3899,1.4068,1.465,1.5151,1.5394,1.6722,1.7716,1.7806,1.8434,1.9143,1.9627,2.0352,2.1306,2.2506,2.4095,2.5518,2.6502,2.7501,2.837,2.9151,2.9862,3.0533,3.1059,3.1589,3.2082,3.2458,3.3036,3.3572,3.4032,3.3818,3.3607,3.4066,3.474,3.5382,-2.5951,-2.6236,-2.6635,-2.6776,-2.6796,-2.6712,-2.6887,-2.7347,-2.7656,-2.8097,-2.869,-2.9235,-2.9728,-3.0158,-3.0364,-3.0501,-3.0624,-3.0501,-3.0433,-3.0364,-3.0158,-3.0019,-2.995,-2.9741,-2.9517,-2.9222,-2.9151,-2.8736,-2.8145,-2.8084,-2.7705,-2.6974,-2.6899,-2.5988,-2.4254,-2.3776,-2.3394,-2.303,-2.2642,-2.2104,-2.1451,-2.1213,-2.0973,-2.0652,-1.991,-1.9236,-1.8742,-1.7775,-1.6886,-1.5997,-1.5151,-1.4132,-1.3033,-1.1832,-1.0616,0.0,0.0,0.0,0.0,0.0,0.0,0.0,0.0,0.0,0.0,0.0,0.4124,0.4932,0.5864,0.6817,0.7643,0.8167,0.8717,0.9586,0.9942,1.0504,1.1327,1.1499,1.178,1.2181,1.257,1.2839,1.3133,1.3834,1.4309,1.4422,1.5647,1.6707,1.7183,1.7995,1.8733,1.93,2.0012,2.1111,2.268,2.4168,2.5515,2.6446,2.7335,2.8217,2.9009,2.9728,3.0433,3.1029,3.1693,3.2213,3.2708,3.327,3.3834,3.4145,3.4131,3.4218,3.4638,3.5364,3.595,-2.6907,-2.7321,-2.7711,-2.8222,-2.8597,-2.7654,-2.7555,-2.8076,-2.8384,-2.8908,-2.9724,-3.04,-3.0664,-3.0801,-3.1075,-3.1279,-3.1265,-3.1279,-3.1197,-3.1061,-3.1061,-3.0925,-3.0719,-3.0581,-3.0387,-3.0247,-3.0037,-2.9671,-2.9073,-2.9073,-2.8724,-2.8015,-2.794,-2.7555,-2.6712,-2.5997,-2.5251,-2.4601,-2.4205,-2.3636,-2.3072,-2.2818,-2.2503,-2.1991,-2.124,-2.0561,-1.9898,-1.8894,-1.7907,-1.7022,-1.6148,-1.5118,-1.4017,-1.3143,-1.1832,0.0,-0.9309,0.0,0.0,0.0,0.0,0.0,0.0,0.0,0.0,0.2201,0.3154,0.4517,0.5302,0.6043,0.6861,0.7316,0.7933,0.8627,0.899,0.9515,1.0294,1.0487,1.0702,1.1194,1.1609,1.2029,1.2331,1.3157,1.378,1.4046,1.4943,1.5867,1.6609,1.758,1.8504,1.9199,2.0057,2.1358,2.2982,2.4186,2.5206,2.6132,2.71,2.7854,2.8715,2.951,3.0218,3.1034,3.1738,3.2291,3.278,3.3505,3.4061,3.4485,3.4914,3.5269,3.5514,3.6039,3.6564,-2.8403,-2.8488,-2.8736,-2.9123,-2.9534,-2.9322,-2.9312,-2.9465,-3.0136,-3.0882,-3.1613,-3.1757,-3.2187,-3.2737,-3.2821,-3.303,-3.332,-3.3182,-3.3044,-3.303,-3.2877,-3.2709,-3.2499,-3.2499,-3.2288,-3.1932,-3.186,-3.1573,-3.1076,-3.1076,-3.0634,-2.9884,-2.9897,-2.9428,-2.8655,0.0,0.0,0.0,-2.459,-2.4205,-2.3727,-2.3465,-2.3143,-2.2737,-2.2422,0.0,-2.1234,-2.0486,-1.968,-1.8752,-1.7624,0.0,0.0,0.0,0.0,0.0,0.0,0.0,0.0,0.0,0.0,0.0,-0.3639,-0.221,-0.0532,0.1063,0.2396,0.3471,0.4184,0.4989,0.5894,0.634,0.7051,0.7933,0.8201,0.8723,0.9437,0.9841,1.0182,1.0716,1.1086,1.1551,1.2053,1.2609,1.3085,1.3622,1.4519,1.5355,1.5945,1.6943,1.781,1.8531,2.0216,2.1863,2.3099,2.4232,2.5326,2.633,2.7289,2.8282,2.9251,3.0134,3.1063,3.1891,3.2639,3.3235,3.3941,3.4602,3.5142,3.5736,3.6199,3.6385,3.576,3.6419,3.7243,-2.8961,-2.8973,-2.9287,-2.9546,0.0,-3.0241,-3.0394,-3.0381,-3.0836,-3.1495,-3.23,-3.2602,-3.3043,-3.3466,-3.3536,-3.3675,-3.3911,-3.3827,-3.3758,-3.3758,-3.366,-3.3521,-3.3437,-3.3368,-3.3157,-3.3002,-3.2789,-3.2489,-3.2128,-3.1996,-3.1556,-3.096,-3.0885,-3.0508,-2.9754,-2.9287,-2.821,-2.6484,-2.6018,-2.5616,-2.5223,-2.4816,-2.4487,-2.4064,-2.3526,0.0,0.0,0.0,0.0,0.0,0.0,0.0,0.0,-1.5698,0.0,-1.3336,-1.2279,-1.1097,-0.9772,-0.8707,-0.765,-0.6602,-0.5184,-0.3491,-0.1345,0.009,0.1345,0.2241,0.3136,0.3939,0.4739,0.5453,0.6189,0.6969,0.752,0.8031,0.8685,0.9156,0.9617,0.9944,1.0506,1.0969,1.1366,1.2133,1.2653,1.3134,1.4008,1.4841,1.5485,1.6578,1.7709,1.8797,2.0237,2.1745,2.2869,2.4057,2.5189,2.6185,2.7255,2.8291,2.925,3.0126,3.1035,3.1896,3.269,3.3409,3.4264,3.4957,3.5544,3.6133,3.6723,3.7053,3.6721,3.7247,3.7936,-2.9287,-2.9365,-2.9767,-2.9946,-3.01,-3.0698,-3.1061,-3.1211,-3.1211,0.0,0.0,-3.3086,-3.3466,-3.3744,-3.3896,-3.402,-3.4088,-3.4088,-3.4088,-3.4074,-3.4103,-3.4088,-3.402,-3.3813,-3.373,-3.3675,-3.3297,-3.3058,-3.2846,-3.2516,-3.2155,-3.1776,-3.1556,-3.111,-3.052,-2.9754,-2.8961,-2.8131,-2.7568,-2.7103,-2.6693,-2.6302,-2.5895,-2.5443,-2.4661,-2.4033,-2.3604,-2.2591,-2.1736,-2.1043,-2.0045,-1.9153,-1.8208,-1.719,-1.606,-1.4677,-1.3686,-1.2633,-1.139,-1.0309,-0.9248,-0.8282,-0.6406,-0.4326,-0.1884,-0.0896,0.009,0.0897,0.1978,0.2974,0.3692,0.4608,0.5463,0.6104,0.6762,0.7454,0.8001,0.8574,0.9072,0.9421,1.0031,1.0557,1.092,1.1713,1.2443,1.2802,1.3692,1.4484,1.5248,1.6546,1.8025,1.9289,2.0416,2.1425,2.2561,2.3617,2.4754,2.5852,2.6928,2.7903,2.8791,2.9741,3.0646,3.1676,3.2475,3.3339,3.4196,3.4971,3.5593,3.6148,3.6754,3.7298,3.7685,3.8091,3.8511,-3.0075,-3.0203,-3.0292,-3.0533,-3.0836,-3.0986,-3.136,-3.2023,-3.2023,-3.2444,-3.3171,-3.3255,-3.366,-3.4278,-3.4346,-3.4481,-3.4721,-3.4721,-3.4735,-3.4735,-3.4735,-3.4683,-3.4563,-3.4346,-3.4196,-3.4005,-3.3868,-3.3675,-3.3452,-3.3255,-3.2945,-3.2561,-3.2228,-3.1656,-3.0898,-3.0444,-2.9985,-2.9534,-2.8303,-2.758,-2.736,-2.6962,-2.6622,-2.6279,-2.5891,-2.5368,-2.4925,-2.4173,-2.3533,-2.2737,-2.1556,-2.0506,-1.9545,-1.8297,-1.7129,-1.6118,-1.5233,-1.4135,-1.2931,-1.2015,-1.0553,-0.8625,-0.733,-0.5657,-0.323,-0.2148,-0.1254,-0.0449,0.0912,0.2118,0.304,0.3828,0.4712,0.5578,0.6241,0.6823,0.7533,0.82,0.8817,0.9292,0.9784,1.032,1.1025,1.1429,1.2022,1.2748,1.3431,1.4382,1.5547,1.7008,1.8326,1.9471,2.0348,2.1338,2.2236,2.3222,2.4262,2.5189,2.629,2.7441,2.8474,2.9419,3.0406,3.1616,3.2403,3.3269,3.4196,3.4971,3.5608,3.6274,3.6831,3.7358,3.7886,3.8343,3.8694,-3.0381,-3.0609,-3.0685,-3.0898,-3.1198,-3.1556,-3.2141,-3.2816,-3.3016,-3.3227,-3.3466,-3.3799,-3.4142,-3.4563,-3.4616,-3.4735,-3.4935,-3.4935,-3.4935,-3.4935,-3.4935,-3.4868,-3.4817,-3.4735,-3.4601,-3.4534,-3.4428,-3.421,-3.4005,-3.3716,-3.3423,-3.3157,-3.2717,-3.2228,-3.1656,-3.1123,-3.0672,-3.0254,-2.9118,-2.8315,-2.8007,-2.7592,-2.7267,-2.6846,-2.6445,-2.6041,-2.5549,-2.502,-2.4413,-2.3714,-2.2756,-2.178,-2.089,-1.9758,-1.8693,-1.7524,-1.6526,-1.5465,-1.4218,-1.2757,-1.1298,-0.982,-0.8796,-0.7429,-0.5642,-0.3789,-0.2407,-0.1483,-0.0187,0.1034,0.2068,0.2938,0.392,0.4827,0.56,0.6412,0.7095,0.7821,0.8456,0.9011,0.9525,1.0019,1.0708,1.1096,1.1585,1.2273,1.3232,1.4292,1.5255,1.6441,1.7594,1.8643,1.9604,2.0593,2.1516,2.2677,2.3724,2.4669,2.5863,2.7021,2.8155,2.9106,3.0101,3.1233,3.2187,3.3115,3.4045,3.4876,3.5608,3.6352,3.6952,3.7476,3.7985,3.8662,3.9239,-3.106,-3.1302,-3.153,-3.1744,-3.2091,-3.2604,-3.3125,-3.3635,-3.3856,-3.3922,-3.3937,-3.4278,-3.4631,-3.4898,-3.5001,-3.5067,-3.5133,-3.5133,-3.5133,-3.5133,-3.5118,-3.5133,-3.5118,-3.5118,-3.5052,-3.5001,-3.4898,-3.4683,-3.4481,-3.4196,-3.3854,-3.3591,-3.3086,-3.2646,-3.2286,-3.179,-3.1272,-3.0836,-2.9985,-2.9287,-2.8736,-2.8235,-2.781,-2.751,-2.7021,-2.6528,-2.6218,-2.5706,-2.5105,-2.4509,-2.38,-2.2931,-2.2041,-2.1087,-2.0056,-1.8889,-1.7864,-1.6661,-1.5248,-1.3579,-1.2204,-1.1185,-1.0144,-0.9017,-0.7689,-0.5578,-0.374,-0.2479,-0.1242,-0.0096,0.096,0.2122,0.3108,0.3939,0.4929,0.5844,0.6523,0.7341,0.8038,0.8627,0.9126,0.9723,1.031,1.0801,1.1389,1.217,1.3136,1.41,1.4873,1.5783,1.6753,1.7729,1.8872,1.9951,2.0889,2.205,2.3193,2.4155,2.5421,2.6682,2.7742,2.87,2.9793,3.0921,3.2042,3.3044,3.3934,3.4795,3.5608,3.6352,3.6952,3.7594,3.8286,3.9242,3.988,-3.2764,-3.3181,-3.3346,-3.3783,-3.4203,-3.4119,-3.4256,-3.4625,-3.447,-3.4534,-3.4779,-3.4683,-3.4964,-3.5374,-3.5424,-3.5604,-3.5846,-3.591,-3.5894,-3.591,-3.591,-3.591,-3.5846,-3.5703,-3.5589,-3.5439,-3.5228,-3.5082,-3.4868,-3.4683,-3.4361,-3.3785,-3.3452,-3.3058,-3.2635,-3.2273,-3.185,-3.1233,-3.096,-3.0355,-2.9341,-2.8736,-2.8419,-2.8351,-2.7765,-2.7267,-2.7021,-2.6445,-2.5863,-2.5359,-2.4584,-2.38,-2.3008,-2.2041,-2.115,-2.0133,-1.9115,-1.7802,-1.5927,-1.4702,-1.3532,-1.2308,-1.121,-1.0036,-0.8762,-0.7282,-0.5613,-0.3758,-0.2227,-0.1075,-0.0,0.1091,0.22,0.3204,0.4116,0.4933,0.5937,0.6739,0.7537,0.8333,0.8931,0.9533,1.0216,1.0703,1.1389,1.2467,1.3152,1.3919,1.4694,1.5402,1.6191,1.7174,1.845,1.9828,2.0817,2.1802,2.2775,2.3744,2.5009,2.6268,2.7336,2.8542,2.9716,3.0696,3.1882,3.2974,3.3865,3.481,3.5593,3.6367,3.706,3.7759,3.876,4.0001,4.0624,-3.3483,-3.3806,-3.4099,-3.4616,-3.5229,-3.528,-3.5525,-3.5822,-3.5639,-3.5614,-3.577,-3.5559,-3.5524,-3.5653,-3.5733,-3.5925,-3.61,-3.6148,-3.6163,-3.6304,-3.6304,-3.6241,-3.6148,-3.6022,-3.5894,-3.5797,-3.5733,-3.5589,-3.5379,-3.5148,-3.4765,-3.4346,-3.4074,-3.3701,-3.3241,-3.286,-3.2372,-3.1863,-3.14,-3.0875,-3.0368,-2.9611,-2.8998,-2.851,-2.8259,-2.7857,-2.7429,-2.7021,-2.6528,-2.5946,-2.5179,-2.4423,-2.356,-2.2589,-2.1713,-2.0727,-1.9263,-1.7792,-1.64,-1.5343,-1.4292,-1.3136,-1.2068,-1.0993,-0.9608,-0.8421,-0.6976,-0.5232,-0.3566,-0.2092,-0.0997,0.0201,0.1411,0.252,0.353,0.4537,0.5639,0.6439,0.7238,0.8035,0.863,0.9225,1.0117,1.1002,1.178,1.2565,1.3055,1.3823,1.4592,1.5204,1.5879,1.6892,1.8001,1.9104,2.0175,2.1248,2.2334,2.3484,2.4765,2.5935,2.7092,2.8303,2.9549,3.0545,3.1809,3.2903,3.3728,3.4728,3.5593,3.6506,3.7938,3.8988,4.0209,4.1147,4.1574,-3.4576,-3.4808,-3.519,-3.5854,-3.6577,-3.6548,-3.6762,-3.7098,-3.6903,-3.6797,-3.6718,-3.6523,-3.6379,-3.6148,-3.6148,-3.6226,-3.6399,-3.6414,-3.6476,-3.6616,-3.6631,-3.6554,-3.6414,-3.6399,-3.6352,-3.6211,-3.6211,-3.6085,-3.5816,-3.5574,-3.5294,-3.4964,-3.4683,-3.4249,-3.3839,-3.3368,-3.2888,-3.23,-3.1797,-3.1338,-3.0999,-3.047,-2.9689,-2.8907,-2.8681,-2.8339,-2.7765,-2.7557,-2.7138,-2.6528,-2.5779,-2.5041,-2.4176,-2.3319,-2.2246,-2.0997,-1.9446,-1.8079,-1.7052,-1.6103,-1.5045,-1.3896,-1.2834,-1.1673,-1.0395,-0.9217,-0.7928,-0.6426,-0.4828,-0.3422,-0.2017,-0.0706,0.0504,0.1816,0.2925,0.4031,0.5035,0.5939,0.6739,0.764,0.8333,0.9122,1.0113,1.1194,1.2078,1.2565,1.3152,1.3829,1.4598,1.5198,1.5885,1.6892,1.7628,1.8542,1.9621,2.0889,2.2059,2.3212,2.4423,2.5779,2.694,2.8131,2.9394,3.0393,3.1723,3.2917,3.3785,3.4706,3.6209,3.7297,3.861,4.0114,4.1054,4.203,4.277,-3.6318,-3.6632,-3.7204,-3.7878,-3.8649,-3.7958,-3.8065,-3.8527,-3.8137,-3.7781,-3.752,-3.7636,-3.7514,-3.7074,-3.6662,-3.6677,-3.6938,-3.6938,-3.6999,-3.7015,-3.6999,-3.7015,-3.6938,-3.6938,-3.6862,-3.6646,-3.6646,-3.6523,-3.6196,-3.6037,-3.5797,-3.5424,-3.5067,-3.4735,-3.4332,-3.3854,-3.3283,-3.2717,-3.2314,-3.1803,-3.1136,-3.0986,-3.0546,-2.9779,-2.9234,-2.8749,-2.8443,-2.8229,-2.7731,-2.7185,-2.6302,-2.5633,-2.5115,-2.4186,-2.2862,-2.1168,-2.0093,-1.9088,-1.8079,-1.7052,-1.5906,-1.4663,-1.3409,-1.2155,-1.0895,-0.9616,-0.8425,-0.7238,-0.6034,-0.4632,-0.2925,-0.1615,-0.0404,0.101,0.212,0.3127,0.4034,0.5135,0.6134,0.7135,0.8035,0.9126,1.0507,1.1487,1.217,1.2662,1.3152,1.3829,1.4604,1.5313,1.6082,1.6798,1.7621,1.845,1.9455,2.0628,2.1713,2.296,2.4262,2.5538,2.667,2.7879,2.9069,3.0317,3.1736,3.2931,3.3827,3.5295,3.7212,3.8544,3.9665,4.089,4.1946,4.2867,4.361,-3.7505,-3.8023,-3.8263,-3.8797,-3.9349,-3.9182,-3.936,-3.958,-3.9296,-3.8886,-3.843,-3.8185,-3.7838,-3.7508,-3.7329,-3.7345,-3.7421,-3.7464,-3.7464,-3.7599,-3.7583,-3.7524,-3.748,-3.748,-3.7329,-3.7178,-3.7074,-3.6831,-3.6523,-3.6414,-3.6163,-3.5925,-3.5474,-3.5082,-3.4735,-3.4332,-3.377,-3.3086,-3.2701,-3.2268,-3.173,-3.1286,-3.0836,-3.0533,-2.9856,-2.9221,-2.8736,-2.8467,-2.8066,-2.7441,-2.6704,-2.5946,-2.52,-2.3917,-2.2608,-2.1356,-2.0464,-1.9637,-1.8619,-1.7505,-1.6285,-1.5235,-1.3986,-1.2743,-1.1683,-1.0507,-0.9217,-0.7928,-0.6736,-0.5334,-0.383,-0.2421,-0.1009,0.0504,0.1614,0.2724,0.3831,0.4937,0.5942,0.6939,0.8134,0.9624,1.0605,1.1487,1.2273,1.2856,1.3431,1.4106,1.4796,1.5415,1.6096,1.6885,1.7647,1.8441,1.9455,2.0456,2.1535,2.2862,2.4166,2.5443,2.6599,2.8039,2.9316,3.0572,3.1904,3.3465,3.4661,3.6596,3.8404,3.9914,4.0994,4.1819,4.2965,4.3703,4.447,-3.8352,-3.8943,-3.9075,-3.9451,-3.995,-4.0161,-4.037,-4.0569,-4.0504,-4.0,-3.9282,-3.8935,-3.8499,-3.803,-3.7992,-3.8033,-3.8033,-3.7918,-3.7918,-3.8049,-3.8049,-3.7992,-3.7934,-3.786,-3.7727,-3.7653,-3.7492,-3.7254,-3.7029,-3.6846,-3.6646,-3.6336,-3.5988,-3.5554,-3.5148,-3.475,-3.4196,-3.3591,-3.3128,-3.2701,-3.2228,-3.173,-3.1211,-3.0986,-3.0457,-2.9856,-2.9131,-2.8736,-2.8271,-2.7753,-2.7103,-2.6279,-2.52,-2.3917,-2.2696,-2.1802,-2.0997,-2.0093,-1.908,-1.7963,-1.685,-1.5812,-1.4663,-1.342,-1.2355,-1.1194,-0.9912,-0.8425,-0.7232,-0.6034,-0.4732,-0.3426,-0.1915,-0.0303,0.1009,0.222,0.3429,0.4437,0.5636,0.703,0.8528,0.9821,1.0806,1.1688,1.2467,1.3244,1.3715,1.4292,1.5172,1.581,1.6395,1.7167,1.7902,1.8899,1.9869,2.0898,2.1695,2.3018,2.4337,2.5432,2.6693,2.8211,2.9636,3.0877,3.2374,3.4086,3.5897,3.7855,3.9526,4.1071,4.1905,4.261,4.3597,4.4495,4.5093,-3.9017,-3.9481,-3.9737,-4.0161,-4.0509,-4.0935,-4.1189,-4.1307,-4.1638,-4.104,-3.9925,-4.0011,-3.9446,-3.8602,-3.8472,-3.8639,-3.8694,-3.8399,-3.8246,-3.8391,-3.8408,-3.8408,-3.8335,-3.823,-3.81,-3.81,-3.796,-3.7801,-3.7626,-3.7433,-3.7134,-3.6769,-3.6538,-3.6115,-3.5489,-3.5162,-3.4668,-3.4059,-3.3591,-3.303,-3.2489,-3.2228,-3.1803,-3.1136,-3.0986,-3.0546,-2.9856,-2.8986,-2.851,-2.8167,-2.7592,-2.6599,-2.5359,-2.4348,-2.3406,-2.2432,-2.1535,-2.0637,-1.9729,-1.8719,-1.7707,-1.6669,-1.5425,-1.4082,-1.2834,-1.158,-1.0306,-0.892,-0.7829,-0.6736,-0.5634,-0.4433,-0.3025,-0.1313,0.0202,0.1514,0.2623,0.353,0.4926,0.7111,0.8711,1.0015,1.0998,1.1878,1.2657,1.3522,1.41,1.4675,1.5642,1.6198,1.6985,1.783,1.8456,1.9232,2.0378,2.1427,2.2217,2.3096,2.4402,2.5695,2.7044,2.8522,3.0199,3.152,3.3799,3.5568,3.7411,3.9252,4.0446,4.182,4.2545,4.3353,4.4135,4.4906,4.5407,-3.9809,-4.0176,-4.0593,-4.0851,-4.1138,-4.1488,-4.1752,-4.1835,-4.2125,-4.1514,-4.0554,-4.048,-3.9877,-3.9011,-3.886,-3.9023,-3.9272,-3.9094,-3.8914,-3.8711,-3.8688,-3.8688,-3.8639,-3.8574,-3.8535,-3.8455,-3.8415,-3.8246,-3.8017,-3.7828,-3.7535,-3.7178,-3.6831,-3.6507,-3.6143,-3.5584,-3.5016,-3.4481,-3.3922,-3.3437,-3.303,-3.2458,-3.2109,-3.1803,-3.1286,-3.0836,-3.0609,-2.9856,-2.9064,-2.8419,-2.7903,-2.6917,-2.5611,-2.4861,-2.409,-2.3232,-2.2432,-2.1535,-2.0637,-1.9455,-1.8442,-1.7318,-1.5994,-1.4758,-1.3607,-1.236,-1.0993,-0.9509,-0.8322,-0.7229,-0.5834,-0.4634,-0.3428,-0.2018,-0.0504,0.0908,0.2421,0.393,0.5724,0.7304,0.8609,0.9809,1.0993,1.1883,1.2754,1.3811,1.4478,1.5146,1.5927,1.6651,1.7334,1.8179,1.8907,1.976,2.0836,2.1961,2.2921,2.379,2.4914,2.6201,2.7545,2.9034,3.0648,3.2885,3.5119,3.7075,3.8979,4.0337,4.1485,4.2423,4.3257,4.3956,4.4614,4.5213,4.5666,-4.0509,-4.0799,-4.1205,-4.1456,-4.1654,-4.1996,-4.227,-4.238,-4.2342,-4.1824,-4.0981,-4.073,-4.0087,-3.9313,-3.9239,-3.9345,-3.959,-3.959,-3.9415,-3.9185,-3.9164,-3.9164,-3.9131,-3.9044,-3.8865,-3.8733,-3.8694,-3.8567,-3.8343,-3.8173,-3.7886,-3.7535,-3.7194,-3.68,-3.6506,-3.5955,-3.5424,-3.4964,-3.4332,-3.3854,-3.3452,-3.2888,-3.2458,-3.2169,-3.173,-3.1272,-3.0986,-3.047,-2.9767,-2.8882,-2.8223,-2.7244,-2.6124,-2.5527,-2.485,-2.3917,-2.3125,-2.2236,-2.1347,-2.0184,-1.9171,-1.8056,-1.6741,-1.552,-1.4376,-1.313,-1.157,-1.0203,-0.9015,-0.7726,-0.6232,-0.5035,-0.3932,-0.2724,-0.1109,0.0605,0.232,0.4232,0.5932,0.7217,0.851,0.971,1.09,1.198,1.2948,1.3908,1.4765,1.5527,1.6305,1.7109,1.7931,1.8711,1.9513,2.0425,2.1418,2.2501,2.3627,2.4573,2.5516,2.6862,2.8151,2.9836,3.1513,3.4463,3.6954,3.8392,4.0198,4.1094,4.2141,4.3019,4.3831,4.439,4.4944,4.5477,4.5988,-4.1138,-4.1205,-4.1686,-4.2012,-4.2174,-4.2492,-4.2775,-4.2847,-4.2485,-4.1939,-4.1238,-4.0785,-4.0201,-3.9671,-3.9677,-3.9729,-3.9781,-3.9781,-3.9781,-3.9764,-3.9729,-3.9729,-3.9592,-3.9398,-3.9239,-3.9077,-3.8914,-3.886,-3.8805,-3.8544,-3.8262,-3.7943,-3.7594,-3.7134,-3.6677,-3.6226,-3.5861,-3.5489,-3.4817,-3.4264,-3.3854,-3.3437,-3.303,-3.2386,-3.2241,-3.1877,-3.1286,-3.0986,-3.0432,-2.9419,-2.8371,-2.758,-2.6962,-2.629,-2.5527,-2.4669,-2.3704,-2.2833,-2.1872,-2.0988,-1.9994,-1.8972,-1.7677,-1.6466,-1.5229,-1.3698,-1.2252,-1.0988,-0.9612,-0.8322,-0.693,-0.5734,-0.4535,-0.3026,-0.111,0.0908,0.2825,0.4336,0.5732,0.7027,0.8418,0.9706,1.1096,1.217,1.3232,1.4196,1.5051,1.6008,1.6885,1.7759,1.8597,1.9347,2.0219,2.1123,2.2101,2.328,2.4413,2.5454,2.6534,2.8011,2.9423,3.1174,3.3095,3.6091,3.8317,3.981,4.1013,4.1901,4.2756,4.3562,4.4219,4.4708,4.5249,4.5819,4.6266,-4.1588,-4.1851,-4.2254,-4.2508,-4.2696,-4.3068,-4.3267,-4.3333,-4.2816,-4.2226,-4.1672,-4.1117,-4.0505,-3.9969,-4.0104,-4.0188,-4.0238,-4.0271,-4.0288,-4.0288,-4.0288,-4.0054,-3.9782,-3.9661,-3.9573,-3.9451,-3.9362,-3.9255,-3.9148,-3.8931,-3.8639,-3.8278,-3.7902,-3.7578,-3.7178,-3.66,-3.6226,-3.5846,-3.5329,-3.4721,-3.4264,-3.3839,-3.3437,-3.303,-3.2731,-3.2372,-3.1877,-3.1286,-3.052,-2.9496,-2.8724,-2.8075,-2.7592,-2.7033,-2.629,-2.56,-2.4829,-2.3877,-2.2833,-2.1952,-2.106,-1.9911,-1.8603,-1.7304,-1.6271,-1.4561,-1.3119,-1.176,-1.0293,-0.8817,-0.7528,-0.6037,-0.4232,-0.1713,-0.0101,0.1513,0.2925,0.4234,0.5534,0.6927,0.8219,0.9612,1.1189,1.2457,1.3511,1.4669,1.5724,1.6574,1.7542,1.8458,1.9225,2.0167,2.0962,2.185,2.2853,2.4039,2.52,2.6335,2.7766,2.9585,3.1327,3.3255,3.5465,3.7959,3.9269,4.0743,4.1641,4.2506,4.3306,4.4088,4.4763,4.5319,4.5768,4.6235,4.6695,-4.2109,-4.2365,-4.2743,-4.3007,-4.3207,-4.3492,-4.3505,-4.3339,-4.2769,-4.2215,-4.1654,-4.1068,-4.0646,-4.0355,-4.0453,-4.0551,-4.0614,-4.068,-4.0662,-4.0631,-4.0583,-4.032,-4.0003,-3.9918,-3.9816,-3.9781,-3.9625,-3.9501,-3.9379,-3.9202,-3.886,-3.8472,-3.8262,-3.7844,-3.7358,-3.6937,-3.6523,-3.6178,-3.5653,-3.5148,-3.4735,-3.4249,-3.3854,-3.3507,-3.3213,-3.2874,-3.2372,-3.1716,-3.0885,-2.996,-2.9365,-2.8816,-2.8383,-2.7753,-2.7185,-2.6599,-2.5841,-2.4914,-2.4059,-2.3183,-2.2129,-2.1069,-1.9695,-1.8419,-1.7203,-1.5602,-1.398,-1.2533,-1.0984,-0.9509,-0.7822,-0.6034,-0.3726,-0.131,0.0605,0.2017,0.313,0.4236,0.5534,0.7027,0.8319,0.971,1.1389,1.2646,1.3896,1.5045,1.619,1.7225,1.8172,1.9116,1.9979,2.0907,2.1822,2.2756,2.3776,2.4978,2.6595,2.7662,2.9806,3.1499,3.3258,3.5286,3.7022,3.8996,4.0317,4.1475,4.2301,4.3169,4.3939,4.4635,4.5302,4.5837,4.6284,4.6649,4.708,-4.2634,-4.2775,-4.3251,-4.3509,-4.3654,-4.3748,-4.3578,-4.3166,-4.252,-4.1968,-4.1427,-4.0844,-4.0717,-4.0745,-4.0728,-4.0823,-4.0901,-4.0918,-4.0918,-4.0853,-4.0823,-4.0631,-4.0387,-4.0171,-4.0087,-3.9952,-3.9833,-3.9677,-3.9537,-3.9379,-3.9077,-3.875,-3.856,-3.8091,-3.7653,-3.7163,-3.6815,-3.6476,-3.5988,-3.5524,-3.5184,-3.4787,-3.4399,-3.3977,-3.3701,-3.3353,-3.2846,-3.2273,-3.1616,-3.0659,-3.0228,-2.9689,-2.9209,-2.8645,-2.8167,-2.758,-2.6835,-2.6091,-2.5263,-2.4307,-2.327,-2.212,-2.0881,-1.9521,-1.8218,-1.6633,-1.4937,-1.3403,-1.1863,-0.9899,-0.7723,-0.5634,-0.3425,-0.1108,0.0706,0.2017,0.3229,0.4437,0.5837,0.7123,0.8707,1.0194,1.157,1.3033,1.4382,1.5704,1.6835,1.7848,1.892,1.9854,2.0841,2.1891,2.2805,2.3699,2.484,2.6008,2.7708,2.9358,3.1978,3.4046,3.5549,3.7255,3.8544,3.9945,4.1111,4.211,4.2986,4.3764,4.4563,4.5214,4.587,4.6381,4.6778,4.7151,4.7518,-4.3084,-4.3388,-4.3509,-4.3789,-4.4037,-4.3687,-4.35,-4.3359,-4.2364,-4.1834,-4.1591,-4.1168,-4.1017,-4.1,-4.1105,-4.1117,-4.118,-4.118,-4.1134,-4.1117,-4.1117,-4.0948,-4.0776,-4.0517,-4.0337,-4.0188,-4.0087,-3.9935,-3.9781,-3.959,-3.9379,-3.9094,-3.8766,-3.8415,-3.8148,-3.7594,-3.7163,-3.6799,-3.6476,-3.6037,-3.5638,-3.5394,-3.5001,-3.4654,-3.4235,-3.3894,-3.3548,-3.3199,-3.2761,-3.2114,-3.1307,-3.0646,-3.0126,-2.9639,-2.9081,-2.8542,-2.7971,-2.7244,-2.6351,-2.5495,-2.4553,-2.326,-2.2022,-2.0683,-1.9247,-1.7591,-1.5988,-1.4364,-1.2528,-1.0083,-0.712,-0.5438,-0.3325,-0.1008,0.0907,0.2422,0.3836,0.5138,0.6326,0.7704,0.9292,1.0779,1.2247,1.3794,1.5229,1.6459,1.7569,1.8564,1.9563,2.0594,2.1814,2.2979,2.388,2.4868,2.608,2.751,2.951,3.1203,3.3704,3.6084,3.755,3.8832,3.9978,4.0878,4.1755,4.2724,4.3706,4.4434,4.5161,4.5802,4.6394,4.6817,4.724,4.7585,4.7915,-4.3449,-4.3713,-4.3964,-4.3977,-4.3867,-4.3752,-4.3388,-4.286,-4.229,-4.185,-4.1583,-4.1308,-4.1324,-4.1443,-4.1453,-4.1498,-4.156,-4.156,-4.156,-4.1498,-4.1408,-4.1272,-4.1152,-4.0901,-4.071,-4.0419,-4.0337,-4.0188,-3.9986,-3.9849,-3.9642,-3.9325,-3.904,-3.8711,-3.8448,-3.7943,-3.7535,-3.7163,-3.6815,-3.6507,-3.6211,-3.5973,-3.5653,-3.5249,-3.4839,-3.4558,-3.4423,-3.407,-3.3811,-3.3395,-3.2804,-3.1942,-3.1097,-3.057,-3.0024,-2.9561,-2.9015,-2.8371,-2.7476,-2.6577,-2.5652,-2.4467,-2.325,-2.1845,-2.0413,-1.8788,-1.703,-1.5317,-1.3295,-1.076,-0.6915,-0.5338,-0.3426,-0.0504,0.2016,0.3836,0.4851,0.5844,0.6913,0.828,1.0062,1.1638,1.3108,1.4746,1.617,1.749,1.8864,1.9869,2.0925,2.194,2.3017,2.411,2.4994,2.6046,2.7382,2.918,3.1405,3.3172,3.5238,3.734,3.9068,4.0148,4.1213,4.1949,4.2583,4.3479,4.4378,4.5108,4.5784,4.6358,4.689,4.7309,4.7692,4.8035,4.8327,-4.3722,-4.3781,-4.4164,-4.3965,-4.3447,-4.3561,-4.3081,-4.2247,-4.2081,-4.1882,-4.1576,-4.1498,-4.1648,-4.1823,-4.1866,-4.1927,-4.1987,-4.203,-4.1909,-4.1849,-4.1719,-4.1587,-4.1453,-4.1318,-4.1071,-4.0662,-4.0566,-4.0436,-4.0238,-4.0087,-3.9833,-3.9484,-3.9325,-3.9056,-3.8616,-3.8303,-3.7985,-3.7578,-3.7282,-3.6982,-3.6754,-3.6523,-3.6196,-3.5928,-3.5608,-3.5415,-3.5285,-3.5073,-3.4758,-3.4601,-3.4438,-3.3506,-3.2448,-3.1529,-3.1009,-3.0722,-3.0101,-2.9459,-2.8755,-2.7787,-2.6801,-2.5819,-2.4573,-2.3096,-2.1578,-1.9877,-1.8133,-1.5961,-1.3759,-1.0756,-0.7208,-0.5129,-0.292,-0.0,0.3428,0.5356,0.6062,0.6745,0.8089,0.9127,1.1011,1.2807,1.4345,1.588,1.7203,1.8603,1.9977,2.1266,2.2311,2.331,2.444,2.5581,2.6551,2.7891,2.9272,3.0417,3.2682,3.4839,3.6748,3.8462,4.0251,4.1417,4.2316,4.2691,4.3376,4.4249,4.5074,4.5716,4.6376,4.689,4.7378,4.7816,4.8153,4.8476,4.8748,-4.39,-4.3478,-4.3698,-4.3524,-4.3065,-4.2582,-4.2448,-4.2387,-4.196,-4.1789,-4.1805,-4.1952,-4.2061,-4.2205,-4.2205,-4.2246,-4.2305,-4.2287,-4.2246,-4.2187,-4.2103,-4.1934,-4.1849,-4.1719,-4.1498,-4.1226,-4.1012,-4.0758,-4.0419,-4.0221,-4.007,-3.9935,-3.9642,-3.9325,-3.911,-3.8805,-3.8455,-3.8042,-3.7812,-3.7578,-3.7358,-3.7118,-3.6937,-3.6723,-3.6492,-3.6383,-3.618,-3.6006,-3.5763,-3.5472,-3.5294,-3.4861,-3.4269,-3.3408,-3.2662,-3.1896,-3.1368,-3.0745,-2.9999,-2.9225,-2.8096,-2.6987,-2.5768,-2.4317,-2.2639,-2.0881,-1.8964,-1.6331,-1.3165,-0.9678,-0.6816,-0.4522,-0.1911,0.0805,0.3624,0.6055,0.7263,0.8623,0.993,1.0922,1.2534,1.416,1.5677,1.7181,1.8572,2.0034,2.1382,2.2639,2.3831,2.4861,2.603,2.7116,2.8294,2.972,3.1249,3.2218,3.3846,3.6075,3.8029,3.9557,4.1183,4.2512,4.3393,4.3814,4.4271,4.4912,4.5665,4.6328,4.6873,4.7378,4.7856,4.8288,4.8605,4.8887,4.9188,-4.3796,-4.3693,-4.3476,-4.3065,-4.2673,-4.2502,-4.2288,-4.2176,-4.1982,-4.1977,-4.2145,-4.231,-4.245,-4.253,-4.2591,-4.2631,-4.2631,-4.2631,-4.2631,-4.2591,-4.2432,-4.2351,-4.2228,-4.2103,-4.1892,-4.1657,-4.1498,-4.1198,-4.0823,-4.0631,-4.0436,-4.0238,-3.9986,-3.9729,-3.9537,-3.9272,-3.8914,-3.8567,-3.8399,-3.823,-3.796,-3.777,-3.7637,-3.7519,-3.7401,-3.7298,-3.7163,-3.7027,-3.68,-3.6599,-3.6367,-3.6134,-3.5725,-3.521,-3.4312,-3.3213,-3.2506,-3.1928,-3.1281,-3.0443,-2.9512,-2.8426,-2.7221,-2.5735,-2.4008,-2.2171,-1.967,-1.6216,-1.316,-0.9481,-0.6915,-0.3812,-0.1004,0.1607,0.4724,0.7153,0.8763,1.0596,1.1945,1.3087,1.4331,1.5745,1.7073,1.8564,2.0034,2.1382,2.2795,2.4018,2.5337,2.6472,2.7522,2.8827,2.9936,3.1329,3.268,3.3656,3.5163,3.741,3.9124,4.0683,4.2201,4.3548,4.4439,4.4969,4.5425,4.58,4.6244,4.6918,4.7421,4.7879,4.8289,4.8731,4.9042,4.9352,4.9596,-4.3574,-4.3546,-4.3164,-4.2701,-4.2277,-4.2454,-4.237,-4.209,-4.2145,-4.2351,-4.2552,-4.267,-4.2786,-4.2918,-4.2975,-4.305,-4.2995,-4.3032,-4.3032,-4.2975,-4.2842,-4.2727,-4.267,-4.2512,-4.2292,-4.2086,-4.2002,-4.178,-4.1261,-4.1029,-4.0806,-4.0614,-4.037,-4.0138,-3.9884,-3.9729,-3.9415,-3.9148,-3.8969,-3.886,-3.8583,-3.8399,-3.8327,-3.8327,-3.8214,-3.8157,-3.8181,-3.801,-3.7886,-3.7716,-3.7535,-3.7322,-3.7084,-3.6874,-3.6041,-3.4802,-3.3862,-3.3115,-3.2478,-3.1842,-3.0944,-2.9872,-2.8615,-2.7163,-2.5167,-2.2737,-1.9711,-1.5732,-1.249,-0.9563,-0.66,-0.3206,-0.02,0.2704,0.6016,0.9046,1.0551,1.2365,1.4483,1.5498,1.6441,1.7587,1.8991,2.0352,2.1896,2.3104,2.4416,2.5721,2.693,2.8024,2.9139,3.0441,3.1702,3.2891,3.4023,3.494,3.6621,3.8873,4.0268,4.151,4.3109,4.4698,4.5356,4.6014,4.6383,4.6728,4.7124,4.747,4.7922,4.8384,4.8767,4.9108,4.9457,4.9693,4.9887,-4.3425,-4.2302,-4.2554,-4.2328,-4.1947,-4.2025,-4.227,-4.249,-4.2512,-4.2745,-4.2974,-4.3105,-4.3196,-4.3286,-4.3375,-4.341,-4.341,-4.3391,-4.3391,-4.3375,-4.3232,-4.3123,-4.3087,-4.2938,-4.2747,-4.2534,-4.2512,-4.2145,-4.1719,-4.1346,-4.1163,-4.1071,-4.0806,-4.0551,-4.0419,-4.0221,-4.0037,-3.9781,-3.9661,-3.9435,-3.9152,-3.9098,-3.9135,-3.9152,-3.9152,-3.9082,-3.9102,-3.9011,-3.8936,-3.8805,-3.8606,-3.8421,-3.8251,-3.7979,-3.7716,-3.6933,-3.5885,-3.4647,-3.4066,-3.338,-3.2464,-3.1349,-3.0139,-2.85,-2.603,-2.2795,-1.934,-1.6014,-1.286,-0.9445,-0.609,-0.2703,0.0601,0.3894,0.7087,1.0036,1.218,1.4638,1.6643,1.843,1.9494,2.0159,2.1248,2.2494,2.3836,2.4935,2.6108,2.7394,2.8615,2.9795,3.0961,3.2311,3.3267,3.4449,3.5349,3.6307,3.7954,4.0225,4.1359,4.2479,4.425,4.5715,4.6305,4.69,4.7255,4.7601,4.7907,4.8235,4.8567,4.8866,4.9201,4.9529,4.986,5.0063,5.0217,-4.3079,-4.237,-4.2244,-4.2184,-4.2097,-4.2228,-4.2472,-4.2747,-4.2918,-4.305,-4.3232,-4.3391,-4.3545,-4.3679,-4.3781,-4.3781,-4.3781,-4.3781,-4.3781,-4.3781,-4.3649,-4.3548,-4.3461,-4.3338,-4.3196,-4.3032,-4.292,-4.2806,-4.2297,-4.1899,-4.1613,-4.1569,-4.1255,-4.1024,-4.0884,-4.0741,-4.0549,-4.0353,-4.0154,-4.0037,-3.9902,-3.9902,-3.9902,-3.9952,-3.9902,-3.9952,-3.9952,-3.9885,-3.9817,-3.9698,-3.9578,-3.9528,-3.9343,-3.9132,-3.8999,-3.8837,-3.7995,-3.687,-3.5743,-3.497,-3.4023,-3.2919,-3.1516,-2.9605,-2.6467,-2.3103,-1.9496,-1.6188,-1.2833,-0.9225,-0.528,-0.1598,0.1995,0.5381,0.8837,1.1702,1.4522,1.6793,1.8969,2.0828,2.259,2.3328,2.3951,2.4893,2.6008,2.6943,2.8056,2.922,3.0568,3.193,3.3101,3.4278,3.5121,3.5934,3.6794,3.7716,3.924,4.113,4.2226,4.3575,4.5449,4.6717,4.7255,4.7743,4.8102,4.8403,4.8707,4.8863,4.9015,4.929,4.9608,4.9884,5.0174,5.038,5.0527,-4.274,-4.2644,-4.225,-4.2187,-4.2432,-4.2631,-4.2862,-4.3087,-4.325,-4.3356,-4.3477,-4.3712,-4.3955,-4.4097,-4.4128,-4.4128,-4.4147,-4.4147,-4.4128,-4.4097,-4.4036,-4.3955,-4.3841,-4.3758,-4.3646,-4.3477,-4.3391,-4.3232,-4.2995,-4.2598,-4.2257,-4.2103,-4.177,-4.1552,-4.1418,-4.1237,-4.1053,-4.0802,-4.0707,-4.0642,-4.0594,-4.0594,-4.0642,-4.0707,-4.0737,-4.0737,-4.0784,-4.0767,-4.0698,-4.0664,-4.0668,-4.0569,-4.0449,-4.0357,-4.0297,-4.0199,-3.9665,-3.9063,-3.7899,-3.6852,-3.5761,-3.4449,-3.2567,-3.0175,-2.6782,-2.3589,-2.0248,-1.6521,-1.2496,-0.8503,-0.427,-0.0,0.407,0.772,1.126,1.4063,1.6908,1.9413,2.1649,2.3483,2.5201,2.6645,2.7243,2.7667,2.8349,2.9024,3.0024,3.1209,3.2591,3.4011,3.4913,3.5978,3.6656,3.7382,3.8132,3.9235,4.0762,4.1984,4.3084,4.4438,4.6201,4.736,4.8043,4.8512,4.8878,4.9171,4.9386,4.9394,4.9412,4.9711,5.0019,5.021,5.0446,5.0644,5.0822,-4.2486,-4.2602,-4.2588,-4.2613,-4.2711,-4.2995,-4.3268,-4.3426,-4.3597,-4.373,-4.3892,-4.4079,-4.4288,-4.444,-4.4449,-4.4468,-4.4468,-4.4487,-4.4468,-4.4421,-4.4345,-4.4279,-4.4221,-4.4151,-4.4048,-4.3955,-4.386,-4.3712,-4.3579,-4.3371,-4.2958,-4.2591,-4.2297,-4.2151,-4.2002,-4.1813,-4.1622,-4.1445,-4.1356,-4.1328,-4.1283,-4.1283,-4.1418,-4.1507,-4.1578,-4.1648,-4.1796,-4.1778,-4.1743,-4.169,-4.1682,-4.17,-4.1576,-4.1594,-4.1525,-4.1402,-4.127,-4.0822,-4.0124,-3.864,-3.727,-3.5733,-3.3565,-3.0808,-2.7779,-2.4588,-2.0988,-1.6522,-1.2045,-0.7186,-0.2568,0.2078,0.6614,1.0674,1.4282,1.7347,2.0062,2.2397,2.4461,2.6186,2.7766,2.9252,3.042,3.085,3.0695,3.1303,3.2443,3.3539,3.4707,3.6016,3.6708,3.7504,3.8124,3.8817,3.9478,4.0556,4.1539,4.2802,4.4007,4.5283,4.6779,4.7738,4.8792,4.9121,4.9475,4.9792,5.0019,4.9986,5.004,5.0214,5.0406,5.0568,5.0692,5.0903,5.1024,-4.2826,-4.3014,-4.3196,-4.3196,-4.3069,-4.3391,-4.3631,-4.3795,-4.3968,-4.4151,-4.4393,-4.4513,-4.4621,-4.4719,-4.4796,-4.4796,-4.4796,-4.4846,-4.4821,-4.4796,-4.4751,-4.47,-4.4621,-4.4568,-4.4486,-4.4402,-4.4298,-4.4173,-4.4095,-4.3962,-4.3758,-4.3406,-4.2959,-4.2693,-4.2516,-4.2356,-4.2192,-4.2151,-4.211,-4.2086,-4.2086,-4.2086,-4.2151,-4.2274,-4.2297,-4.2342,-4.2462,-4.2465,-4.2505,-4.2544,-4.2582,-4.2603,-4.2605,-4.2643,-4.2607,-4.2551,-4.2456,-4.2322,-4.1884,-4.0332,-3.8543,-3.6596,-3.442,-3.1918,-2.9098,-2.553,-2.1098,-1.626,-1.1006,-0.5686,0.0098,0.5198,0.9874,1.3966,1.7629,2.0771,2.3359,2.5677,2.7526,2.9223,3.0517,3.1877,3.2987,3.3955,3.3675,3.3542,3.472,3.5856,3.689,3.7753,3.8391,3.8994,3.9595,4.0165,4.0787,4.1516,4.2258,4.3466,4.4802,4.5989,4.7229,4.859,4.9475,4.9792,5.003,5.0259,5.0449,5.0548,5.0605,5.0587,5.0715,5.0883,5.1024,5.1132,5.1189,-4.3213,-4.3458,-4.3744,-4.3712,-4.3545,-4.3726,-4.3949,-4.4121,-4.4269,-4.4541,-4.4821,-4.4895,-4.4948,-4.5019,-4.5087,-4.5109,-4.5109,-4.5132,-4.5132,-4.5132,-4.5087,-4.5084,-4.5014,-4.4924,-4.4881,-4.4827,-4.4707,-4.4591,-4.4511,-4.4467,-4.4327,-4.4072,-4.374,-4.3403,-4.3124,-4.2939,-4.2844,-4.2788,-4.2806,-4.2806,-4.2806,-4.2882,-4.2902,-4.2958,-4.3014,-4.3069,-4.3105,-4.3193,-4.3263,-4.3314,-4.3382,-4.3483,-4.3517,-4.3564,-4.361,-4.3592,-4.3523,-4.3472,-4.2973,-4.1629,-3.9732,-3.7978,-3.6213,-3.3619,-3.042,-2.6554,-2.195,-1.5698,-0.9845,-0.34,0.3119,0.8905,1.3964,1.8353,2.1836,2.4975,2.699,2.9148,3.069,3.2248,3.3463,3.4543,3.5552,3.6513,3.6497,3.6288,3.6845,3.785,3.863,3.9412,3.9926,4.0487,4.0983,4.1546,4.2095,4.2647,4.314,4.3781,4.5077,4.6341,4.7598,4.8927,4.9945,5.0268,5.0491,5.0696,5.0813,5.0845,5.0874,5.0855,5.0984,5.1122,5.115,5.1252,5.1273,-4.366,-4.3823,-4.4084,-4.4121,-4.403,-4.4132,-4.4279,-4.443,-4.4629,-4.4852,-4.5106,-4.5178,-4.5222,-4.5283,-4.5342,-4.5381,-4.54,-4.54,-4.54,-4.54,-4.54,-4.54,-4.5322,-4.5263,-4.522,-4.5178,-4.5071,-4.4957,-4.4881,-4.4876,-4.4802,-4.4674,-4.4411,-4.4106,-4.3693,-4.3474,-4.3336,-4.3231,-4.3284,-4.3303,-4.3355,-4.3458,-4.3526,-4.3609,-4.3656,-4.3735,-4.3781,-4.3887,-4.4009,-4.4098,-4.4158,-4.4271,-4.4371,-4.444,-4.4499,-4.4506,-4.4468,-4.4424,-4.4308,-4.2595,-4.1147,-3.9661,-3.7976,-3.5676,-3.2152,-2.7831,-2.2222,-1.5569,-0.7951,-0.0475,0.6461,1.3267,1.8433,2.2792,2.6313,2.8863,3.0943,3.2444,3.4014,3.5116,3.6079,3.7091,3.8111,3.8913,3.9122,3.9156,3.9291,3.9783,4.0408,4.0892,4.1393,4.1771,4.2268,4.2624,4.3118,4.3526,4.402,4.4543,4.5387,4.663,4.7697,4.8811,4.9702,5.0491,5.0826,5.0933,5.1042,5.1113,5.1084,5.1044,5.1164,5.1288,5.1316,5.132,5.1328,-4.4109,-4.4345,-4.4541,-4.4629,-4.4707,-4.4621,-4.4681,-4.4881,-4.5049,-4.5222,-4.5362,-4.5437,-4.551,-4.5563,-4.561,-4.5661,-4.5677,-4.5718,-4.5737,-4.5661,-4.5642,-4.5648,-4.5596,-4.5563,-4.5528,-4.551,-4.5438,-4.5343,-4.5285,-4.5243,-4.5156,-4.5026,-4.491,-4.4591,-4.4202,-4.3992,-4.3899,-4.3868,-4.3899,-4.3899,-4.3943,-4.4023,-4.4114,-4.4184,-4.428,-4.4337,-4.4373,-4.4535,-4.4669,-4.4724,-4.4786,-4.4919,-4.5006,-4.5072,-4.5131,-4.517,-4.5151,-4.5113,-4.4978,-4.4071,-4.3138,-4.1584,-3.9939,-3.7797,-3.4621,-2.9562,-2.2842,-1.4409,-0.5773,0.2542,1.1493,1.8888,2.4259,2.7965,3.1114,3.3077,3.4934,3.6035,3.729,3.802,3.8903,3.9583,4.0481,4.0945,4.1177,4.1297,4.1315,4.1372,4.1848,4.2228,4.2668,4.3013,4.3404,4.3726,4.4062,4.4341,4.4567,4.4947,4.5816,4.6953,4.7962,4.8732,4.9713,5.0603,5.0899,5.116,5.1171,5.1203,5.1242,5.1268,5.1288,5.1308,5.1307,5.1294,5.1284,-4.4486,-4.4745,-4.4876,-4.5065,-4.5175,-4.5019,-4.5065,-4.526,-4.5456,-4.558,-4.5591,-4.5688,-4.5747,-4.5827,-4.588,-4.5917,-4.5917,-4.5953,-4.5964,-4.5898,-4.5898,-4.5873,-4.5867,-4.5808,-4.5808,-4.578,-4.5718,-4.5619,-4.5571,-4.5577,-4.5472,-4.5381,-4.5303,-4.5099,-4.4787,-4.4612,-4.4428,-4.4409,-4.439,-4.4465,-4.4501,-4.4553,-4.4631,-4.4707,-4.4806,-4.4877,-4.4969,-4.5082,-4.5207,-4.5247,-4.5339,-4.5442,-4.5484,-4.5554,-4.5622,-4.5641,-4.5662,-4.5603,-4.5417,-4.5336,-4.4397,-4.3483,-4.2032,-4.0044,-3.7091,-3.2714,-2.3276,-1.3981,-0.3938,0.7282,1.7217,2.4599,2.9658,3.3305,3.519,3.7138,3.8136,3.9234,3.9811,4.0595,4.1067,4.1825,4.2432,4.2842,4.3125,4.3195,4.3296,4.324,4.3164,4.3486,4.3741,4.405,4.4297,4.4535,4.4762,4.4996,4.5208,4.5413,4.6132,4.6959,4.7722,4.8438,4.9585,5.0622,5.0928,5.1144,5.121,5.1238,5.1215,5.1216,5.123,5.1244,5.1271,5.1238,5.1209,-4.4895,-4.5014,-4.5156,-4.5303,-4.5457,-4.5323,-4.5362,-4.5524,-4.5703,-4.5794,-4.5822,-4.5944,-4.5977,-4.5998,-4.6065,-4.6083,-4.6072,-4.6091,-4.6091,-4.6091,-4.6072,-4.6083,-4.6046,-4.6008,-4.5988,-4.5968,-4.5917,-4.5832,-4.5803,-4.5777,-4.5736,-4.5699,-4.5623,-4.5503,-4.5341,-4.5167,-4.4938,-4.4893,-4.4867,-4.4947,-4.4973,-4.5036,-4.5101,-4.5185,-4.5247,-4.5304,-4.5395,-4.5497,-4.5607,-4.5673,-4.5762,-4.5811,-4.589,-4.5955,-4.5975,-4.5967,-4.5952,-4.5829,-4.5716,-4.5634,-4.5419,-4.4584,-4.3692,-4.2099,-3.9443,-3.4841,-2.5206,-1.3266,-0.2005,1.1432,2.3323,2.9329,3.5284,3.7479,3.9182,4.0381,4.1142,4.1845,4.2283,4.2767,4.3062,4.3558,4.3826,4.4253,4.4307,4.4456,4.444,4.4417,4.4383,4.4381,4.4637,4.4796,4.5074,4.5287,4.5457,4.5496,4.5596,4.5708,4.5852,4.6546,4.7332,4.8127,4.9059,4.9994,5.0799,5.1148,5.1171,5.1164,5.1142,5.1141,5.1102,5.1102,5.1102,5.1081,5.1042,-4.5115,-4.5282,-4.5438,-4.5543,-4.5658,-4.5736,-4.579,-4.579,-4.5891,-4.5947,-4.6007,-4.6052,-4.6091,-4.6144,-4.6167,-4.6177,-4.6167,-4.6171,-4.6171,-4.6171,-4.6162,-4.6172,-4.6162,-4.6137,-4.6125,-4.6112,-4.6072,-4.6018,-4.5994,-4.5987,-4.5949,-4.5906,-4.5832,-4.582,-4.5757,-4.566,-4.5478,-4.5358,-4.5303,-4.5341,-4.5377,-4.5432,-4.55,-4.558,-4.5621,-4.5678,-4.5757,-4.582,-4.5872,-4.5913,-4.5975,-4.6016,-4.6019,-4.6012,-4.5976,-4.5851,-4.5796,-4.5735,-4.5643,-4.5499,-4.5249,-4.4812,-4.3958,-4.315,-4.0693,-3.5405,-2.6258,-1.3129,-0.0478,1.24,2.5261,3.3252,3.7933,4.0214,4.1623,4.2344,4.3016,4.3354,4.3806,4.4057,4.4365,4.4536,4.4864,4.5005,4.507,4.5331,4.5447,4.5389,4.5356,4.5264,4.5277,4.5423,4.5537,4.5663,4.5732,4.5791,4.5903,4.6006,4.6088,4.6284,4.7031,4.7828,4.8577,4.9504,5.053,5.0992,5.1123,5.1093,5.097,5.0932,5.0894,5.0913,5.0932,5.0898,5.0832,-4.5362,-4.5526,-4.5658,-4.5775,-4.5883,-4.5996,-4.6057,-4.6029,-4.6068,-4.6098,-4.6142,-4.6143,-4.616,-4.6195,-4.6204,-4.6207,-4.6209,-4.619,-4.619,-4.619,-4.6209,-4.6207,-4.6204,-4.6202,-4.62,-4.6192,-4.6186,-4.6144,-4.6132,-4.6103,-4.6073,-4.6086,-4.6025,-4.6018,-4.6002,-4.5957,-4.5901,-4.5778,-4.5706,-4.5705,-4.5719,-4.5744,-4.5825,-4.588,-4.592,-4.5946,-4.5974,-4.6,-4.6019,-4.6044,-4.6072,-4.6032,-4.5964,-4.5883,-4.5685,-4.5522,-4.5369,-4.5248,-4.5057,-4.4822,-4.4537,-4.3983,-4.3202,-4.1895,-3.9586,-3.5288,-2.3812,-1.1408,0.0453,1.2578,2.5301,3.6426,3.9492,4.2481,4.3241,4.3997,4.4338,4.4628,4.4881,4.5095,4.5266,4.5358,4.552,4.561,4.5685,4.5703,4.5718,4.5724,4.569,4.5677,4.5673,4.5755,4.5841,4.5955,4.5989,4.5963,4.5992,4.6015,4.6026,4.6335,4.6894,4.7463,4.8148,4.9246,5.0448,5.0746,5.0898,5.0848,5.0769,5.0699,5.0625,5.0567,5.0587,5.0644,5.0567,-4.5591,-4.5733,-4.5873,-4.5998,-4.6103,-4.6172,-4.6183,-4.6198,-4.6186,-4.6206,-4.6198,-4.621,-4.6211,-4.6209,-4.6184,-4.618,-4.6175,-4.6175,-4.6173,-4.62,-4.6195,-4.6178,-4.618,-4.62,-4.6184,-4.6186,-4.6189,-4.6152,-4.6191,-4.6187,-4.6163,-4.62,-4.6175,-4.6153,-4.6134,-4.6114,-4.6049,-4.5987,-4.5933,-4.5923,-4.5959,-4.6006,-4.6027,-4.6084,-4.6089,-4.6092,-4.6087,-4.6074,-4.6088,-4.6049,-4.5997,-4.5916,-4.5675,-4.5452,-4.522,-4.4938,-4.4712,-4.4431,-4.4134,-4.3774,-4.3237,-4.2522,-4.1593,-3.9576,-3.6982,-3.4479,-2.396,-1.0831,0.1224,1.3658,2.6338,3.4747,3.9203,4.1405,4.2582,4.3342,4.3938,4.4331,4.4816,4.5016,4.518,4.5312,4.5414,4.5464,4.5527,4.5724,4.5791,4.5799,4.5776,4.5787,4.5835,4.5872,4.5948,4.5972,4.6006,4.5991,4.6002,4.6027,4.5986,4.5977,4.626,4.6934,4.7708,4.8735,4.974,5.0366,5.0622,5.0548,5.0507,5.0423,5.0333,5.0193,5.0193,5.0287,5.0264,-4.5756,-4.5871,-4.6054,-4.6138,-4.6167,-4.6178,-4.621,-4.6207,-4.6202,-4.6204,-4.6205,-4.62,-4.6202,-4.6182,-4.6128,-4.6137,-4.6118,-4.6099,-4.6118,-4.6125,-4.6125,-4.6125,-4.6118,-4.6125,-4.6117,-4.6133,-4.6143,-4.6128,-4.6163,-4.6192,-4.6198,-4.618,-4.6182,-4.6143,-4.6119,-4.61,-4.6075,-4.6049,-4.6007,-4.6014,-4.6049,-4.6067,-4.6109,-4.6133,-4.613,-4.608,-4.6039,-4.5981,-4.594,-4.5881,-4.5747,-4.5471,-4.5093,-4.4808,-4.4505,-4.4185,-4.3767,-4.3402,-4.2928,-4.2377,-4.164,-4.0438,-3.9005,-3.6558,-3.4168,-3.1864,-2.4359,-1.0741,0.2041,1.4495,2.5103,3.2194,3.8166,3.9878,4.1606,4.2399,4.3221,4.3916,4.4489,4.4749,4.4909,4.5027,4.5133,4.5258,4.5382,4.544,4.5498,4.5498,4.5441,4.5442,4.5553,4.5624,4.5851,4.5925,4.5908,4.5861,4.5811,4.5809,4.5738,4.5711,4.5684,4.6429,4.7251,4.799,4.8836,4.9621,5.0191,5.0268,5.0212,5.0163,5.0019,4.986,4.9778,4.9814,4.9824,-4.5925,-4.6007,-4.6176,-4.6225,-4.6204,-4.6211,-4.62,-4.6191,-4.6131,-4.6092,-4.6099,-4.6125,-4.6131,-4.6127,-4.6063,-4.6036,-4.6018,-4.5998,-4.5998,-4.6017,-4.6017,-4.6018,-4.6018,-4.6008,-4.6008,-4.6026,-4.6024,-4.6041,-4.6064,-4.6079,-4.6047,-4.6053,-4.6047,-4.604,-4.6006,-4.599,-4.5955,-4.5957,-4.5928,-4.592,-4.5972,-4.5982,-4.603,-4.6064,-4.6053,-4.599,-4.5862,-4.5759,-4.5628,-4.5398,-4.5131,-4.4725,-4.4308,-4.3951,-4.3526,-4.3096,-4.2613,-4.2113,-4.1534,-4.0732,-3.9742,-3.8401,-3.6463,-3.3977,-3.0108,-2.7183,-2.1079,-0.8376,0.0692,1.2559,2.1139,2.8583,3.3563,3.6481,3.8568,4.0088,4.1361,4.2545,4.3148,4.3627,4.3811,4.4089,4.4194,4.4406,4.4547,4.4693,4.4808,4.4891,4.4898,4.4921,4.5076,4.5221,4.5337,4.5543,4.5549,4.551,4.551,4.55,4.5468,4.5417,4.5419,4.607,4.6793,4.7589,4.8384,4.9177,4.9657,4.9872,4.9906,4.9833,4.9665,4.9506,4.9415,4.9334,4.927,-4.6063,-4.615,-4.6251,-4.6249,-4.621,-4.6192,-4.6172,-4.6144,-4.6046,-4.5928,-4.5894,-4.5988,-4.5997,-4.5975,-4.596,-4.5925,-4.588,-4.5854,-4.5867,-4.5848,-4.5847,-4.5809,-4.5783,-4.5802,-4.5796,-4.5809,-4.5835,-4.5828,-4.584,-4.5844,-4.5836,-4.5856,-4.5832,-4.5808,-4.5796,-4.5751,-4.5692,-4.565,-4.5596,-4.5561,-4.5653,-4.5766,-4.5811,-4.5859,-4.5847,-4.5783,-4.5592,-4.5389,-4.5189,-4.4786,-4.4334,-4.3815,-4.3347,-4.2886,-4.2386,-4.1884,-4.1112,-4.0568,-3.988,-3.8847,-3.7657,-3.609,-3.3856,-3.081,-2.698,-2.1884,-1.5834,-0.8591,0.0455,0.8792,1.7307,2.4309,2.9028,3.3425,3.5638,3.7945,3.9514,4.0961,4.1611,4.2218,4.2595,4.288,4.3203,4.3421,4.3652,4.38,4.3957,4.4063,4.4121,4.4165,4.426,4.4402,4.453,4.4738,4.502,4.5105,4.5086,4.5063,4.5017,4.5007,4.5114,4.547,4.6149,4.722,4.8022,4.864,4.9239,4.9598,4.9596,4.9469,4.9283,4.9108,4.9042,4.8922,4.8767,-4.6156,-4.6254,-4.6289,-4.6246,-4.6189,-4.6147,-4.6076,-4.6018,-4.5902,-4.5783,-4.5718,-4.5658,-4.5654,-4.5742,-4.5757,-4.5727,-4.5661,-4.5648,-4.5618,-4.5563,-4.5577,-4.5543,-4.5526,-4.5522,-4.5505,-4.5522,-4.5558,-4.5574,-4.5536,-4.5552,-4.5552,-4.5571,-4.5483,-4.5449,-4.5414,-4.5341,-4.5266,-4.5227,-4.5167,-4.5107,-4.5128,-4.5265,-4.5459,-4.5445,-4.534,-4.5208,-4.5046,-4.481,-4.4543,-4.4149,-4.3481,-4.2814,-4.2228,-4.1658,-4.1049,-4.035,-3.9598,-3.8821,-3.8003,-3.6754,-3.5485,-3.401,-3.1554,-2.8605,-2.4655,-2.0421,-1.4494,-0.8796,-0.0474,0.6711,1.4545,2.0512,2.5701,3.0073,3.3194,3.5577,3.7572,3.8722,3.9598,4.0285,4.0938,4.1314,4.1782,4.2042,4.2407,4.2594,4.285,4.2958,4.3133,4.3287,4.3404,4.3582,4.3701,4.4128,4.4493,4.4587,4.4594,4.458,4.4546,4.4565,4.4557,4.4613,4.5377,4.6497,4.7259,4.7851,4.8457,4.9171,4.9225,4.9108,4.8853,4.8695,4.866,4.8532,4.8364]},{"header":{"parameterUnit":"m.s-1","parameterCategory":1,"la1":31.0,"la2":29.5877,"lo1":-88.7671,"lo2":-86.6584,"dy":0.0162,"dx":0.0185,"nx":115,"ny":88,"refTime":"2023-09-20T12:00:00:Z","depth":0,"parameterNumber":3,"parameterNumberName":"V-component_of_WINDS"},"data":[0.0,0.0,0.0,0.0,0.0,0.0,0.0,0.0,0.0,0.0,0.0,0.0,0.0,0.0,0.0,0.0,0.0,0.0,0.0,0.0,0.0,0.0,0.0,0.0,0.0,0.0,0.0,0.0,0.0,0.0,0.0,0.0,0.0,0.0,0.0,0.0,0.0,0.0,0.0,0.0,0.0,0.0,0.0,0.0,0.0,0.0,0.0,0.0,0.0,0.0,0.0,0.0,0.0,0.0,0.0,0.0,0.0,0.0,0.0,0.0,0.0,0.0,0.0,0.0,0.0,0.0,0.0,0.0,0.0,0.0,0.0,0.0,0.0,0.0,0.0,0.0,0.0,0.0,0.0,0.0,0.0,0.0,0.0,0.0,0.0,0.0,0.0,0.0,0.0,0.0,0.0,0.0,0.0,0.0,0.0,0.0,0.0,0.0,0.0,0.0,0.0,0.0,0.0,0.0,0.0,0.0,0.0,0.0,0.0,0.0,0.0,0.0,0.0,0.0,0.0,0.0,0.0,0.0,0.0,0.0,0.0,0.0,0.0,0.0,0.0,0.0,0.0,0.0,0.0,0.0,0.0,0.0,0.0,0.0,0.0,0.0,0.0,0.0,0.0,0.0,0.0,0.0,0.0,0.0,0.0,0.0,0.0,0.0,0.0,0.0,0.0,0.0,0.0,0.0,0.0,0.0,0.0,0.0,0.0,0.0,0.0,0.0,0.0,0.0,0.0,0.0,0.0,0.0,0.0,0.0,0.0,0.0,0.0,0.0,0.0,0.0,0.0,0.0,0.0,0.0,0.0,0.0,0.0,0.0,0.0,0.0,0.0,0.0,0.0,0.0,0.0,0.0,0.0,0.0,0.0,0.0,0.0,0.0,0.0,0.0,0.0,0.0,0.0,0.0,0.0,0.0,0.0,0.0,0.0,0.0,0.0,0.0,0.0,0.0,0.0,0.0,0.0,0.0,0.0,0.0,0.0,0.0,0.0,0.0,0.0,0.0,0.0,0.0,0.0,0.0,0.0,0.0,0.0,0.0,0.0,0.0,0.0,0.0,0.0,0.0,0.0,0.0,0.0,0.0,0.0,0.0,0.0,0.0,0.0,0.0,0.0,0.0,0.0,0.0,0.0,0.0,0.0,0.0,0.0,0.0,0.0,0.0,0.0,0.0,0.0,0.0,0.0,0.0,0.0,0.0,0.0,0.0,0.0,0.0,0.0,0.0,0.0,0.0,0.0,0.0,0.0,0.0,0.0,0.0,0.0,0.0,0.0,0.0,0.0,0.0,0.0,0.0,0.0,0.0,0.0,0.0,0.0,0.0,0.0,0.0,0.0,0.0,0.0,0.0,0.0,0.0,0.0,0.0,0.0,0.0,0.0,0.0,0.0,0.0,0.0,0.0,0.0,0.0,0.0,0.0,0.0,0.0,0.0,0.0,0.0,0.0,0.0,0.0,0.0,0.0,0.0,0.0,0.0,0.0,0.0,0.0,0.0,0.0,0.0,0.0,0.0,0.0,0.0,0.0,0.0,0.0,0.0,0.0,0.0,0.0,0.0,0.0,0.0,0.0,0.0,0.0,0.0,0.0,0.0,0.0,0.0,0.0,0.0,0.0,0.0,0.0,0.0,0.0,0.0,0.0,0.0,0.0,0.0,0.0,0.0,0.0,0.0,0.0,0.0,0.0,0.0,0.0,0.0,0.0,0.0,0.0,0.0,0.0,0.0,0.0,0.0,0.0,0.0,0.0,0.0,0.0,0.0,0.0,0.0,0.0,0.0,0.0,0.0,0.0,0.0,0.0,0.0,0.0,0.0,0.0,0.0,0.0,0.0,0.0,0.0,0.0,0.0,0.0,0.0,0.0,0.0,0.0,0.0,0.0,0.0,0.0,0.0,0.0,0.0,0.0,0.0,0.0,0.0,0.0,0.0,0.0,0.0,0.0,0.0,0.0,0.0,0.0,0.0,0.0,0.0,0.0,0.0,0.0,0.0,0.0,0.0,0.0,0.0,0.0,0.0,0.0,0.0,0.0,0.0,0.0,0.0,0.0,0.0,0.0,0.0,0.0,0.0,0.0,0.0,0.0,0.0,0.0,0.0,0.0,0.0,0.0,0.0,0.0,0.0,0.0,0.0,0.0,0.0,0.0,0.0,0.0,0.0,0.0,0.0,0.0,0.0,0.0,0.0,0.0,0.0,0.0,0.0,0.0,0.0,0.0,0.0,0.0,0.0,0.0,0.0,0.0,0.0,0.0,0.0,0.0,0.0,0.0,0.0,0.0,0.0,0.0,0.0,0.0,0.0,0.0,0.0,0.0,0.0,0.0,0.0,0.0,0.0,0.0,0.0,0.0,0.0,0.0,0.0,0.0,0.0,0.0,0.0,0.0,0.0,0.0,0.0,0.0,0.0,0.0,0.0,0.0,0.0,0.0,0.0,0.0,0.0,0.0,0.0,0.0,0.0,0.0,0.0,0.0,0.0,0.0,0.0,0.0,0.0,0.0,0.0,0.0,0.0,0.0,0.0,0.0,0.0,0.0,0.0,0.0,0.0,0.0,0.0,0.0,0.0,0.0,0.0,0.0,0.0,0.0,0.0,0.0,0.0,0.0,0.0,0.0,0.0,0.0,0.0,0.0,0.0,0.0,0.0,0.0,0.0,0.0,0.0,0.0,0.0,0.0,0.0,0.0,0.0,0.0,0.0,0.0,0.0,0.0,0.0,0.0,0.0,0.0,0.0,0.0,0.0,0.0,0.0,0.0,0.0,0.0,0.0,0.0,0.0,0.0,0.0,0.0,0.0,0.0,0.0,0.0,0.0,0.0,0.0,0.0,0.0,0.0,0.0,0.0,0.0,0.0,0.0,0.0,0.0,0.0,0.0,0.0,0.0,0.0,0.0,0.0,0.0,0.0,0.0,0.0,0.0,0.0,0.0,0.0,0.0,0.0,0.0,0.0,0.0,0.0,0.0,0.0,0.0,0.0,0.0,0.0,0.0,0.0,0.0,0.0,0.0,0.0,0.0,0.0,0.0,0.0,0.0,0.0,0.0,0.0,0.0,0.0,0.0,0.0,0.0,0.0,0.0,0.0,0.0,0.0,0.0,0.0,0.0,0.0,0.0,0.0,0.0,0.0,0.0,0.0,0.0,0.0,0.0,0.0,0.0,0.0,0.0,0.0,0.0,0.0,0.0,0.0,0.0,0.0,0.0,0.0,0.0,0.0,0.0,0.0,0.0,0.0,0.0,0.0,0.0,0.0,0.0,0.0,0.0,0.0,0.0,0.0,0.0,0.0,0.0,0.0,0.0,0.0,0.0,0.0,0.0,0.0,0.0,0.0,0.0,0.0,0.0,0.0,0.0,0.0,0.0,0.0,0.0,0.0,0.0,0.0,0.0,0.0,0.0,0.0,0.0,0.0,0.0,0.0,0.0,0.0,0.0,0.0,0.0,0.0,0.0,0.0,0.0,0.0,0.0,0.0,0.0,0.0,0.0,0.0,0.0,0.0,0.0,0.0,0.0,0.0,0.0,0.0,0.0,0.0,0.0,0.0,0.0,0.0,0.0,0.0,0.0,0.0,0.0,0.0,0.0,0.0,0.0,0.0,0.0,0.0,0.0,0.0,0.0,0.0,0.0,0.0,0.0,0.0,0.0,0.0,0.0,0.0,0.0,0.0,0.0,0.0,0.0,0.0,0.0,0.0,0.0,0.0,0.0,0.0,0.0,0.0,0.0,0.0,0.0,0.0,0.0,0.0,0.0,0.0,0.0,0.0,0.0,0.0,0.0,0.0,0.0,0.0,0.0,0.0,0.0,0.0,0.0,0.0,0.0,0.0,0.0,0.0,0.0,0.0,0.0,0.0,0.0,0.0,0.0,0.0,0.0,0.0,0.0,0.0,0.0,0.0,0.0,0.0,0.0,0.0,0.0,0.0,0.0,0.0,0.0,0.0,0.0,0.0,0.0,0.0,0.0,0.0,0.0,0.0,0.0,0.0,0.0,0.0,0.0,0.0,0.0,0.0,0.0,0.0,0.0,0.0,0.0,0.0,0.0,0.0,0.0,0.0,0.0,0.0,0.0,0.0,0.0,0.0,0.0,0.0,0.0,0.0,0.0,0.0,0.0,0.0,0.0,0.0,0.0,0.0,0.0,0.0,0.0,0.0,0.0,0.0,0.0,0.0,0.0,0.0,0.0,0.0,0.0,0.0,0.0,0.0,0.0,0.0,0.0,0.0,0.0,0.0,0.0,0.0,0.0,0.0,0.0,0.0,0.0,0.0,0.0,0.0,-2.2588,0.0,0.0,0.0,0.0,0.0,0.0,0.0,0.0,0.0,0.0,0.0,0.0,0.0,0.0,0.0,0.0,0.0,0.0,0.0,0.0,0.0,0.0,0.0,0.0,0.0,0.0,0.0,0.0,0.0,0.0,0.0,0.0,0.0,0.0,0.0,0.0,0.0,0.0,0.0,0.0,0.0,0.0,0.0,0.0,0.0,0.0,0.0,0.0,0.0,0.0,0.0,0.0,0.0,0.0,0.0,0.0,0.0,0.0,0.0,0.0,0.0,0.0,0.0,0.0,0.0,0.0,0.0,0.0,0.0,0.0,0.0,0.0,0.0,0.0,0.0,0.0,0.0,0.0,0.0,0.0,0.0,0.0,0.0,0.0,0.0,0.0,0.0,0.0,0.0,0.0,0.0,0.0,0.0,0.0,0.0,0.0,0.0,0.0,0.0,0.0,0.0,0.0,0.0,0.0,0.0,0.0,0.0,0.0,0.0,0.0,-2.2354,-2.25,-2.2642,-2.279,-2.2919,0.0,0.0,0.0,0.0,0.0,0.0,0.0,0.0,0.0,0.0,0.0,0.0,0.0,0.0,0.0,0.0,0.0,0.0,0.0,0.0,0.0,0.0,0.0,0.0,0.0,0.0,0.0,0.0,0.0,0.0,0.0,0.0,0.0,0.0,0.0,0.0,0.0,0.0,0.0,0.0,0.0,0.0,0.0,0.0,0.0,0.0,0.0,0.0,0.0,0.0,0.0,0.0,0.0,0.0,0.0,0.0,0.0,0.0,0.0,0.0,0.0,0.0,0.0,0.0,0.0,0.0,0.0,0.0,0.0,0.0,0.0,0.0,0.0,0.0,0.0,0.0,0.0,0.0,0.0,0.0,0.0,0.0,0.0,0.0,0.0,0.0,0.0,0.0,0.0,0.0,0.0,0.0,0.0,0.0,0.0,0.0,0.0,0.0,0.0,0.0,0.0,0.0,0.0,0.0,0.0,0.0,0.0,0.0,0.0,0.0,0.0,0.0,-2.2952,-2.3052,-2.3223,0.0,0.0,0.0,0.0,0.0,0.0,0.0,0.0,0.0,0.0,0.0,0.0,0.0,0.0,0.0,0.0,0.0,0.0,0.0,0.0,0.0,0.0,0.0,0.0,0.0,0.0,0.0,0.0,0.0,0.0,0.0,0.0,0.0,0.0,0.0,0.0,0.0,0.0,0.0,0.0,0.0,0.0,0.0,0.0,0.0,0.0,0.0,0.0,0.0,0.0,0.0,0.0,0.0,0.0,0.0,0.0,0.0,0.0,0.0,0.0,0.0,0.0,0.0,0.0,0.0,0.0,0.0,0.0,0.0,0.0,0.0,0.0,0.0,0.0,0.0,0.0,0.0,0.0,0.0,0.0,0.0,0.0,0.0,0.0,0.0,0.0,0.0,0.0,0.0,0.0,0.0,0.0,0.0,0.0,0.0,0.0,0.0,0.0,0.0,0.0,0.0,0.0,0.0,0.0,0.0,0.0,0.0,0.0,0.0,0.0,-2.2995,-2.3241,-2.3283,0.0,-2.3634,0.0,0.0,0.0,0.0,0.0,0.0,0.0,0.0,0.0,0.0,0.0,0.0,0.0,0.0,0.0,0.0,0.0,0.0,0.0,0.0,0.0,0.0,0.0,0.0,0.0,0.0,0.0,0.0,0.0,0.0,0.0,0.0,0.0,0.0,0.0,0.0,0.0,0.0,0.0,0.0,0.0,0.0,0.0,0.0,0.0,0.0,0.0,0.0,0.0,0.0,0.0,0.0,0.0,0.0,0.0,0.0,0.0,0.0,0.0,0.0,0.0,0.0,0.0,0.0,0.0,0.0,0.0,0.0,0.0,0.0,0.0,0.0,0.0,0.0,0.0,0.0,0.0,0.0,0.0,0.0,0.0,0.0,0.0,0.0,0.0,0.0,0.0,0.0,0.0,0.0,0.0,0.0,0.0,0.0,0.0,0.0,0.0,0.0,0.0,0.0,0.0,0.0,0.0,0.0,0.0,0.0,0.0,0.0,0.0,0.0,-2.4693,-2.4939,-2.5067,-2.5185,0.0,0.0,0.0,0.0,0.0,0.0,0.0,0.0,0.0,0.0,0.0,0.0,0.0,0.0,0.0,0.0,0.0,0.0,0.0,0.0,0.0,0.0,0.0,0.0,0.0,0.0,0.0,0.0,0.0,0.0,0.0,0.0,0.0,0.0,0.0,0.0,0.0,0.0,0.0,0.0,0.0,0.0,0.0,0.0,0.0,0.0,0.0,0.0,0.0,0.0,0.0,0.0,0.0,0.0,0.0,0.0,0.0,0.0,0.0,0.0,0.0,0.0,0.0,0.0,0.0,0.0,0.0,0.0,0.0,0.0,0.0,0.0,0.0,0.0,0.0,0.0,0.0,0.0,0.0,0.0,0.0,0.0,0.0,0.0,0.0,0.0,0.0,0.0,0.0,0.0,0.0,0.0,0.0,0.0,0.0,0.0,0.0,0.0,0.0,0.0,0.0,0.0,0.0,0.0,0.0,0.0,0.0,0.0,0.0,0.0,-2.5821,-2.5929,-2.6175,-2.6385,-2.6475,-2.6497,0.0,0.0,0.0,0.0,0.0,0.0,0.0,0.0,0.0,0.0,0.0,0.0,0.0,0.0,0.0,0.0,0.0,0.0,0.0,0.0,0.0,0.0,0.0,0.0,0.0,0.0,0.0,0.0,0.0,0.0,0.0,0.0,0.0,0.0,0.0,0.0,0.0,0.0,0.0,0.0,0.0,0.0,0.0,0.0,0.0,0.0,0.0,0.0,0.0,0.0,0.0,0.0,0.0,0.0,0.0,0.0,0.0,0.0,0.0,0.0,0.0,0.0,0.0,0.0,0.0,0.0,0.0,0.0,0.0,0.0,0.0,0.0,0.0,0.0,0.0,0.0,0.0,0.0,0.0,0.0,0.0,0.0,0.0,0.0,0.0,0.0,0.0,0.0,0.0,0.0,0.0,0.0,0.0,0.0,0.0,0.0,0.0,0.0,0.0,0.0,0.0,0.0,0.0,0.0,0.0,0.0,0.0,0.0,-2.6105,-2.6129,-2.6193,-2.6425,-2.6576,-2.6718,0.0,0.0,0.0,0.0,0.0,0.0,0.0,0.0,0.0,0.0,0.0,0.0,0.0,0.0,0.0,0.0,0.0,0.0,0.0,0.0,0.0,0.0,0.0,0.0,0.0,0.0,0.0,0.0,0.0,0.0,0.0,0.0,0.0,0.0,0.0,0.0,0.0,0.0,0.0,0.0,0.0,0.0,0.0,0.0,0.0,0.0,0.0,0.0,0.0,0.0,0.0,0.0,0.0,0.0,0.0,0.0,0.0,0.0,0.0,0.0,0.0,0.0,0.0,0.0,0.0,0.0,0.0,0.0,0.0,0.0,0.0,0.0,0.0,0.0,0.0,0.0,0.0,0.0,0.0,0.0,0.0,0.0,0.0,0.0,0.0,0.0,0.0,0.0,0.0,0.0,0.0,0.0,0.0,0.0,0.0,0.0,0.0,0.0,0.0,0.0,0.0,0.0,0.0,0.0,0.0,0.0,0.0,0.0,0.0,-2.7687,-2.7876,-2.8004,-2.8206,-2.8294,-2.8419,0.0,0.0,0.0,0.0,0.0,0.0,0.0,0.0,0.0,0.0,0.0,0.0,0.0,0.0,0.0,0.0,0.0,0.0,0.0,0.0,0.0,0.0,0.0,0.0,0.0,0.0,0.0,0.0,0.0,0.0,0.0,0.0,0.0,0.0,0.0,0.0,0.0,0.0,0.0,0.0,0.0,0.0,0.0,0.0,0.0,0.0,0.0,0.0,0.0,0.0,0.0,0.0,0.0,0.0,0.0,0.0,0.0,0.0,0.0,0.0,0.0,0.0,0.0,0.0,0.0,0.0,0.0,0.0,0.0,0.0,0.0,0.0,0.0,0.0,0.0,0.0,0.0,0.0,0.0,0.0,0.0,0.0,0.0,0.0,0.0,0.0,0.0,0.0,0.0,0.0,0.0,0.0,0.0,0.0,0.0,0.0,0.0,0.0,0.0,0.0,0.0,0.0,0.0,0.0,0.0,0.0,0.0,0.0,0.0,-2.8791,0.0,-2.9138,-2.9265,-2.9332,-2.9453,0.0,0.0,0.0,0.0,0.0,0.0,0.0,0.0,0.0,0.0,0.0,0.0,0.0,0.0,0.0,0.0,0.0,0.0,0.0,0.0,0.0,0.0,0.0,0.0,0.0,0.0,0.0,0.0,0.0,0.0,0.0,0.0,0.0,0.0,0.0,0.0,0.0,0.0,0.0,0.0,0.0,0.0,0.0,0.0,0.0,0.0,0.0,0.0,0.0,0.0,0.0,0.0,0.0,0.0,0.0,0.0,0.0,0.0,0.0,0.0,0.0,0.0,0.0,0.0,0.0,0.0,0.0,0.0,0.0,0.0,0.0,0.0,0.0,0.0,0.0,0.0,0.0,0.0,0.0,0.0,0.0,0.0,0.0,0.0,0.0,0.0,0.0,0.0,0.0,0.0,0.0,0.0,0.0,0.0,0.0,0.0,0.0,0.0,0.0,0.0,0.0,0.0,0.0,0.0,0.0,0.0,0.0,0.0,-2.8947,-2.9178,-2.9249,-2.9314,-2.9394,-2.9512,-2.9626,0.0,0.0,0.0,0.0,0.0,0.0,0.0,0.0,0.0,0.0,0.0,0.0,0.0,0.0,0.0,0.0,0.0,0.0,0.0,0.0,0.0,0.0,0.0,0.0,0.0,0.0,0.0,0.0,0.0,0.0,0.0,0.0,0.0,0.0,0.0,0.0,0.0,0.0,0.0,0.0,0.0,0.0,0.0,0.0,0.0,0.0,0.0,0.0,0.0,0.0,0.0,0.0,0.0,0.0,0.0,0.0,0.0,0.0,0.0,0.0,0.0,0.0,0.0,0.0,0.0,0.0,0.0,0.0,0.0,0.0,0.0,0.0,0.0,0.0,0.0,0.0,0.0,0.0,0.0,0.0,0.0,0.0,0.0,0.0,0.0,0.0,0.0,0.0,0.0,0.0,0.0,0.0,0.0,0.0,0.0,0.0,0.0,0.0,0.0,0.0,0.0,0.0,0.0,0.0,0.0,0.0,0.0,0.0,0.0,-2.927,-2.9373,-2.9492,-2.9589,-2.9645,-2.9717,0.0,0.0,0.0,0.0,0.0,0.0,0.0,0.0,0.0,0.0,0.0,0.0,0.0,0.0,0.0,0.0,0.0,0.0,0.0,0.0,0.0,0.0,0.0,0.0,0.0,0.0,0.0,0.0,0.0,0.0,0.0,0.0,0.0,0.0,0.0,0.0,0.0,0.0,0.0,0.0,0.0,0.0,0.0,0.0,0.0,0.0,0.0,0.0,0.0,0.0,0.0,0.0,0.0,0.0,0.0,0.0,0.0,0.0,0.0,0.0,0.0,0.0,0.0,0.0,0.0,0.0,0.0,0.0,0.0,0.0,0.0,0.0,0.0,0.0,0.0,0.0,0.0,0.0,0.0,0.0,0.0,0.0,0.0,0.0,0.0,0.0,0.0,0.0,0.0,0.0,0.0,0.0,0.0,0.0,0.0,0.0,0.0,0.0,0.0,0.0,0.0,0.0,0.0,0.0,0.0,0.0,0.0,0.0,0.0,-2.9453,-2.955,-2.9626,-2.9793,-2.9753,-2.9822,-2.994,0.0,0.0,0.0,0.0,0.0,0.0,0.0,0.0,0.0,0.0,0.0,0.0,0.0,0.0,0.0,0.0,0.0,0.0,0.0,0.0,0.0,0.0,0.0,0.0,0.0,0.0,0.0,0.0,0.0,0.0,0.0,0.0,0.0,0.0,0.0,0.0,0.0,0.0,0.0,0.0,0.0,0.0,0.0,0.0,0.0,0.0,0.0,0.0,0.0,0.0,0.0,0.0,0.0,0.0,0.0,0.0,0.0,0.0,0.0,0.0,0.0,0.0,0.0,0.0,0.0,0.0,0.0,0.0,0.0,0.0,0.0,0.0,0.0,0.0,0.0,0.0,0.0,0.0,0.0,0.0,0.0,0.0,0.0,0.0,0.0,0.0,0.0,0.0,0.0,0.0,0.0,0.0,0.0,0.0,0.0,0.0,0.0,0.0,0.0,0.0,0.0,0.0,0.0,0.0,0.0,0.0,0.0,0.0,-2.9833,-2.9851,-2.9887,-2.9895,-2.9907,-2.994,0.0,0.0,0.0,0.0,0.0,0.0,0.0,0.0,0.0,0.0,0.0,0.0,0.0,0.0,0.0,0.0,0.0,0.0,0.0,0.0,0.0,0.0,0.0,0.0,0.0,0.0,0.0,0.0,0.0,0.0,0.0,0.0,0.0,0.0,0.0,0.0,0.0,0.0,0.0,0.0,0.0,0.0,0.0,0.0,0.0,0.0,0.0,0.0,0.0,0.0,0.0,0.0,0.0,0.0,0.0,0.0,0.0,0.0,0.0,0.0,0.0,0.0,0.0,0.0,0.0,0.0,0.0,0.0,0.0,0.0,0.0,0.0,0.0,0.0,0.0,0.0,0.0,0.0,0.0,0.0,0.0,0.0,0.0,0.0,0.0,0.0,0.0,0.0,0.0,0.0,0.0,0.0,0.0,0.0,0.0,0.0,0.0,0.0,0.0,0.0,0.0,0.0,0.0,0.0,0.0,0.0,0.0,0.0,0.0,-3.1674,-3.1692,-3.1123,-2.9964,-2.994,-3.0019,0.0,0.0,0.0,0.0,0.0,0.0,0.0,0.0,0.0,0.0,0.0,0.0,0.0,0.0,0.0,0.0,0.0,0.0,0.0,0.0,0.0,0.0,0.0,0.0,0.0,0.0,0.0,0.0,0.0,0.0,0.0,0.0,0.0,0.0,0.0,0.0,0.0,0.0,0.0,0.0,0.0,0.0,0.0,0.0,0.0,0.0,0.0,0.0,0.0,0.0,0.0,0.0,0.0,0.0,0.0,0.0,0.0,0.0,0.0,0.0,0.0,0.0,0.0,0.0,0.0,0.0,0.0,0.0,0.0,0.0,0.0,0.0,0.0,0.0,0.0,0.0,0.0,0.0,0.0,0.0,0.0,0.0,0.0,0.0,0.0,0.0,0.0,0.0,0.0,0.0,0.0,0.0,0.0,0.0,0.0,0.0,0.0,0.0,0.0,0.0,0.0,0.0,0.0,0.0,0.0,0.0,0.0,0.0,-3.1789,-3.2408,-3.2424,-3.1984,-3.1067,-3.0738,-3.0471,0.0,0.0,0.0,0.0,0.0,0.0,0.0,0.0,0.0,0.0,0.0,0.0,0.0,0.0,0.0,0.0,0.0,0.0,0.0,0.0,0.0,0.0,0.0,0.0,0.0,0.0,0.0,0.0,0.0,0.0,0.0,0.0,0.0,0.0,0.0,0.0,0.0,0.0,0.0,0.0,0.0,0.0,0.0,0.0,0.0,0.0,0.0,0.0,0.0,0.0,0.0,0.0,0.0,0.0,0.0,0.0,0.0,0.0,0.0,0.0,0.0,0.0,0.0,0.0,0.0,0.0,0.0,0.0,0.0,0.0,0.0,0.0,0.0,0.0,0.0,0.0,0.0,0.0,0.0,0.0,0.0,0.0,0.0,0.0,0.0,0.0,0.0,0.0,0.0,0.0,0.0,0.0,0.0,0.0,0.0,0.0,0.0,0.0,0.0,0.0,0.0,0.0,0.0,0.0,0.0,0.0,0.0,0.0,-3.2505,-3.267,-3.2724,-3.2754,-3.2721,-3.1951,-3.1212,0.0,0.0,0.0,0.0,0.0,0.0,0.0,0.0,0.0,0.0,0.0,0.0,0.0,0.0,0.0,0.0,0.0,0.0,0.0,0.0,0.0,0.0,0.0,0.0,0.0,0.0,0.0,0.0,0.0,0.0,0.0,0.0,0.0,0.0,0.0,0.0,0.0,0.0,0.0,0.0,0.0,0.0,0.0,0.0,0.0,0.0,0.0,0.0,0.0,0.0,0.0,0.0,0.0,0.0,0.0,0.0,0.0,0.0,0.0,0.0,0.0,0.0,0.0,0.0,0.0,0.0,0.0,0.0,0.0,0.0,0.0,0.0,0.0,0.0,0.0,0.0,0.0,0.0,0.0,0.0,0.0,0.0,0.0,0.0,0.0,0.0,0.0,0.0,0.0,0.0,0.0,0.0,0.0,0.0,0.0,0.0,0.0,0.0,0.0,0.0,0.0,0.0,0.0,0.0,0.0,0.0,0.0,0.0,-3.3696,-3.4433,-3.4505,-3.4253,-3.3636,-3.2848,-3.2359,0.0,0.0,0.0,0.0,0.0,0.0,0.0,0.0,0.0,0.0,0.0,0.0,0.0,0.0,0.0,0.0,0.0,0.0,0.0,0.0,0.0,0.0,0.0,0.0,0.0,0.0,0.0,0.0,0.0,0.0,0.0,0.0,0.0,0.0,0.0,0.0,0.0,0.0,0.0,0.0,0.0,0.0,0.0,0.0,0.0,0.0,0.0,0.0,-2.0584,0.0,0.0,0.0,0.0,0.0,0.0,0.0,0.0,0.0,0.0,0.0,0.0,0.0,0.0,0.0,0.0,0.0,0.0,0.0,0.0,0.0,0.0,0.0,0.0,0.0,0.0,0.0,0.0,0.0,0.0,0.0,0.0,0.0,0.0,0.0,0.0,0.0,0.0,0.0,0.0,0.0,0.0,0.0,0.0,0.0,0.0,0.0,0.0,0.0,0.0,0.0,0.0,0.0,0.0,0.0,0.0,0.0,0.0,0.0,-3.4434,-3.4982,-3.5075,-3.4901,-3.4514,-3.414,-3.3555,0.0,0.0,0.0,0.0,0.0,0.0,0.0,0.0,0.0,0.0,0.0,0.0,0.0,0.0,0.0,0.0,0.0,0.0,0.0,0.0,0.0,0.0,0.0,0.0,0.0,0.0,0.0,0.0,0.0,0.0,0.0,0.0,0.0,0.0,0.0,0.0,0.0,0.0,0.0,0.0,0.0,0.0,0.0,0.0,0.0,0.0,0.0,0.0,0.0,0.0,0.0,0.0,0.0,0.0,0.0,0.0,0.0,0.0,0.0,0.0,0.0,0.0,0.0,0.0,0.0,0.0,0.0,0.0,0.0,0.0,0.0,0.0,0.0,0.0,0.0,0.0,0.0,0.0,0.0,0.0,0.0,0.0,0.0,0.0,0.0,0.0,0.0,0.0,0.0,0.0,0.0,0.0,0.0,0.0,0.0,0.0,0.0,0.0,0.0,0.0,0.0,0.0,0.0,0.0,0.0,0.0,0.0,-3.483,-3.487,-3.5001,-3.5075,-3.5129,-3.52,-3.528,-3.4634,-3.3264,0.0,0.0,0.0,0.0,0.0,0.0,0.0,0.0,0.0,0.0,0.0,0.0,0.0,0.0,0.0,0.0,0.0,0.0,0.0,0.0,0.0,0.0,0.0,0.0,0.0,0.0,0.0,0.0,0.0,0.0,0.0,0.0,0.0,0.0,0.0,0.0,0.0,0.0,-2.5476,-2.4639,0.0,0.0,0.0,0.0,0.0,0.0,0.0,0.0,-1.954,0.0,0.0,0.0,0.0,0.0,0.0,0.0,0.0,0.0,0.0,0.0,0.0,0.0,0.0,0.0,0.0,0.0,0.0,0.0,0.0,0.0,0.0,0.0,0.0,0.0,0.0,0.0,0.0,0.0,0.0,0.0,0.0,0.0,0.0,0.0,0.0,0.0,0.0,0.0,0.0,0.0,0.0,0.0,0.0,0.0,0.0,0.0,0.0,0.0,0.0,0.0,0.0,0.0,0.0,0.0,0.0,-3.4788,-3.4849,-3.4927,-3.5001,-3.5075,-3.5129,-3.5181,-3.5261,-3.517,-3.4894,0.0,0.0,0.0,0.0,0.0,0.0,0.0,0.0,0.0,0.0,0.0,0.0,0.0,0.0,0.0,0.0,0.0,0.0,0.0,0.0,0.0,0.0,0.0,0.0,0.0,0.0,0.0,0.0,0.0,0.0,0.0,0.0,0.0,0.0,0.0,0.0,0.0,0.0,0.0,-2.4343,-2.3839,0.0,0.0,0.0,0.0,0.0,0.0,0.0,0.0,-1.8815,0.0,0.0,0.0,0.0,0.0,0.0,0.0,0.0,0.0,0.0,0.0,0.0,0.0,0.0,0.0,0.0,0.0,0.0,0.0,0.0,0.0,0.0,0.0,0.0,0.0,0.0,0.0,0.0,0.0,0.0,0.0,0.0,0.0,0.0,0.0,0.0,0.0,0.0,0.0,0.0,0.0,0.0,0.0,0.0,0.0,0.0,0.0,0.0,0.0,0.0,0.0,0.0,0.0,0.0,0.0,-3.4728,-3.4771,-3.4849,-3.4946,-3.4983,-3.5038,-3.5166,-3.5212,-3.5254,0.0,0.0,0.0,0.0,0.0,0.0,0.0,0.0,0.0,0.0,0.0,0.0,0.0,0.0,0.0,0.0,0.0,0.0,0.0,0.0,0.0,0.0,0.0,0.0,0.0,0.0,0.0,0.0,0.0,0.0,0.0,0.0,0.0,0.0,0.0,0.0,0.0,0.0,0.0,0.0,-2.4628,-2.4357,-2.4218,0.0,0.0,0.0,0.0,0.0,0.0,-2.0189,-1.9583,0.0,0.0,0.0,0.0,0.0,0.0,0.0,0.0,0.0,0.0,0.0,0.0,0.0,0.0,0.0,0.0,0.0,0.0,0.0,0.0,0.0,0.0,0.0,0.0,0.0,0.0,0.0,0.0,0.0,0.0,0.0,0.0,0.0,0.0,0.0,0.0,0.0,0.0,0.0,0.0,0.0,0.0,0.0,0.0,0.0,0.0,0.0,0.0,0.0,0.0,0.0,0.0,0.0,0.0,0.0,-3.4666,-3.467,-3.4732,-3.4868,-3.4888,-3.4945,-3.5057,-3.5124,-3.5207,0.0,0.0,0.0,0.0,0.0,0.0,0.0,0.0,0.0,0.0,0.0,0.0,0.0,0.0,0.0,0.0,0.0,0.0,0.0,0.0,0.0,0.0,0.0,0.0,0.0,0.0,0.0,0.0,0.0,0.0,0.0,0.0,0.0,0.0,0.0,0.0,0.0,0.0,0.0,0.0,0.0,-2.5001,-2.5007,-2.3885,0.0,0.0,0.0,0.0,-2.169,-2.1075,0.0,0.0,0.0,0.0,0.0,0.0,0.0,0.0,0.0,0.0,0.0,0.0,0.0,0.0,0.0,0.0,0.0,0.0,0.0,0.0,0.0,0.0,0.0,0.0,0.0,0.0,0.0,0.0,0.0,0.0,0.0,0.0,0.0,0.0,0.0,0.0,0.0,0.0,0.0,0.0,0.0,0.0,0.0,0.0,0.0,0.0,0.0,0.0,0.0,0.0,0.0,0.0,0.0,0.0,0.0,0.0,-3.4602,-3.4604,-3.4668,-3.4809,-3.4811,-3.4851,-3.4927,-3.5054,-3.5174,0.0,0.0,0.0,0.0,0.0,0.0,0.0,0.0,0.0,0.0,0.0,0.0,0.0,0.0,0.0,0.0,0.0,0.0,0.0,0.0,0.0,0.0,0.0,0.0,0.0,0.0,0.0,0.0,0.0,0.0,0.0,0.0,0.0,0.0,0.0,0.0,0.0,0.0,0.0,0.0,0.0,-2.5541,-2.5224,-2.48,-2.4347,0.0,0.0,-2.338,-2.2153,-2.13,0.0,0.0,0.0,0.0,0.0,0.0,0.0,0.0,0.0,0.0,0.0,0.0,0.0,0.0,0.0,0.0,0.0,0.0,0.0,0.0,0.0,0.0,0.0,0.0,0.0,0.0,0.0,0.0,0.0,0.0,0.0,0.0,0.0,0.0,0.0,0.0,0.0,0.0,0.0,0.0,0.0,0.0,0.0,0.0,0.0,0.0,0.0,0.0,0.0,0.0,0.0,0.0,0.0,0.0,0.0,-3.4409,-3.4495,-3.4495,-3.452,-3.4623,-3.4668,-3.473,-3.4868,-3.4926,-3.5035,0.0,0.0,0.0,0.0,0.0,0.0,0.0,0.0,0.0,0.0,0.0,0.0,0.0,0.0,0.0,0.0,0.0,0.0,0.0,0.0,0.0,0.0,0.0,0.0,0.0,0.0,0.0,0.0,0.0,0.0,0.0,0.0,0.0,0.0,0.0,0.0,0.0,0.0,0.0,0.0,0.0,0.0,-2.6549,-2.632,0.0,0.0,0.0,-2.4215,-2.3171,0.0,0.0,0.0,0.0,0.0,0.0,0.0,0.0,0.0,0.0,0.0,0.0,0.0,0.0,0.0,0.0,0.0,0.0,0.0,0.0,0.0,0.0,0.0,0.0,0.0,0.0,0.0,0.0,0.0,0.0,0.0,0.0,0.0,0.0,0.0,0.0,0.0,0.0,0.0,0.0,0.0,0.0,0.0,0.0,0.0,0.0,0.0,0.0,0.0,0.0,0.0,0.0,0.0,0.0,0.0,0.0,0.0,-3.4316,-3.4316,-3.434,-3.4427,-3.4495,-3.4561,-3.4687,-3.481,0.0,0.0,0.0,0.0,0.0,0.0,0.0,0.0,0.0,0.0,0.0,0.0,0.0,0.0,0.0,0.0,0.0,0.0,0.0,0.0,0.0,0.0,0.0,0.0,0.0,0.0,0.0,-2.904,0.0,0.0,0.0,0.0,0.0,0.0,0.0,0.0,0.0,0.0,0.0,0.0,0.0,0.0,-2.7573,-2.7715,-2.7503,-2.7041,0.0,0.0,-2.4924,-2.415,-2.3471,-2.2836,0.0,0.0,0.0,0.0,0.0,0.0,0.0,0.0,0.0,0.0,0.0,0.0,0.0,0.0,0.0,0.0,0.0,0.0,0.0,0.0,0.0,0.0,0.0,0.0,0.0,0.0,0.0,0.0,0.0,0.0,0.0,0.0,0.0,0.0,0.0,0.0,0.0,0.0,0.0,0.0,0.0,0.0,0.0,0.0,0.0,0.0,0.0,0.0,0.0,0.0,0.0,0.0,0.0,0.0,-3.4049,-3.4124,-3.4124,-3.4148,-3.4221,-3.4293,-3.4358,-3.4409,-3.4604,-3.4771,0.0,0.0,0.0,0.0,0.0,0.0,0.0,0.0,0.0,0.0,0.0,0.0,0.0,0.0,0.0,0.0,0.0,0.0,0.0,0.0,0.0,0.0,0.0,0.0,0.0,0.0,0.0,0.0,0.0,0.0,0.0,0.0,0.0,0.0,0.0,0.0,0.0,0.0,0.0,0.0,0.0,-2.8286,-2.8186,-2.7851,-2.7373,0.0,-2.6204,-2.5564,-2.4835,-2.406,-2.328,-2.2494,0.0,0.0,0.0,0.0,0.0,0.0,0.0,0.0,0.0,0.0,0.0,0.0,0.0,0.0,0.0,0.0,0.0,0.0,0.0,0.0,0.0,0.0,0.0,0.0,0.0,0.0,0.0,0.0,0.0,0.0,0.0,0.0,0.0,0.0,0.0,0.0,0.0,0.0,0.0,0.0,0.0,0.0,0.0,0.0,0.0,0.0,0.0,0.0,0.0,0.0,0.0,0.0,0.0,-3.3913,-3.3939,-3.3921,-3.3921,-3.3965,-3.4074,-3.4105,-3.413,-3.4404,-3.4583,0.0,0.0,0.0,0.0,0.0,0.0,0.0,0.0,0.0,0.0,0.0,0.0,0.0,0.0,0.0,0.0,0.0,0.0,0.0,0.0,0.0,0.0,0.0,0.0,0.0,0.0,0.0,0.0,-3.0707,-3.0595,-3.0649,0.0,0.0,0.0,0.0,0.0,0.0,0.0,0.0,0.0,0.0,-2.8653,-2.851,-2.8296,0.0,0.0,-2.6803,-2.6165,-2.5314,-2.4624,-2.3872,-2.2992,-2.2187,0.0,0.0,0.0,0.0,0.0,0.0,0.0,0.0,0.0,0.0,0.0,0.0,0.0,0.0,0.0,0.0,0.0,0.0,0.0,0.0,0.0,0.0,0.0,0.0,0.0,0.0,0.0,0.0,0.0,0.0,0.0,0.0,0.0,0.0,0.0,0.0,0.0,0.0,0.0,0.0,0.0,0.0,0.0,0.0,0.0,0.0,0.0,0.0,0.0,0.0,0.0,0.0,-3.4365,-3.4365,-3.4383,-3.4383,-3.443,-3.4523,-3.4604,-3.4613,-3.4649,-3.4689,0.0,0.0,0.0,0.0,0.0,0.0,0.0,0.0,0.0,0.0,0.0,0.0,0.0,0.0,0.0,0.0,0.0,0.0,0.0,0.0,0.0,0.0,0.0,0.0,0.0,0.0,0.0,0.0,-3.1512,-3.1393,-3.1449,0.0,0.0,0.0,0.0,0.0,0.0,0.0,0.0,0.0,0.0,-2.9059,-2.8967,-2.87,-2.8345,-2.786,-2.7357,-2.6736,-2.5797,-2.5175,-2.4452,-2.3543,0.0,0.0,0.0,0.0,0.0,0.0,0.0,0.0,0.0,0.0,0.0,0.0,0.0,0.0,0.0,0.0,0.0,0.0,0.0,0.0,0.0,0.0,0.0,0.0,0.0,0.0,0.0,-3.0309,0.0,0.0,-2.9563,0.0,0.0,0.0,0.0,0.0,0.0,0.0,0.0,0.0,0.0,0.0,0.0,0.0,0.0,0.0,0.0,0.0,0.0,0.0,0.0,0.0,0.0,-3.5607,-3.5643,-3.5589,-3.5688,-3.5805,-3.5915,-3.5951,-3.5974,-3.5487,-3.5251,-3.5379,0.0,0.0,0.0,0.0,0.0,0.0,0.0,0.0,0.0,0.0,0.0,0.0,0.0,0.0,0.0,0.0,0.0,0.0,0.0,0.0,0.0,0.0,0.0,0.0,0.0,0.0,-3.2648,-3.2214,-3.1787,0.0,0.0,0.0,0.0,0.0,0.0,0.0,0.0,0.0,0.0,-2.9589,-2.9486,-2.9486,-2.9122,-2.8731,-2.8414,-2.794,-2.7335,-2.6486,-2.5811,-2.5077,0.0,0.0,0.0,0.0,0.0,0.0,0.0,0.0,0.0,0.0,0.0,0.0,0.0,0.0,0.0,0.0,0.0,0.0,0.0,0.0,0.0,0.0,0.0,0.0,0.0,0.0,0.0,-3.163,-3.1404,0.0,0.0,0.0,0.0,0.0,0.0,0.0,0.0,0.0,0.0,0.0,-3.105,-3.1769,0.0,0.0,0.0,0.0,0.0,0.0,0.0,0.0,0.0,0.0,0.0,0.0,-3.5357,-3.5375,-3.5357,-3.5424,-3.5522,-3.5638,-3.5702,-3.5779,-3.5739,-3.5864,-3.617,0.0,0.0,0.0,0.0,0.0,0.0,0.0,0.0,0.0,0.0,0.0,0.0,0.0,0.0,0.0,0.0,0.0,0.0,0.0,0.0,0.0,0.0,0.0,0.0,0.0,-3.319,0.0,0.0,0.0,0.0,0.0,0.0,0.0,0.0,0.0,0.0,0.0,-3.0258,-3.0258,-3.0511,-3.0689,-3.0705,-3.0461,-3.0227,0.0,0.0,0.0,0.0,0.0,0.0,0.0,0.0,0.0,0.0,0.0,0.0,0.0,0.0,-2.0228,-1.8484,-1.7833,-1.7491,-1.7097,0.0,0.0,0.0,0.0,0.0,0.0,0.0,0.0,0.0,0.0,0.0,0.0,0.0,0.0,-3.1963,-3.1726,-3.1372,0.0,0.0,0.0,0.0,0.0,0.0,0.0,0.0,-3.0977,-3.116,-3.1225,-3.1967,-3.2383,0.0,-3.308,-3.3695,0.0,0.0,0.0,0.0,0.0,0.0,0.0,0.0,-3.5847,-3.5847,-3.5847,-3.5901,-3.5989,-3.6095,-3.6181,-3.635,-3.634,-3.6387,-3.6463,-3.6733,-3.6738,0.0,0.0,0.0,0.0,0.0,0.0,0.0,0.0,0.0,0.0,0.0,0.0,0.0,0.0,0.0,0.0,0.0,0.0,0.0,0.0,0.0,0.0,0.0,-3.3345,0.0,0.0,0.0,0.0,0.0,0.0,0.0,0.0,0.0,-3.1282,-3.1358,-3.1525,-3.1508,-3.1745,-3.1913,-3.1924,0.0,0.0,0.0,0.0,0.0,0.0,0.0,-2.851,-2.7647,-2.6982,-2.6241,-2.5382,-2.4499,-2.3725,-2.3337,0.0,0.0,-1.9965,-1.9315,-1.8903,-1.8428,-1.8431,-1.8481,-1.8203,-1.821,-1.8249,0.0,0.0,0.0,0.0,0.0,0.0,0.0,0.0,-3.195,-3.1662,0.0,-3.0986,0.0,0.0,0.0,0.0,-3.0069,-3.0175,0.0,0.0,-3.0577,-3.0736,-3.0865,-3.1899,-3.2469,-3.2652,-3.3595,-3.4267,-3.4592,-3.4037,0.0,0.0,0.0,0.0,0.0,0.0,-3.6987,-3.6952,-3.6935,-3.7087,-3.7223,-3.7223,-3.7374,-3.7614,-3.7241,-3.6789,-3.6318,-3.6546,-3.6782,-3.6977,-3.733,0.0,0.0,0.0,0.0,0.0,0.0,0.0,0.0,0.0,0.0,0.0,0.0,0.0,0.0,0.0,0.0,0.0,0.0,0.0,0.0,-3.3762,0.0,0.0,0.0,0.0,0.0,0.0,0.0,0.0,0.0,0.0,-3.2644,-3.2998,-3.3397,-3.338,0.0,0.0,0.0,0.0,-3.2984,-3.2256,-3.1998,-3.1586,-3.0489,-2.9848,-2.9282,-2.8512,0.0,0.0,-2.59,-2.5154,-2.4611,-2.4259,-2.3833,-2.3036,-2.2032,-2.1409,-2.0885,-2.0308,-2.0042,-1.9867,-1.9505,-1.9273,-1.9145,-3.474,0.0,0.0,0.0,0.0,-3.397,-3.3681,-3.3287,-3.295,-3.2645,-3.2369,-3.2066,0.0,0.0,0.0,0.0,0.0,0.0,-3.1095,-3.1095,-3.146,-3.1625,-3.1625,-3.223,-3.2629,-3.2788,-3.324,-3.361,-3.3984,-3.3974,-3.4359,-3.5137,0.0,0.0,0.0,0.0,-3.6409,-3.6527,-3.6609,-3.669,-3.6794,-3.6891,-3.7087,-3.7392,-3.7488,-3.7533,-3.7562,-3.7857,-3.7802,-3.7333,-3.7793,0.0,0.0,0.0,0.0,0.0,0.0,0.0,0.0,0.0,0.0,0.0,0.0,0.0,0.0,0.0,0.0,0.0,0.0,0.0,-3.4245,-3.4042,-3.4099,0.0,0.0,0.0,0.0,0.0,0.0,0.0,0.0,0.0,-3.5089,-3.4393,-3.3968,0.0,0.0,-3.4372,-3.4397,-3.4566,-3.4559,-3.4116,-3.3746,0.0,-3.2536,-3.1921,-3.1248,-3.0511,-2.9423,-2.8457,-2.7648,-2.7066,-2.6539,-2.6206,-2.5623,-2.5018,-2.4541,-2.3052,-2.1801,-2.1231,-2.1111,-2.1053,-2.0581,-2.0507,-2.05,-3.4839,-3.5263,-3.5063,-3.4804,-3.4448,-3.4151,-3.3848,-3.345,-3.3118,-3.2834,-3.2437,-3.2176,-3.1894,-3.1567,-3.1394,0.0,0.0,0.0,-3.1146,-3.1204,-3.1509,-3.164,-3.1754,-3.2007,-3.2272,-3.2492,-3.2672,-3.2926,-3.3351,-3.3507,-3.4002,-3.4816,0.0,0.0,-3.5783,-3.581,-3.5898,-3.6002,-3.6165,-3.6276,-3.6385,-3.6609,-3.6794,-3.7009,-3.7337,-3.7667,-3.7915,-3.8234,-3.8261,-3.7903,-3.838,-3.8597,0.0,0.0,0.0,0.0,0.0,0.0,0.0,0.0,0.0,0.0,0.0,-3.5538,-3.543,0.0,0.0,0.0,-3.523,-3.5352,-3.5477,-3.5357,0.0,0.0,0.0,0.0,0.0,0.0,0.0,-3.8147,-3.7639,-3.7075,-3.6898,-3.6165,-3.5586,-3.5318,-3.5457,-3.5562,-3.5597,0.0,-3.5503,-3.5195,-3.4723,-3.425,-3.3694,-3.3118,-3.2453,-3.1465,-3.045,-2.9546,-2.8944,-2.8365,-2.7829,-2.7377,-2.6714,-2.6164,-2.5955,-2.4563,-2.3177,-2.2506,-2.2357,-2.2187,-2.1691,-2.1546,-2.1349,-3.4533,-3.5082,-3.4706,-3.4429,-3.4161,-3.3906,-3.3572,-3.3199,-3.2827,-3.244,-3.2091,-3.176,-3.1396,-3.1072,-3.0773,0.0,-3.0652,-3.0667,-3.0742,-3.0908,-3.1013,-3.1191,-3.1382,-3.1543,-3.1775,-3.2091,-3.2091,-3.2344,-3.2866,-3.2936,-3.319,-3.3802,-3.4464,-3.4965,-3.5261,-3.5304,-3.5396,-3.5532,-3.5684,-3.5861,-3.5975,-3.6343,-3.6533,-3.6591,-3.7009,-3.7334,-3.7522,-3.7862,-3.8201,-3.8554,-3.8942,-3.8943,-3.8512,0.0,0.0,0.0,0.0,0.0,0.0,0.0,0.0,0.0,0.0,0.0,0.0,0.0,0.0,0.0,-3.5928,0.0,-3.7268,-3.7222,0.0,0.0,0.0,-3.6652,-3.6311,-3.7037,-3.79,-3.8821,0.0,0.0,-3.8168,-3.8036,-3.7757,-3.7243,-3.6895,-3.665,-3.6643,-3.6259,-3.5958,-3.5705,-3.5241,-3.482,-3.4397,-3.3866,-3.3185,-3.211,-3.1146,-3.0574,-2.9939,-2.9306,-2.8671,-2.8199,-2.7385,-2.6878,-2.6634,-2.6033,-2.5218,-2.4303,-2.3711,-2.3202,-2.2745,-2.2294,-2.1977,-3.5249,-3.5393,-3.5102,-3.5022,-3.5154,-3.4731,-3.4338,-3.4052,-3.3719,-3.344,-3.3141,-3.2733,-3.224,-3.1653,-3.1525,-3.1332,-3.1189,-3.1397,-3.1461,-3.1511,-3.1781,-3.1907,-3.1971,-3.2145,-3.2379,-3.2687,-3.2687,-3.3051,-3.3661,-3.3645,-3.3937,-3.4507,-3.4699,-3.4771,-3.4692,-3.4691,-3.4818,-3.5071,-3.5274,-3.5549,-3.5861,-3.6062,-3.6191,-3.6293,-3.6609,-3.6856,-3.7073,-3.7468,-3.7898,-3.8307,-3.8554,-3.882,-3.8992,-3.9331,0.0,0.0,0.0,0.0,0.0,0.0,0.0,0.0,0.0,-3.7793,-3.7665,0.0,-3.7514,0.0,-3.7473,-3.7496,-3.7528,-3.7451,0.0,0.0,-3.7981,-3.8103,-3.855,-3.8692,-3.8915,-3.9246,-3.8999,-3.8713,-3.8652,-3.8415,-3.8219,-3.8101,-3.7559,-3.7143,-3.7122,-3.6771,-3.6385,-3.6148,-3.579,-3.5459,-3.5498,-3.5223,-3.4643,-3.3921,-3.3066,-3.235,-3.1674,-3.1059,-3.04,-2.9862,-2.9329,-2.876,-2.8216,-2.7598,-2.6944,-2.6232,-2.5024,-2.3751,-2.3086,-2.2994,-2.2868,-3.5392,-3.5618,-3.5346,-3.5533,-3.5884,-3.4969,-3.4414,-3.4074,-3.3849,-3.3484,-3.3004,-3.2469,-3.2019,-3.1641,-3.1443,-3.131,-3.1163,-3.131,-3.1377,-3.1443,-3.1641,-3.1772,-3.1838,-3.2033,-3.2213,-3.2454,-3.2518,-3.2912,-3.3393,-3.3469,-3.3759,-3.437,-3.4429,-3.4488,-3.4638,-3.492,-3.5177,-3.5463,-3.5712,-3.6071,-3.6417,-3.6557,-3.6695,-3.6877,-3.6861,-3.6953,-3.7184,-3.7267,-3.7485,-3.7916,-3.8219,-3.8566,-3.8952,-3.9313,-3.9618,0.0,0.0,0.0,0.0,0.0,0.0,0.0,0.0,0.0,0.0,0.0,-3.8432,-3.8769,-3.8659,-3.8661,-3.8865,-3.8838,-3.8918,-3.9176,-3.9148,-3.9203,-3.9502,-3.9452,-3.9451,-3.9533,-3.9268,-3.9222,-3.9536,-3.9338,-3.9313,-3.9625,-3.922,-3.8653,-3.8144,-3.7941,-3.7778,-3.7272,-3.705,-3.6751,-3.6472,-3.5999,-3.5443,-3.4778,-3.4059,-3.3332,-3.2645,-3.2019,-3.1377,-3.0759,-3.0075,-2.9517,-2.8938,-2.829,-2.7644,-2.7039,-2.6071,-2.4975,-2.4254,-2.3853,-2.357,-3.5385,-3.5929,-3.5629,-3.5799,-3.6275,-3.5078,-3.4333,-3.3908,-3.3677,-3.3254,-3.258,-3.1895,-3.1615,-3.1481,-3.1211,-3.1007,-3.0993,-3.1007,-3.1061,-3.1197,-3.1197,-3.1332,-3.1534,-3.1668,-3.1881,-3.2014,-3.2211,-3.2522,-3.3006,-3.3006,-3.3336,-3.3985,-3.4046,-3.4333,-3.4969,-3.5455,-3.5895,-3.6131,-3.6397,-3.6746,-3.7103,-3.7236,-3.7451,-3.7708,-3.7352,-3.7285,-3.762,-3.7283,-3.7334,-3.7788,-3.8043,-3.838,-3.8775,-3.8997,-3.9313,0.0,-3.9925,0.0,0.0,0.0,0.0,0.0,0.0,0.0,0.0,-3.8766,-3.8994,-3.9646,-3.9607,-3.9837,-4.0457,-4.0457,-4.0341,-4.0158,-4.0138,-4.0017,-3.9804,-3.9834,-3.9939,-4.0026,-3.9827,-3.9967,-4.0651,-4.0494,-4.0596,-4.1083,-4.1056,-4.054,-3.9608,-3.9486,-3.9234,-3.8507,-3.8529,-3.8138,-3.7319,-3.6714,-3.6165,-3.5477,-3.4842,-3.4091,-3.3472,-3.2774,-3.2122,-3.1306,-3.0649,-2.998,-2.9386,-2.8616,-2.7953,-2.7553,-2.6912,-2.6217,-2.5449,-2.4769,-2.4201,-3.6029,-3.6137,-3.5965,-3.5804,-3.5668,-3.5413,-3.5244,-3.5115,-3.4515,-3.385,-3.3168,-3.303,-3.2611,-3.2031,-3.1973,-3.1757,-3.1481,-3.1626,-3.1771,-3.1757,-3.1888,-3.2003,-3.2217,-3.2217,-3.2429,-3.2779,-3.2849,-3.3125,-3.3618,-3.3618,-3.4022,-3.4682,-3.4697,-3.507,-3.5704,0.0,0.0,0.0,-3.6115,-3.6397,-3.6711,-3.6832,-3.7036,-3.7286,-3.7317,0.0,-3.7916,-3.8126,-3.8417,-3.8878,-3.8673,0.0,0.0,0.0,0.0,0.0,0.0,0.0,0.0,0.0,0.0,0.0,-4.0579,-4.0486,-4.0602,-4.0591,-4.0632,-4.0692,-4.0664,-4.0632,-4.0649,-4.0602,-4.0504,-4.0341,-4.0307,-4.0177,-4.0076,-4.0602,-4.1222,-4.1813,-4.1736,-4.1651,-4.1691,-4.1567,-4.1501,-4.1616,-4.187,-4.1904,-4.1537,-4.0653,-3.9768,-3.907,-3.9041,-3.884,-3.8254,-3.822,-3.7903,-3.7428,-3.6711,-3.5876,-3.5015,-3.4361,-3.3604,-3.2737,-3.2075,-3.1401,-3.0695,-2.9947,-2.9098,-2.8553,-2.8028,-2.717,-2.5743,-2.5147,-2.4767,-3.6085,-3.61,-3.5846,-3.5683,0.0,-3.5096,-3.4964,-3.4949,-3.4549,-3.3922,-3.3157,-3.2888,-3.2472,-3.2036,-3.1963,-3.1817,-3.1622,-3.1683,-3.1757,-3.1757,-3.1803,-3.195,-3.2009,-3.2082,-3.23,-3.2431,-3.2646,-3.2917,-3.3269,-3.3423,-3.3839,-3.4385,-3.4452,-3.4787,-3.5459,-3.5846,-3.6107,-3.6285,-3.6644,-3.6926,-3.7219,-3.7492,-3.7707,-3.7956,-3.7833,0.0,0.0,0.0,0.0,0.0,0.0,0.0,0.0,-3.9599,0.0,-3.9571,-3.985,-4.0013,-3.9935,-4.0101,-4.0296,-4.054,-4.0746,-4.0926,-4.1091,-4.1113,-4.1072,-4.1052,-4.0993,-4.0904,-4.08,-4.073,-4.0803,-4.1093,-4.1075,-4.0839,-4.0425,-4.1302,-4.25,-4.3507,-4.2932,-4.2413,-4.2793,-4.2664,-4.2716,-4.2959,-4.3113,-4.3102,-4.2834,-4.2087,-4.122,-4.0542,-4.0149,-3.9843,-3.9412,-3.9066,-3.8788,-3.81,-3.7342,-3.6538,-3.58,-3.5118,-3.4317,-3.3465,-3.269,-3.1982,-3.1123,-3.0254,-2.9561,-2.887,-2.8179,-2.7418,-2.6314,-2.5839,-2.5348,-3.5846,-3.5782,-3.5474,-3.5374,-3.5243,-3.4698,-3.4346,-3.421,-3.421,0.0,0.0,-3.2372,-3.2036,-3.1743,-3.1609,-3.1447,-3.1373,-3.1373,-3.1373,-3.136,-3.1386,-3.1373,-3.1447,-3.1669,-3.173,-3.1817,-3.2155,-3.2345,-3.2561,-3.2945,-3.3297,-3.3632,-3.3839,-3.4249,-3.4802,-3.5459,-3.6085,-3.6662,-3.7087,-3.7476,-3.777,-3.8091,-3.8391,-3.8623,-3.8339,-3.8275,-3.8519,-3.8353,-3.8418,-3.8757,-3.9129,-3.9487,-3.9953,-4.0253,-4.0254,-4.0052,-4.0318,-4.0374,-4.0052,-4.0223,-4.046,-4.0709,-4.1026,-4.116,-4.109,-4.1084,-4.1094,-4.1103,-4.1183,-4.124,-4.1163,-4.1247,-4.1497,-4.2099,-4.2097,-4.1742,-4.1163,-4.2144,-4.3617,-4.4801,-4.3888,-4.3141,-4.3796,-4.3712,-4.3753,-4.428,-4.4095,-4.3923,-4.3664,-4.3105,-4.2465,-4.1842,-4.1173,-4.0723,-4.0285,-3.9697,-3.9044,-3.8327,-3.7578,-3.686,-3.6196,-3.5444,-3.4639,-3.3673,-3.2903,-3.2055,-3.1198,-3.0266,-2.9471,-2.8882,-2.8075,-2.7348,-2.688,-2.6302,-2.5611,-3.5213,-3.5052,-3.5001,-3.4817,-3.4549,-3.4414,-3.4074,-3.3452,-3.3452,-3.3016,-3.2314,-3.2255,-3.1803,-3.1136,-3.1061,-3.0911,-3.0583,-3.0583,-3.0596,-3.0596,-3.0596,-3.0685,-3.0849,-3.1061,-3.1198,-3.1434,-3.1582,-3.1817,-3.2023,-3.2255,-3.2516,-3.2846,-3.3227,-3.3799,-3.4467,-3.4868,-3.5264,-3.5668,-3.6554,-3.7103,-3.7314,-3.7626,-3.7844,-3.8059,-3.8206,-3.8509,-3.875,-3.9063,-3.936,-3.9781,-3.9701,-3.9815,-4.0295,-4.0148,-4.0109,-4.0399,-4.0741,-4.1052,-4.1325,-4.156,-4.1935,-4.2393,-4.2656,-4.226,-4.1045,-4.0979,-4.1035,-4.113,-4.1787,-4.2173,-4.2156,-4.268,-4.3024,-4.3097,-4.3046,-4.3076,-4.3275,-4.371,-4.4327,-4.5167,-4.5063,-4.4703,-4.4635,-4.4594,-4.4478,-4.4458,-4.4277,-4.3936,-4.36,-4.3177,-4.2656,-4.1995,-4.149,-4.099,-4.0531,-4.002,-3.9398,-3.8788,-3.8075,-3.7254,-3.6445,-3.5688,-3.4824,-3.3756,-3.2974,-3.2128,-3.1198,-3.0266,-2.9484,-2.8724,-2.8007,-2.7267,-2.6528,-2.5863,-2.5369,-3.4949,-3.475,-3.4683,-3.4467,-3.4196,-3.3839,-3.3283,-3.2674,-3.2444,-3.2228,-3.2036,-3.1656,-3.1286,-3.0849,-3.0761,-3.0596,-3.0368,-3.0368,-3.0368,-3.0368,-3.0368,-3.0444,-3.0533,-3.0596,-3.0748,-3.0823,-3.0999,-3.1211,-3.1434,-3.1716,-3.1996,-3.23,-3.2717,-3.3227,-3.3799,-3.4264,-3.4668,-3.5111,-3.5958,-3.6569,-3.6831,-3.7118,-3.7358,-3.7637,-3.7943,-3.8246,-3.86,-3.8898,-3.9259,-3.9662,-3.9815,-4.0113,-4.0561,-4.0735,-4.0783,-4.0789,-4.1162,-4.1363,-4.1292,-4.1726,-4.2165,-4.2533,-4.2757,-4.2678,-4.2143,-4.2252,-4.2393,-4.2454,-4.2871,-4.3073,-4.3056,-4.3377,-4.3711,-4.4072,-4.402,-4.4225,-4.4793,-4.493,-4.5073,-4.5304,-4.5298,-4.5192,-4.5033,-4.4919,-4.4796,-4.4632,-4.4317,-4.3986,-4.3682,-4.3396,-4.3005,-4.2369,-4.1803,-4.1303,-4.0896,-4.0286,-3.9679,-3.9098,-3.8343,-3.7535,-3.6693,-3.5943,-3.5088,-3.4085,-3.3185,-3.2259,-3.1334,-3.0317,-2.9484,-2.8657,-2.7846,-2.7103,-2.6351,-2.5348,-2.4519,-3.5107,-3.4918,-3.4712,-3.4491,-3.4114,-3.3324,-3.2695,-3.2199,-3.171,-3.1495,-3.1508,-3.1136,-3.0773,-3.047,-3.0292,-3.0216,-3.0139,-3.0139,-3.0139,-3.0139,-3.0126,-3.0139,-3.0126,-3.0126,-3.0203,-3.0292,-3.047,-3.0685,-3.0911,-3.1198,-3.1569,-3.1877,-3.2372,-3.2789,-3.3143,-3.3646,-3.4128,-3.4549,-3.5264,-3.5846,-3.6289,-3.6631,-3.6906,-3.7178,-3.7535,-3.7886,-3.8148,-3.8472,-3.8843,-3.9222,-3.961,-4.012,-4.0594,-4.1163,-4.135,-4.1209,-4.1579,-4.176,-4.1611,-4.2103,-4.2562,-4.2862,-4.308,-4.3349,-4.3605,-4.3846,-4.3845,-4.366,-4.3771,-4.3984,-4.4013,-4.4168,-4.4442,-4.5023,-4.5004,-4.5151,-4.5689,-4.5703,-4.5586,-4.5438,-4.5361,-4.5256,-4.5106,-4.4991,-4.4846,-4.464,-4.4345,-4.4048,-4.3814,-4.366,-4.336,-4.2802,-4.2139,-4.1595,-4.122,-4.0611,-3.9969,-3.9418,-3.859,-3.7754,-3.6982,-3.6243,-3.535,-3.4341,-3.3325,-3.2331,-3.1368,-3.038,-2.9484,-2.8657,-2.7846,-2.694,-2.5946,-2.488,-2.3844,-3.5913,-3.5582,-3.5293,-3.4983,-3.4353,-3.3383,-3.2793,-3.2288,-3.1448,-3.0823,-3.0635,-3.0685,-3.0394,-2.9946,-2.9856,-2.9611,-2.9287,-2.9209,-2.9197,-2.9209,-2.9209,-2.9209,-2.9287,-2.9431,-2.9599,-2.9869,-3.0088,-3.0228,-3.0444,-3.0685,-3.1075,-3.1643,-3.2023,-3.2345,-3.2635,-3.3129,-3.3563,-3.4085,-3.4385,-3.492,-3.5752,-3.6289,-3.6538,-3.6616,-3.7013,-3.7358,-3.7535,-3.7943,-3.8343,-3.8678,-3.9152,-3.961,-4.0053,-4.0594,-4.1065,-4.1508,-4.1943,-4.2454,-4.3171,-4.3624,-4.3919,-4.438,-4.4549,-4.4808,-4.5074,-4.5337,-4.4904,-4.4059,-4.4339,-4.4792,-4.4922,-4.5456,-4.5806,-4.5825,-4.589,-4.5966,-4.5867,-4.5776,-4.5651,-4.5513,-4.5419,-4.5337,-4.5148,-4.5014,-4.4846,-4.4578,-4.4401,-4.4147,-4.3915,-4.3796,-4.3594,-4.3048,-4.2432,-4.1805,-4.13,-4.0789,-4.0254,-3.9713,-3.8882,-3.8042,-3.7282,-3.6368,-3.5415,-3.4543,-3.3451,-3.2403,-3.1442,-3.0393,-2.9471,-2.8669,-2.78,-2.6809,-2.5412,-2.4512,-2.393,-3.5593,-3.5314,-3.5004,-3.4465,-3.3725,-3.3188,-3.2696,-3.2254,-3.1254,-3.0687,-3.0416,-2.997,-2.9677,-2.9521,-2.9456,-2.9221,-2.8973,-2.8882,-2.8895,-2.8749,-2.8749,-2.8828,-2.8882,-2.904,-2.9197,-2.9378,-2.9456,-2.9599,-2.9819,-3.0152,-3.0622,-3.1061,-3.136,-3.1703,-3.2101,-3.2574,-3.3086,-3.3577,-3.4117,-3.4593,-3.4935,-3.5604,-3.6131,-3.6492,-3.6662,-3.6968,-3.7238,-3.7535,-3.7886,-3.8286,-3.8772,-3.9276,-3.9799,-4.0336,-4.0836,-4.1346,-4.2026,-4.2691,-4.3286,-4.3631,-4.3986,-4.4345,-4.4648,-4.4924,-4.5201,-4.5437,-4.5326,-4.5049,-4.5309,-4.5636,-4.5712,-4.6015,-4.6189,-4.6162,-4.6135,-4.6066,-4.5925,-4.5819,-4.57,-4.5566,-4.5457,-4.5341,-4.517,-4.4962,-4.4745,-4.4551,-4.443,-4.4177,-4.3929,-4.3845,-4.3626,-4.316,-4.2667,-4.2163,-4.1596,-4.1036,-4.05,-3.9867,-3.9061,-3.827,-3.746,-3.6554,-3.5529,-3.4677,-3.352,-3.2475,-3.1589,-3.0456,-2.9471,-2.865,-2.7564,-2.6546,-2.5616,-2.4846,-2.4124,-3.5493,-3.5266,-3.4884,-3.4173,-3.337,-3.3053,-3.2668,-3.2107,-3.1103,-3.0468,-3.0134,-2.9444,-2.8937,-2.8882,-2.8882,-2.8816,-2.8566,-2.8578,-2.8498,-2.8351,-2.8363,-2.8431,-2.8578,-2.8566,-2.8657,-2.8803,-2.8803,-2.8961,-2.9263,-2.9586,-3.0011,-3.0394,-3.0685,-3.111,-3.1556,-3.2082,-3.2602,-3.3157,-3.3801,-3.42,-3.4428,-3.4898,-3.5539,-3.6178,-3.6382,-3.66,-3.7013,-3.7241,-3.7524,-3.7886,-3.8399,-3.8931,-3.9451,-3.9986,-4.0549,-4.1209,-4.1941,-4.2591,-4.3013,-4.3356,-4.3693,-4.4072,-4.4393,-4.4732,-4.5026,-4.5302,-4.5545,-4.5722,-4.5938,-4.6045,-4.6186,-4.6205,-4.6228,-4.6214,-4.6177,-4.6074,-4.5975,-4.5887,-4.5776,-4.5654,-4.5513,-4.5341,-4.5151,-4.4895,-4.4685,-4.4551,-4.4401,-4.4195,-4.3947,-4.3826,-4.3644,-4.316,-4.2822,-4.2391,-4.1839,-4.122,-4.0628,-4.0003,-3.9276,-3.8399,-3.7594,-3.6662,-3.5657,-3.481,-3.3575,-3.2489,-3.1643,-3.057,-2.9584,-2.8619,-2.7668,-2.6551,-2.5778,-2.5005,-2.4198,-3.616,-3.5842,-3.5305,-3.4406,-3.3597,-3.3142,-3.251,-3.19,-3.1021,-3.0187,-2.9446,-2.901,-2.8398,-2.7684,-2.8259,-2.8271,-2.7962,-2.7962,-2.7881,-2.7893,-2.7881,-2.7893,-2.7962,-2.7962,-2.803,-2.8247,-2.8247,-2.8407,-2.8791,-2.9052,-2.9378,-2.9856,-3.0216,-3.0596,-3.1048,-3.1569,-3.2141,-3.2717,-3.3171,-3.366,-3.4278,-3.4414,-3.4831,-3.5489,-3.594,-3.6304,-3.6569,-3.6956,-3.7306,-3.7417,-3.8091,-3.8544,-3.886,-3.9468,-4.0204,-4.11,-4.1657,-4.2127,-4.2591,-4.3013,-4.3408,-4.3823,-4.4202,-4.4584,-4.4948,-4.5239,-4.5456,-4.57,-4.5835,-4.5998,-4.6177,-4.6241,-4.6287,-4.6278,-4.624,-4.6164,-4.6113,-4.5964,-4.5822,-4.5696,-4.5566,-4.5361,-4.5061,-4.4821,-4.464,-4.4524,-4.4401,-4.4195,-4.3966,-4.3848,-4.3593,-4.3196,-4.2804,-4.2432,-4.1959,-4.1373,-4.0836,-4.0171,-3.9398,-3.8583,-3.7738,-3.6829,-3.5897,-3.4876,-3.3589,-3.2503,-3.1683,-3.0817,-2.9866,-2.8914,-2.7903,-2.6936,-2.6084,-2.5125,-2.4298,-3.5127,-3.4538,-3.4301,-3.3725,-3.3018,-3.2732,-3.2302,-3.1908,-3.0979,-3.0109,-2.9355,-2.8774,-2.7998,-2.7126,-2.7371,-2.7383,-2.7313,-2.7219,-2.7219,-2.7067,-2.7056,-2.7138,-2.7231,-2.7231,-2.7371,-2.751,-2.7684,-2.8007,-2.8407,-2.8578,-2.8895,-2.9221,-2.9767,-3.0228,-3.0596,-3.1048,-3.1629,-3.2372,-3.2844,-3.3269,-3.373,-3.4142,-3.4549,-3.4817,-3.5424,-3.5925,-3.6289,-3.66,-3.6908,-3.7254,-3.7786,-3.8286,-3.8805,-3.9609,-4.037,-4.1024,-4.1498,-4.1874,-4.2315,-4.2788,-4.3267,-4.3627,-4.4023,-4.4439,-4.477,-4.5061,-4.5302,-4.5545,-4.5757,-4.5922,-4.6091,-4.6187,-4.6239,-4.6228,-4.6222,-4.6189,-4.6111,-4.6005,-4.5906,-4.5746,-4.5549,-4.5277,-4.5038,-4.4821,-4.4632,-4.4468,-4.4277,-4.4067,-4.3902,-4.3833,-4.3629,-4.3141,-4.2603,-4.2159,-4.1959,-4.148,-4.0931,-4.0204,-3.9435,-3.8623,-3.7812,-3.6707,-3.5721,-3.4861,-3.3619,-3.26,-3.1761,-3.0708,-2.987,-2.8999,-2.8043,-2.7157,-2.6329,-2.5359,-2.4397,-3.423,-3.3556,-3.3373,-3.2957,-3.2351,-3.2089,-3.1825,-3.1412,-3.0661,-2.9869,-2.9067,-2.8418,-2.7588,-2.6629,-2.6479,-2.6385,-2.6385,-2.655,-2.655,-2.6396,-2.6396,-2.6479,-2.6561,-2.6633,-2.6787,-2.6857,-2.7115,-2.7441,-2.7777,-2.8018,-2.8247,-2.8645,-2.9143,-2.9702,-3.0152,-3.0609,-3.1198,-3.1877,-3.2413,-3.2844,-3.3227,-3.373,-3.421,-3.4414,-3.4883,-3.5424,-3.5973,-3.6289,-3.6677,-3.6997,-3.7476,-3.8059,-3.8805,-3.9609,-4.032,-4.0789,-4.1209,-4.1657,-4.211,-4.2577,-4.305,-4.3442,-4.3823,-4.424,-4.4549,-4.4895,-4.5175,-4.5456,-4.5661,-4.5835,-4.5988,-4.6103,-4.6171,-4.6229,-4.6239,-4.6216,-4.6142,-4.6076,-4.5905,-4.5673,-4.5457,-4.5235,-4.501,-4.4789,-4.4578,-4.4354,-4.417,-4.3986,-4.3753,-4.3734,-4.356,-4.303,-4.2433,-4.1955,-4.1656,-4.1237,-4.0802,-4.007,-3.9329,-3.8606,-3.777,-3.66,-3.5634,-3.4747,-3.3818,-3.2773,-3.1759,-3.0655,-2.9785,-2.9026,-2.8265,-2.7408,-2.6455,-2.5431,-2.4356,-3.3471,-3.2982,-3.2612,-3.2089,-3.1649,-3.1128,-3.0758,-3.0566,-3.0114,-2.9273,-2.8347,-2.7886,-2.6984,-2.6037,-2.5706,-2.5454,-2.5369,-2.5779,-2.6041,-2.5895,-2.5906,-2.5906,-2.5979,-2.603,-2.6185,-2.6185,-2.6456,-2.6715,-2.6962,-2.7196,-2.7603,-2.8087,-2.8419,-2.8986,-2.9779,-3.0164,-3.0672,-3.1347,-3.1877,-3.2458,-3.2917,-3.3227,-3.366,-3.4278,-3.4414,-3.4831,-3.5424,-3.6115,-3.6492,-3.6708,-3.7118,-3.7812,-3.8678,-3.9345,-3.9935,-4.0468,-4.0931,-4.1391,-4.1831,-4.2292,-4.2747,-4.3142,-4.356,-4.3992,-4.4393,-4.4777,-4.5087,-4.5362,-4.5563,-4.5757,-4.5886,-4.6037,-4.6151,-4.627,-4.6289,-4.6245,-4.6195,-4.6135,-4.5908,-4.5542,-4.5343,-4.5173,-4.4943,-4.4719,-4.4505,-4.4229,-4.4048,-4.386,-4.3566,-4.3613,-4.3396,-4.2781,-4.2195,-4.1718,-4.1323,-4.0943,-4.0497,-4.0003,-3.9242,-3.8455,-3.7567,-3.6507,-3.5672,-3.4853,-3.3652,-3.2592,-3.1531,-3.0529,-2.9792,-2.9012,-2.8293,-2.7222,-2.6127,-2.502,-2.4016,-3.2525,-3.2101,-3.1572,-3.1205,-3.0859,-3.042,-3.0057,-2.984,-2.9497,-2.8665,-2.7613,-2.7304,-2.652,-2.5456,-2.5115,-2.4861,-2.454,-2.4786,-2.5031,-2.538,-2.5486,-2.5486,-2.5454,-2.5411,-2.5505,-2.5695,-2.579,-2.6041,-2.6373,-2.661,-2.7021,-2.751,-2.8007,-2.8522,-2.9138,-2.9727,-3.0305,-3.0911,-3.1495,-3.2009,-3.2458,-3.303,-3.3396,-3.366,-3.4142,-3.4549,-3.475,-3.5424,-3.6052,-3.6538,-3.686,-3.7562,-3.8511,-3.9023,-3.9504,-4.0037,-4.0468,-4.0931,-4.1391,-4.1959,-4.2414,-4.2864,-4.3355,-4.3791,-4.4162,-4.4568,-4.4924,-4.5222,-4.5455,-4.5642,-4.5861,-4.6017,-4.6123,-4.6225,-4.6228,-4.6241,-4.6187,-4.6083,-4.5796,-4.5472,-4.5342,-4.5178,-4.4924,-4.4738,-4.4477,-4.414,-4.3905,-4.3679,-4.3463,-4.3379,-4.3174,-4.257,-4.1973,-4.1427,-4.1115,-4.0659,-4.0103,-3.9594,-3.892,-3.8302,-3.7395,-3.6501,-3.5726,-3.4654,-3.3473,-3.2371,-3.1284,-3.0396,-2.9591,-2.8615,-2.7558,-2.6542,-2.5499,-2.4421,-2.352,-3.1649,-3.1306,-3.0769,-3.0397,-3.0125,-2.968,-2.9324,-2.8991,-2.856,-2.7683,-2.6868,-2.6324,-2.5662,-2.4805,-2.4519,-2.4348,-2.4024,-2.4024,-2.4272,-2.4605,-2.4711,-2.4711,-2.469,-2.4754,-2.4999,-2.5274,-2.5369,-2.5527,-2.5863,-2.6113,-2.6528,-2.7021,-2.7522,-2.8111,-2.865,-2.9246,-2.9856,-3.0394,-3.1048,-3.1569,-3.2023,-3.2602,-3.303,-3.3312,-3.373,-3.4128,-3.4414,-3.4898,-3.5474,-3.6148,-3.6616,-3.7326,-3.8189,-3.8567,-3.9007,-3.9609,-4.0054,-4.0531,-4.1007,-4.1613,-4.2068,-4.2537,-4.3051,-4.3526,-4.3918,-4.4327,-4.4739,-4.509,-4.5323,-4.556,-4.5789,-4.5975,-4.6102,-4.6189,-4.6217,-4.6226,-4.6192,-4.6056,-4.5829,-4.5565,-4.5361,-4.5199,-4.4967,-4.4712,-4.4421,-4.4109,-4.3809,-4.3545,-4.3322,-4.3158,-4.276,-4.2274,-4.1609,-4.1191,-4.0926,-4.0385,-3.9714,-3.9135,-3.8551,-3.8009,-3.7358,-3.6356,-3.5463,-3.4313,-3.3128,-3.2215,-3.1125,-3.0131,-2.9235,-2.807,-2.686,-2.5887,-2.4913,-2.3926,-2.2929,-3.0859,-3.0769,-3.0148,-2.9691,-2.9393,-2.8932,-2.8581,-2.8226,-2.7458,-2.6718,-2.6145,-2.5362,-2.4635,-2.4191,-2.3841,-2.3754,-2.3667,-2.3667,-2.3667,-2.3657,-2.3754,-2.3754,-2.3907,-2.4262,-2.4519,-2.4775,-2.5031,-2.5115,-2.52,-2.5633,-2.6052,-2.6445,-2.694,-2.7603,-2.8271,-2.8816,-2.93,-2.9779,-3.0533,-3.1123,-3.1569,-3.2009,-3.2458,-3.31,-3.3241,-3.3591,-3.4142,-3.4414,-3.4854,-3.5688,-3.6477,-3.7103,-3.7626,-3.8075,-3.8567,-3.9098,-3.9645,-4.0153,-4.0707,-4.1192,-4.1683,-4.2115,-4.2675,-4.3178,-4.3609,-4.4114,-4.4557,-4.4905,-4.522,-4.5455,-4.5688,-4.5873,-4.6047,-4.617,-4.6237,-4.6241,-4.6183,-4.6085,-4.5854,-4.5654,-4.5418,-4.518,-4.4919,-4.464,-4.4317,-4.4017,-4.3712,-4.3391,-4.3141,-4.2874,-4.2517,-4.1966,-4.1227,-4.0793,-4.0494,-3.9919,-3.9259,-3.8639,-3.8072,-3.7512,-3.699,-3.602,-3.5181,-3.3951,-3.2726,-3.1808,-3.0765,-2.9612,-2.8434,-2.722,-2.6177,-2.5294,-2.4313,-2.322,-2.2316,-3.0216,-2.9852,-2.9312,-2.8943,-2.8664,-2.8102,-2.7831,-2.7474,-2.6755,-2.6003,-2.5412,-2.4706,-2.3978,-2.3426,-2.3154,-2.2969,-2.2882,-2.2784,-2.2794,-2.2794,-2.2794,-2.3125,-2.3551,-2.3831,-2.4013,-2.4176,-2.4358,-2.4529,-2.47,-2.5041,-2.5454,-2.6063,-2.6539,-2.6928,-2.751,-2.8339,-2.8816,-2.9287,-2.9908,-3.0583,-3.1123,-3.1556,-3.2009,-3.2458,-3.2731,-3.3086,-3.3591,-3.4142,-3.4802,-3.5623,-3.6274,-3.6754,-3.7118,-3.7551,-3.8075,-3.8495,-3.8974,-3.9542,-4.0153,-4.0642,-4.1111,-4.1744,-4.2279,-4.2828,-4.3231,-4.3836,-4.4289,-4.4669,-4.503,-4.5362,-4.5594,-4.5854,-4.6056,-4.6179,-4.6211,-4.6225,-4.6177,-4.6075,-4.5898,-4.5669,-4.5454,-4.522,-4.4876,-4.4541,-4.4192,-4.3841,-4.3495,-4.3178,-4.2878,-4.2705,-4.243,-4.1578,-4.092,-4.0453,-3.9985,-3.942,-3.8805,-3.8139,-3.7524,-3.6862,-3.6197,-3.5352,-3.4549,-3.3731,-3.2228,-3.1122,-2.9977,-2.8806,-2.7589,-2.636,-2.5197,-2.4223,-2.332,-2.2426,-2.1404,-2.9485,-2.9117,-2.856,-2.8196,-2.7925,-2.7441,-2.7053,-2.6428,-2.5825,-2.5115,-2.4414,-2.3711,-2.3113,-2.2715,-2.2539,-2.2362,-2.2167,-2.2087,-2.2078,-2.2176,-2.2264,-2.2696,-2.3212,-2.3396,-2.357,-2.3667,-2.3927,-2.4206,-2.4368,-2.4615,-2.5115,-2.5706,-2.6052,-2.6622,-2.7267,-2.7834,-2.8407,-2.8907,-2.9521,-3.0152,-3.0596,-3.111,-3.1569,-3.1936,-3.2214,-3.2588,-3.3086,-3.3716,-3.4452,-3.5234,-3.5782,-3.6226,-3.6492,-3.6997,-3.7417,-3.7812,-3.8311,-3.892,-3.9454,-3.9952,-4.0546,-4.1128,-4.176,-4.236,-4.2847,-4.3456,-4.4004,-4.4438,-4.4887,-4.5222,-4.5524,-4.5835,-4.606,-4.6173,-4.6207,-4.6206,-4.6203,-4.6095,-4.5898,-4.5654,-4.5436,-4.5199,-4.4846,-4.4467,-4.4072,-4.3693,-4.3303,-4.2902,-4.2552,-4.2436,-4.2123,-4.1255,-4.0401,-3.9815,-3.9374,-3.8832,-3.7982,-3.7382,-3.6481,-3.5918,-3.551,-3.4676,-3.3925,-3.3013,-3.1641,-3.0272,-2.9073,-2.7767,-2.6532,-2.5382,-2.4214,-2.3229,-2.2325,-2.1505,-2.0593,-2.8757,-2.8581,-2.782,-2.7452,-2.7146,-2.6809,-2.6184,-2.5426,-2.4673,-2.3987,-2.3438,-2.264,-2.2223,-2.2008,-2.1998,-2.182,-2.1633,-2.1642,-2.1642,-2.1722,-2.182,-2.2176,-2.2618,-2.296,-2.3144,-2.3416,-2.358,-2.3841,-2.411,-2.4368,-2.4775,-2.5285,-2.5644,-2.6302,-2.6857,-2.7499,-2.7995,-2.8498,-2.9143,-2.9677,-3.005,-3.0508,-3.0973,-3.1408,-3.1703,-3.2069,-3.2561,-3.3129,-3.3756,-3.4654,-3.5082,-3.5539,-3.591,-3.6336,-3.6708,-3.7103,-3.7621,-3.8141,-3.8717,-3.9279,-3.9902,-4.0528,-4.1202,-4.1864,-4.2404,-4.3051,-4.3689,-4.4184,-4.4662,-4.5118,-4.5541,-4.5886,-4.6084,-4.6178,-4.6205,-4.6206,-4.6176,-4.6076,-4.588,-4.5619,-4.5323,-4.5052,-4.4739,-4.4355,-4.3936,-4.344,-4.3014,-4.2562,-4.2246,-4.2096,-4.1572,-4.0741,-3.99,-3.9055,-3.8619,-3.8197,-3.7275,-3.6417,-3.536,-3.4646,-3.463,-3.3989,-3.3212,-3.2202,-3.0699,-2.9349,-2.8049,-2.6819,-2.547,-2.4295,-2.312,-2.2123,-2.1318,-2.038,-1.9561,-2.8113,-2.7641,-2.7452,-2.6965,-2.633,-2.5734,-2.5241,-2.4782,-2.3604,-2.307,-2.27,-2.2005,-2.158,-2.1571,-2.1284,-2.1177,-2.1096,-2.1096,-2.1186,-2.1177,-2.1177,-2.1544,-2.1909,-2.2344,-2.2706,-2.2969,-2.3144,-2.3406,-2.3667,-2.4024,-2.4368,-2.4786,-2.5295,-2.579,-2.6218,-2.694,-2.7499,-2.7983,-2.8498,-2.9052,-2.9509,-2.9831,-3.0292,-3.0659,-3.1097,-3.1468,-3.1836,-3.22,-3.2618,-3.3255,-3.4016,-3.4639,-3.5118,-3.5479,-3.5913,-3.6368,-3.6784,-3.7326,-3.7985,-3.8518,-3.9102,-3.9885,-4.0559,-4.1258,-4.199,-4.2732,-4.3336,-4.3881,-4.4419,-4.5017,-4.56,-4.5949,-4.6111,-4.618,-4.6202,-4.6206,-4.6169,-4.5983,-4.5736,-4.5426,-4.5167,-4.4896,-4.4538,-4.4084,-4.3609,-4.3159,-4.2678,-4.219,-4.1952,-4.1761,-4.1026,-4.0205,-3.8968,-3.8112,-3.7769,-3.7178,-3.6118,-3.5268,-3.4297,-3.3502,-3.3515,-3.2874,-3.1942,-3.0944,-2.9784,-2.8412,-2.6914,-2.5654,-2.4393,-2.3211,-2.2005,-2.1089,-2.0174,-1.9346,-1.8513,-2.7547,-2.7051,-2.6678,-2.6164,-2.5582,-2.488,-2.4174,-2.3514,-2.2723,-2.2135,-2.1762,-2.1275,-2.0942,-2.0663,-2.0555,-2.0464,-2.0382,-2.0382,-2.0382,-2.0464,-2.0645,-2.0916,-2.1195,-2.1633,-2.1989,-2.252,-2.2706,-2.2969,-2.3319,-2.359,-2.3937,-2.4454,-2.4871,-2.538,-2.5812,-2.6445,-2.7021,-2.7499,-2.7995,-2.8395,-2.8803,-2.9131,-2.9521,-2.9973,-3.0419,-3.0709,-3.0859,-3.122,-3.1529,-3.1969,-3.2519,-3.3367,-3.4235,-3.4706,-3.5154,-3.5544,-3.5991,-3.6477,-3.7131,-3.778,-3.839,-3.9156,-3.9868,-4.0655,-4.1393,-4.2198,-4.2958,-4.3557,-4.4175,-4.482,-4.5592,-4.596,-4.6103,-4.6169,-4.6167,-4.6169,-4.6152,-4.5938,-4.5572,-4.5225,-4.4922,-4.46,-4.4252,-4.3754,-4.3248,-4.2752,-4.2121,-4.1656,-4.129,-4.1047,-4.0476,-3.9537,-3.8123,-3.7198,-3.6836,-3.6034,-3.4878,-3.4052,-3.3148,-3.2603,-3.2349,-3.1508,-3.0496,-2.951,-2.8588,-2.7169,-2.5751,-2.4492,-2.3203,-2.1988,-2.0877,-1.996,-1.9027,-1.8199,-1.7351,-2.6924,-2.6567,-2.5885,-2.5256,-2.4706,-2.4022,-2.3148,-2.2345,-2.1906,-2.1225,-2.0616,-2.0464,-2.0201,-1.9837,-1.9745,-1.9662,-1.9579,-1.9487,-1.9654,-1.9737,-2.0011,-2.0283,-2.0555,-2.0826,-2.1266,-2.2078,-2.2255,-2.253,-2.2882,-2.3144,-2.358,-2.4196,-2.4454,-2.4882,-2.5559,-2.5957,-2.6351,-2.6928,-2.7336,-2.7742,-2.8075,-2.8407,-2.8791,-2.9094,-2.9484,-2.9716,-2.9871,-3.0088,-3.0482,-3.0748,-3.0872,-3.1796,-3.2875,-3.3811,-3.4288,-3.4572,-3.5088,-3.5578,-3.615,-3.6874,-3.7573,-3.8278,-3.9135,-4.0003,-4.0797,-4.1674,-4.2462,-4.3263,-4.3972,-4.4801,-4.5507,-4.5906,-4.6099,-4.6152,-4.6123,-4.6116,-4.6048,-4.5815,-4.5299,-4.4862,-4.4578,-4.4299,-4.3825,-4.3334,-4.2847,-4.2279,-4.1648,-4.1071,-4.0668,-4.0172,-3.9495,-3.8649,-3.7223,-3.586,-3.5353,-3.4684,-3.3549,-3.2774,-3.1944,-3.1425,-3.1025,-2.9953,-2.8947,-2.8391,-2.7369,-2.5935,-2.4473,-2.3294,-2.1996,-2.0877,-1.9746,-1.8715,-1.7884,-1.7047,-1.6193,-2.5988,-2.5356,-2.4976,-2.425,-2.3383,-2.288,-2.2215,-2.1481,-2.0807,-2.0269,-1.9828,-1.9563,-1.9279,-1.9012,-1.9012,-1.892,-1.8835,-1.8827,-1.892,-1.9004,-1.9188,-1.9554,-1.9737,-2.0011,-2.0464,-2.1006,-2.1463,-2.19,-2.252,-2.2872,-2.3135,-2.3406,-2.3937,-2.4454,-2.4796,-2.52,-2.5695,-2.6268,-2.6599,-2.6928,-2.7267,-2.7592,-2.7834,-2.8051,-2.8383,-2.8554,-2.8779,-2.9028,-2.9481,-3.0163,-3.0011,-3.0304,-3.0856,-3.1842,-3.2662,-3.3465,-3.3934,-3.4447,-3.5124,-3.577,-3.6615,-3.7488,-3.8383,-3.9295,-4.0218,-4.1202,-4.2098,-4.3104,-4.4092,-4.5046,-4.5607,-4.5911,-4.6074,-4.6106,-4.6049,-4.599,-4.5854,-4.5419,-4.4791,-4.4218,-4.4073,-4.3906,-4.3367,-4.2793,-4.2208,-4.1534,-4.0856,-4.0218,-3.9661,-3.9023,-3.823,-3.7322,-3.6215,-3.4951,-3.3805,-3.3073,-3.2119,-3.1498,-3.0658,-2.9809,-2.924,-2.8272,-2.7379,-2.6587,-2.5818,-2.4767,-2.3393,-2.2097,-2.0869,-1.9746,-1.861,-1.7575,-1.6617,-1.5767,-1.4804,-2.5158,-2.4469,-2.3975,-2.3261,-2.2333,-2.1773,-2.12,-2.0457,-1.9912,-1.9463,-1.9096,-1.8727,-1.8458,-1.8272,-1.8079,-1.7986,-1.7986,-1.7986,-1.7986,-1.8079,-1.845,-1.8635,-1.8912,-1.9188,-1.9646,-2.0093,-2.0464,-2.1105,-2.182,-2.2176,-2.253,-2.2882,-2.3319,-2.3754,-2.411,-2.454,-2.5031,-2.5527,-2.5779,-2.603,-2.6456,-2.6693,-2.6846,-2.701,-2.7174,-2.7348,-2.7499,-2.7649,-2.8111,-2.8595,-2.8669,-2.8743,-2.9188,-2.9807,-3.0895,-3.2074,-3.2791,-3.3353,-3.3988,-3.4714,-3.5484,-3.6384,-3.7294,-3.8334,-3.937,-4.0412,-4.1707,-4.3084,-4.4073,-4.5088,-4.5592,-4.5877,-4.6005,-4.6007,-4.591,-4.5812,-4.5611,-4.5,-4.4195,-4.3483,-4.346,-4.3259,-4.2794,-4.219,-4.1534,-4.0856,-4.0085,-3.9387,-3.8645,-3.7806,-3.7024,-3.5917,-3.4896,-3.3596,-3.2396,-3.1523,-3.0701,-3.0025,-2.9215,-2.8355,-2.7537,-2.6686,-2.5528,-2.4543,-2.3773,-2.3085,-2.2181,-2.0767,-1.9642,-1.8499,-1.7457,-1.6305,-1.5345,-1.4385,-1.3521,-2.4402,-2.3644,-2.2951,-2.211,-2.1309,-2.0821,-2.0096,-1.9404,-1.9096,-1.8635,-1.8172,-1.7893,-1.7613,-1.734,-1.7145,-1.6958,-1.7044,-1.6951,-1.6951,-1.7145,-1.7527,-1.7807,-1.7893,-1.8265,-1.8719,-1.918,-1.9363,-1.9928,-2.1024,-2.1472,-2.1811,-2.2167,-2.2608,-2.3057,-2.3493,-2.3754,-2.4272,-2.47,-2.4946,-2.5115,-2.5538,-2.5779,-2.5852,-2.5852,-2.6019,-2.6102,-2.5997,-2.6246,-2.6528,-2.6903,-2.7021,-2.7116,-2.7441,-2.7787,-2.8797,-3.0253,-3.1302,-3.2119,-3.2763,-3.3408,-3.4216,-3.513,-3.6136,-3.7216,-3.857,-3.9983,-4.1558,-4.3222,-4.4288,-4.4991,-4.552,-4.5845,-4.5937,-4.5858,-4.5699,-4.5476,-4.5251,-4.4587,-4.3286,-4.2871,-4.2832,-4.2459,-4.1914,-4.127,-4.0539,-3.9817,-3.9073,-3.8132,-3.7408,-3.6522,-3.5664,-3.4559,-3.3407,-3.2181,-3.104,-2.9974,-2.926,-2.8503,-2.7547,-2.67,-2.5903,-2.5032,-2.3863,-2.2567,-2.1752,-2.1049,-2.0246,-1.942,-1.8276,-1.7134,-1.6199,-1.5131,-1.3948,-1.3083,-1.2323,-2.3333,-2.2492,-2.1799,-2.0989,-2.012,-1.982,-1.9152,-1.8365,-1.8265,-1.7815,-1.7254,-1.6871,-1.6581,-1.6292,-1.6109,-1.6015,-1.6015,-1.6008,-1.6008,-1.6109,-1.6487,-1.677,-1.6864,-1.7239,-1.7707,-1.8164,-1.8265,-1.9096,-2.0011,-2.0727,-2.1087,-2.1266,-2.1811,-2.2362,-2.252,-2.2872,-2.3232,-2.3667,-2.3831,-2.4166,-2.4584,-2.4669,-2.4573,-2.4584,-2.4584,-2.4659,-2.4553,-2.4734,-2.4925,-2.52,-2.5432,-2.543,-2.5438,-2.5981,-2.6532,-2.7579,-2.8929,-3.0519,-3.1079,-3.1815,-3.2749,-3.3765,-3.4824,-3.6152,-3.7874,-3.9883,-4.1711,-4.3118,-4.4121,-4.4916,-4.5492,-4.5838,-4.5875,-4.5654,-4.5387,-4.5268,-4.5063,-4.3749,-4.2523,-4.1395,-4.11,-4.1104,-4.0816,-4.0165,-3.9475,-3.8767,-3.7987,-3.7021,-3.6136,-3.5195,-3.3936,-3.2736,-3.1707,-3.0478,-2.9399,-2.8366,-2.7575,-2.6878,-2.5844,-2.4898,-2.4026,-2.3167,-2.1963,-2.0759,-1.9937,-1.8991,-1.815,-1.7318,-1.6486,-1.5642,-1.4691,-1.3619,-1.2432,-1.1673,-1.0903,-2.1714,-2.1472,-2.0718,-1.9895,-1.9296,-1.8912,-1.8357,-1.7707,-1.734,-1.6958,-1.6487,-1.6008,-1.5527,-1.5146,-1.4968,-1.4968,-1.4968,-1.4968,-1.4968,-1.4968,-1.535,-1.5635,-1.5818,-1.6096,-1.6473,-1.6951,-1.7232,-1.7512,-1.8611,-1.9538,-2.0184,-2.0275,-2.0907,-2.1356,-2.1624,-2.1891,-2.2246,-2.2599,-2.295,-2.3115,-2.327,-2.327,-2.327,-2.3183,-2.327,-2.3183,-2.3183,-2.326,-2.3337,-2.3501,-2.3664,-2.3634,-2.3639,-2.4098,-2.4607,-2.4861,-2.5992,-2.7532,-2.9073,-2.9999,-3.104,-3.2208,-3.3502,-3.5126,-3.7451,-3.9615,-4.1573,-4.3011,-4.4027,-4.4842,-4.5456,-4.5773,-4.5699,-4.5464,-4.494,-4.4846,-4.4363,-4.2905,-4.1624,-4.044,-3.9325,-3.921,-3.9085,-3.8515,-3.7842,-3.7255,-3.6399,-3.5446,-3.4551,-3.3648,-3.2245,-3.0729,-2.9732,-2.8712,-2.7601,-2.6532,-2.5605,-2.4836,-2.389,-2.2926,-2.2167,-2.1167,-1.9937,-1.8686,-1.7627,-1.6785,-1.5943,-1.5524,-1.5102,-1.425,-1.3176,-1.2091,-1.1008,-1.0021,-0.9251,-2.0044,-2.0112,-1.9477,-1.9004,-1.845,-1.7986,-1.7426,-1.6864,-1.6386,-1.6103,-1.5717,-1.5051,-1.4388,-1.401,-1.3913,-1.3913,-1.3919,-1.3919,-1.3913,-1.401,-1.4202,-1.4388,-1.4669,-1.4854,-1.5242,-1.5717,-1.6008,-1.6379,-1.6936,-1.7863,-1.8703,-1.9188,-1.9812,-2.0266,-2.0538,-2.0898,-2.1257,-2.1695,-2.1872,-2.1952,-2.2041,-2.2041,-2.1952,-2.1872,-2.1774,-2.1774,-2.1686,-2.1676,-2.164,-2.1621,-2.1738,-2.1799,-2.1734,-2.2026,-2.2337,-2.2513,-2.3248,-2.4173,-2.5926,-2.7393,-2.8959,-3.0478,-3.2425,-3.4559,-3.7202,-3.9259,-4.106,-4.2759,-4.3941,-4.4786,-4.5385,-4.5644,-4.5384,-4.4927,-4.4335,-4.4265,-4.3761,-4.1871,-3.9873,-3.8134,-3.7187,-3.7012,-3.6817,-3.6549,-3.6122,-3.5682,-3.4845,-3.3762,-3.2733,-3.1716,-3.0483,-2.8876,-2.7622,-2.6665,-2.5721,-2.4636,-2.3772,-2.2795,-2.1834,-2.084,-1.9969,-1.9015,-1.7843,-1.6586,-1.5411,-1.4449,-1.3696,-1.3814,-1.3819,-1.2625,-1.1433,-1.0558,-0.9578,-0.8589,-0.7595,-1.8473,-1.8303,-1.8187,-1.7978,-1.7692,-1.7044,-1.6393,-1.5913,-1.5439,-1.5057,-1.458,-1.4004,-1.3329,-1.2953,-1.2851,-1.2856,-1.2856,-1.2861,-1.2856,-1.2948,-1.3136,-1.3221,-1.3414,-1.3709,-1.41,-1.4388,-1.4675,-1.5051,-1.5432,-1.5893,-1.703,-1.8079,-1.8611,-1.8988,-1.9363,-1.972,-2.0076,-2.0439,-2.0619,-2.0718,-2.0808,-2.0808,-2.0538,-2.0357,-2.0167,-1.9977,-1.9712,-1.9704,-1.9687,-1.9662,-1.977,-1.9778,-1.972,-1.9728,-1.9918,-2.0082,-2.0352,-2.1025,-2.2127,-2.4735,-2.6955,-2.8807,-3.1163,-3.3917,-3.6366,-3.8595,-4.0533,-4.2486,-4.3804,-4.4739,-4.522,-4.5323,-4.4926,-4.4037,-4.3311,-4.2936,-4.2062,-4.0197,-3.8212,-3.6042,-3.5064,-3.4861,-3.4083,-3.3667,-3.3941,-3.3568,-3.2301,-3.1276,-3.0303,-2.9295,-2.8295,-2.6999,-2.5594,-2.4492,-2.3604,-2.2596,-2.1509,-2.0416,-1.9478,-1.8526,-1.749,-1.6554,-1.5618,-1.455,-1.3372,-1.2299,-1.1433,-1.1311,-1.0979,-1.0445,-0.9684,-0.8803,-0.7802,-0.6589,-0.5926,-1.7412,-1.6943,-1.6473,-1.6473,-1.6749,-1.6008,-1.5343,-1.4867,-1.4286,-1.3709,-1.3044,-1.2554,-1.2165,-1.1878,-1.1585,-1.1585,-1.1585,-1.1389,-1.1487,-1.1585,-1.1678,-1.1873,-1.2165,-1.236,-1.2651,-1.2942,-1.3227,-1.3505,-1.3692,-1.4178,-1.4854,-1.5798,-1.6922,-1.7684,-1.8156,-1.8527,-1.8896,-1.8988,-1.908,-1.918,-1.918,-1.918,-1.8988,-1.8711,-1.8611,-1.8411,-1.8133,-1.8025,-1.7933,-1.784,-1.7747,-1.7647,-1.7539,-1.7446,-1.7431,-1.7517,-1.7695,-1.7964,-1.8867,-2.1785,-2.503,-2.7702,-3.0186,-3.2765,-3.5142,-3.7672,-4.0101,-4.2085,-4.3734,-4.4698,-4.5058,-4.4758,-4.4083,-4.2983,-4.2039,-4.1433,-4.0054,-3.8068,-3.555,-3.303,-3.2725,-3.2723,-3.1717,-3.0708,-3.1129,-3.1416,-3.0049,-2.8778,-2.7799,-2.7053,-2.614,-2.4248,-2.263,-2.1808,-2.1007,-2.0025,-1.9036,-1.8115,-1.7086,-1.6173,-1.5118,-1.4278,-1.3372,-1.2299,-1.1206,-1.0225,-0.935,-0.8686,-0.8468,-0.8692,-0.8033,-0.7038,-0.5926,-0.4698,-0.4029,-1.6372,-1.571,-1.4956,-1.5051,-1.5527,-1.4949,-1.428,-1.3806,-1.3323,-1.2457,-1.1487,-1.1194,-1.0895,-1.06,-1.0306,-1.0207,-1.0207,-1.0109,-1.0109,-1.0109,-1.0306,-1.0408,-1.0703,-1.0993,-1.1086,-1.1385,-1.177,-1.2052,-1.2344,-1.2646,-1.313,-1.3896,-1.4848,-1.569,-1.6662,-1.7131,-1.7419,-1.7505,-1.7512,-1.7512,-1.7512,-1.7326,-1.7225,-1.703,-1.6835,-1.664,-1.6438,-1.6149,-1.5961,-1.5765,-1.5576,-1.5292,-1.5197,-1.5,-1.4804,-1.4797,-1.488,-1.4968,-1.6067,-1.9191,-2.2939,-2.5496,-2.7913,-3.0671,-3.3636,-3.6548,-3.9194,-4.1986,-4.3509,-4.444,-4.4598,-4.3771,-4.2347,-4.098,-3.9191,-3.8275,-3.6979,-3.5202,-3.2482,-2.994,-2.9999,-2.9896,-2.8533,-2.739,-2.7378,-2.7719,-2.714,-2.5892,-2.4967,-2.4389,-2.4109,-2.1868,-1.9329,-1.8715,-1.8195,-1.723,-1.6344,-1.5504,-1.4538,-1.3617,-1.2754,-1.1972,-1.0958,-0.9885,-0.8903,-0.8029,-0.7254,-0.6581,-0.6811,-0.7374,-0.626,-0.481,-0.4026,-0.2798,-0.1903,-1.514,-1.4663,-1.3794,-1.3806,-1.4094,-1.3703,-1.3221,-1.2635,-1.2063,-1.1287,-1.031,-0.9809,-0.9509,-0.9213,-0.8916,-0.8821,-0.8722,-0.8722,-0.8722,-0.8722,-0.8722,-0.8825,-0.9118,-0.9312,-0.9612,-0.9809,-1.0199,-1.069,-1.1086,-1.1189,-1.1482,-1.197,-1.263,-1.359,-1.5045,-1.5609,-1.5988,-1.6271,-1.6183,-1.619,-1.5994,-1.571,-1.552,-1.5229,-1.5032,-1.474,-1.4543,-1.4154,-1.3771,-1.3482,-1.308,-1.2694,-1.241,-1.2012,-1.1716,-1.1614,-1.1604,-1.1696,-1.1976,-1.6886,-1.9847,-2.2553,-2.4898,-2.7873,-3.1596,-3.4988,-3.8297,-4.1095,-4.2902,-4.3552,-4.3231,-4.2079,-4.0215,-3.812,-3.6216,-3.455,-3.3182,-3.1744,-2.8923,-2.6582,-2.6697,-2.6702,-2.5225,-2.408,-2.374,-2.376,-2.3725,-2.3085,-2.2054,-2.1857,-2.1663,-1.9257,-1.6437,-1.5831,-1.5269,-1.4564,-1.3669,-1.2878,-1.1949,-1.1087,-1.0356,-0.9598,-0.8652,-0.7433,-0.6579,-0.5691,-0.5027,-0.4472,-0.4357,-0.4129,-0.3578,-0.2464,-0.1792,-0.0896,0.0112,-1.3908,-1.3136,-1.2457,-1.2063,-1.177,-1.2165,-1.1868,-1.1086,-1.0297,-0.9509,-0.8817,-0.8421,-0.8127,-0.7829,-0.7428,-0.7232,-0.7132,-0.6731,-0.6734,-0.7232,-0.7229,-0.7434,-0.763,-0.7829,-0.8028,-0.8127,-0.8524,-0.8814,-0.9008,-0.941,-0.9908,-1.0395,-1.0886,-1.2052,-1.3409,-1.4082,-1.437,-1.4465,-1.437,-1.437,-1.4172,-1.3986,-1.3698,-1.3403,-1.3011,-1.2818,-1.2619,-1.2037,-1.1448,-1.1151,-1.0649,-1.0164,-0.9772,-0.9272,-0.8977,-0.8678,-0.8674,-0.8769,-0.9049,-1.15,-1.4121,-1.7652,-2.1236,-2.4312,-2.8286,-3.2832,-3.6555,-3.9588,-4.1081,-4.1563,-4.1444,-3.8725,-3.6478,-3.3924,-3.194,-3.0309,-2.8797,-2.7278,-2.5153,-2.3185,-2.2461,-2.2054,-2.0961,-1.986,-1.942,-1.9257,-1.9265,-1.9512,-1.8851,-1.9244,-1.922,-1.6404,-1.3998,-1.316,-1.2427,-1.1778,-1.1215,-1.048,-0.953,-0.8491,-0.7811,-0.7174,-0.6655,-0.5654,-0.4453,-0.3353,-0.2458,-0.1676,-0.0894,-0.0336,-0.0224,-0.0112,0.0448,0.1231,0.2127,-1.2651,-1.178,-1.1189,-1.0404,-0.9912,-1.06,-1.0404,-0.9517,-0.8425,-0.773,-0.7425,-0.693,-0.6531,-0.6237,-0.5837,-0.5536,-0.5536,-0.5236,-0.5135,-0.5534,-0.5534,-0.5734,-0.5937,-0.6234,-0.6234,-0.6434,-0.6731,-0.7123,-0.7422,-0.7627,-0.812,-0.8616,-0.9114,-0.9895,-1.1063,-1.1745,-1.2425,-1.242,-1.2415,-1.2436,-1.2237,-1.2042,-1.175,-1.1458,-1.1068,-1.0774,-1.0382,-0.9788,-0.9095,-0.8693,-0.8199,-0.7604,-0.7102,-0.6504,-0.6006,-0.5705,-0.5202,-0.5196,-0.5275,-0.5466,-0.8028,-1.064,-1.5402,-1.9747,-2.3858,-2.8188,-3.2482,-3.5721,-3.7469,-3.7463,-3.63,-3.3549,-3.0577,-2.7946,-2.6158,-2.4465,-2.3256,-2.1636,-2.0725,-1.8822,-1.7963,-1.7432,-1.6714,-1.5805,-1.4954,-1.4873,-1.4697,-1.51,-1.5604,-1.6259,-1.6245,-1.3573,-1.125,-1.0179,-0.9514,-0.9155,-0.8583,-0.8007,-0.6997,-0.587,-0.5226,-0.4557,-0.4229,-0.3762,-0.2224,-0.0893,0.0223,0.1118,0.19,0.2348,0.2461,0.2573,0.2799,0.3358,0.403,-1.1194,-1.0703,-0.9908,-0.9114,-0.8528,-0.9015,-0.8715,-0.7822,-0.683,-0.6334,-0.6134,-0.5133,-0.4832,-0.4632,-0.4131,-0.393,-0.3828,-0.383,-0.383,-0.383,-0.3828,-0.393,-0.413,-0.4329,-0.4529,-0.473,-0.5029,-0.5425,-0.5827,-0.6027,-0.6326,-0.6728,-0.7226,-0.7717,-0.8403,-0.9292,-1.0168,-1.0364,-1.0565,-1.048,-1.028,-1.0087,-0.9792,-0.9399,-0.8898,-0.8601,-0.8107,-0.7512,-0.6816,-0.6216,-0.5518,-0.4916,-0.4116,-0.3314,-0.2711,-0.2107,-0.1504,-0.1,-0.0798,-0.0996,-0.0991,-0.3313,-0.741,-1.267,-1.6946,-2.0625,-2.3402,-2.6318,-2.7799,-2.9021,-2.919,-2.5948,-2.2696,-2.0775,-1.911,-1.7873,-1.6937,-1.5958,-1.5285,-1.431,-1.3784,-1.311,-1.2257,-1.1342,-1.0637,-1.0263,-1.0158,-1.0255,-1.1066,-1.3357,-1.2905,-1.0858,-0.8659,-0.697,-0.649,-0.6495,-0.5902,-0.5309,-0.4314,-0.3255,-0.2584,-0.1891,-0.1499,-0.0764,0.0443,0.1563,0.2458,0.3578,0.4587,0.4812,0.4808,0.4808,0.4808,0.5031,0.559,-1.0002,-0.9316,-0.8524,-0.7826,-0.7129,-0.6326,-0.5927,-0.5927,-0.5432,-0.4931,-0.4126,-0.3827,-0.3324,-0.2822,-0.242,-0.2218,-0.2016,-0.1915,-0.1915,-0.1915,-0.2116,-0.2319,-0.252,-0.262,-0.2821,-0.3022,-0.3323,-0.3521,-0.3822,-0.4124,-0.4728,-0.5129,-0.5425,-0.5525,-0.6024,-0.6722,-0.7508,-0.8202,-0.8499,-0.8403,-0.8206,-0.8011,-0.7614,-0.7117,-0.6716,-0.6318,-0.572,-0.5018,-0.4316,-0.3613,-0.3013,-0.2311,-0.1205,-0.0602,0.01,0.1601,0.24,0.3098,0.3292,0.3881,0.4257,0.4512,0.24,-0.1695,-0.6263,-0.9735,-1.1898,-1.4328,-1.5657,-1.6015,-1.6327,-1.4286,-1.2692,-1.1817,-1.0668,-1.0362,-0.9635,-0.991,-0.9311,-0.9164,-0.8724,-0.8355,-0.7508,-0.7128,-0.6435,-0.5968,-0.5681,-0.5674,-0.6778,-0.9209,-0.9624,-0.7601,-0.5591,-0.3794,-0.3901,-0.3906,-0.321,-0.2512,-0.1509,-0.0707,-0.0103,0.0626,0.1272,0.2161,0.3091,0.3789,0.4585,0.5483,0.6371,0.6818,0.6813,0.6816,0.6818,0.6927,0.7257,-0.8715,-0.7925,-0.7129,-0.6331,-0.5329,-0.4024,-0.3524,-0.3623,-0.3626,-0.3224,-0.2519,-0.2116,-0.1713,-0.121,-0.0806,-0.0605,-0.0403,-0.0302,-0.0302,-0.0403,-0.0403,-0.0605,-0.0806,-0.0907,-0.1008,-0.131,-0.1512,-0.1611,-0.1913,-0.2517,-0.302,-0.3122,-0.342,-0.3521,-0.3721,-0.4021,-0.442,-0.5216,-0.5815,-0.6119,-0.6019,-0.5819,-0.5322,-0.4822,-0.4422,-0.3919,-0.3316,-0.2612,-0.1808,-0.1005,-0.0402,0.0502,0.1706,0.2605,0.3997,0.5388,0.6275,0.6964,0.754,0.8307,0.9061,1.0053,1.1273,1.0058,0.6624,0.3165,0.0884,-0.1325,-0.1414,-0.1572,-0.188,-0.2068,-0.2156,-0.2226,-0.2266,-0.2402,-0.2906,-0.3512,-0.3532,-0.3549,-0.3364,-0.3172,-0.2784,-0.259,-0.2294,-0.1896,-0.1497,-0.1297,-0.2895,-0.5406,-0.5608,-0.4305,-0.2302,-0.0401,-0.0803,-0.1103,-0.0602,0.01,0.0904,0.1719,0.2355,0.3007,0.3578,0.4525,0.5636,0.6118,0.6475,0.7146,0.7814,0.8257,0.8699,0.8916,0.8806,0.8702,0.903,-0.7425,-0.6631,-0.5734,-0.4632,-0.3426,-0.2319,-0.1613,-0.1109,-0.1512,-0.1513,-0.1109,-0.0302,0.0101,0.0403,0.0806,0.1008,0.1209,0.1209,0.131,0.1008,0.121,0.1108,0.1008,0.1008,0.0806,0.0705,0.0504,0.0201,-0.0202,-0.0605,-0.0907,-0.1008,-0.1209,-0.1309,-0.1309,-0.1308,-0.1508,-0.1606,-0.2407,-0.2909,-0.3516,-0.3419,-0.3118,-0.2516,-0.2012,-0.1408,-0.0804,-0.0101,0.0704,0.1508,0.231,0.3311,0.4901,0.6388,0.7974,0.9245,1.0015,1.0872,1.1722,1.2655,1.3944,1.5372,1.7228,1.8877,1.7049,1.4992,1.2807,1.2966,1.3009,1.2298,1.1864,0.9473,0.8422,0.7115,0.6174,0.5514,0.4424,0.3294,0.2055,0.1965,0.1775,0.1879,0.1784,0.1985,0.1888,0.2296,0.25,0.2701,0.1499,-0.1099,-0.15,-0.0801,0.0902,0.2409,0.2109,0.2008,0.221,0.2815,0.3417,0.4022,0.4556,0.5244,0.5858,0.6741,0.7434,0.7865,0.8244,0.8913,0.9361,0.9801,1.0355,1.1013,1.1013,1.0574,1.0684,-0.6329,-0.5429,-0.4029,-0.2923,-0.2016,-0.1108,-0.0202,0.0605,0.0907,0.0806,0.0706,0.1008,0.1613,0.2117,0.2417,0.262,0.2922,0.292,0.3225,0.3124,0.3124,0.2821,0.2922,0.2821,0.2619,0.2317,0.2116,0.2014,0.1612,0.131,0.1109,0.1008,0.0907,0.0906,0.1107,0.1107,0.1307,0.1508,0.1607,0.0402,-0.0703,-0.0804,-0.0604,-0.0101,0.0503,0.1106,0.1809,0.2611,0.3515,0.4418,0.5313,0.6796,0.8663,1.0036,1.1303,1.2566,1.3695,1.4627,1.5625,1.68,1.8214,2.0272,2.2519,2.5598,2.6695,2.5918,2.5781,2.6584,2.668,2.5751,2.4136,2.1107,1.8204,1.6314,1.4326,1.2963,1.1581,0.9636,0.7845,0.7488,0.7113,0.6729,0.6544,0.6361,0.6176,0.6184,0.6192,0.6192,0.5882,0.4076,0.2886,0.329,0.4112,0.5131,0.4926,0.482,0.4916,0.5118,0.5717,0.6221,0.6828,0.725,0.7801,0.8462,0.9051,0.9421,0.987,1.057,1.1017,1.1236,1.1778,1.2432,1.2758,1.2536,1.2654,-0.5131,-0.4126,-0.2622,-0.1513,-0.0806,0.0101,0.1008,0.1916,0.272,0.3021,0.292,0.2821,0.3024,0.363,0.3929,0.423,0.4431,0.4632,0.4632,0.4634,0.4634,0.4431,0.4431,0.4531,0.4329,0.4128,0.3925,0.3725,0.3423,0.3222,0.3119,0.3019,0.3119,0.3219,0.3419,0.362,0.3819,0.4021,0.4929,0.4219,0.2409,0.2209,0.201,0.2515,0.3019,0.362,0.4416,0.5214,0.6108,0.7394,0.8568,1.0223,1.1976,1.3228,1.4564,1.5792,1.7001,1.8202,1.9257,2.0642,2.2371,2.4347,2.6736,2.9535,3.2571,3.2109,3.4064,3.4887,3.5247,3.4504,3.2243,2.947,2.6104,2.3578,2.0941,1.88,1.6606,1.4235,1.3708,1.407,1.3082,1.1197,1.1019,1.0559,1.0387,1.0011,1.0036,0.9747,0.9339,0.863,0.7543,0.7263,0.8096,0.7826,0.7316,0.731,0.731,0.7614,0.7915,0.8315,0.8726,0.9164,0.9627,1.0115,1.0505,1.0902,1.135,1.1973,1.2327,1.254,1.3192,1.3846,1.4169,1.4379,1.4595,-0.3929,-0.2722,-0.1312,-0.0303,0.0302,0.131,0.2319,0.3126,0.413,0.4929,0.5229,0.4732,0.4834,0.5035,0.5338,0.5639,0.5837,0.6037,0.5937,0.5934,0.5629,0.5929,0.6129,0.6132,0.6029,0.5929,0.5729,0.5627,0.5527,0.5325,0.5222,0.5225,0.5425,0.5625,0.5724,0.5922,0.6218,0.6517,0.7018,0.7114,0.6213,0.5316,0.4916,0.5022,0.5629,0.6129,0.6915,0.7799,0.8682,1.0134,1.1879,1.3605,1.5031,1.6355,1.7557,1.8867,2.0274,2.1344,2.2563,2.4039,2.576,2.7818,3.0351,3.3039,3.5966,3.8289,4.0197,4.1303,4.1677,4.0922,3.8645,3.621,3.2811,2.9572,2.6734,2.3826,2.1121,1.8775,1.9183,1.9686,1.7971,1.5926,1.5087,1.4634,1.4183,1.3915,1.3544,1.3262,1.286,1.1834,1.083,1.1071,1.1828,1.1258,0.9981,0.9587,0.9583,0.9784,1.0083,1.0391,1.0623,1.0812,1.108,1.1555,1.1973,1.224,1.2734,1.329,1.3521,1.3835,1.4482,1.5131,1.5345,1.566,1.6199,-0.2621,-0.1211,-0.0202,0.0605,0.1411,0.2418,0.3525,0.4431,0.5331,0.6129,0.6731,0.7129,0.7027,0.6429,0.6736,0.6936,0.7232,0.7434,0.7736,0.7829,0.7627,0.7826,0.7925,0.772,0.7819,0.772,0.7624,0.7524,0.7518,0.7419,0.7419,0.7422,0.7713,0.7912,0.811,0.8403,0.8696,0.8996,0.9292,0.9485,0.9387,0.8492,0.7505,0.7707,0.8301,0.8992,0.9678,1.0551,1.1623,1.2973,1.476,1.6649,1.8034,1.9315,2.0578,2.1794,2.3209,2.4376,2.5633,2.7197,2.8864,3.0355,3.2818,3.5167,3.7785,4.0078,4.1796,4.3235,4.3435,4.2975,4.1075,3.9195,3.6198,3.3107,3.0151,2.7299,2.4516,2.3382,2.3093,2.2561,2.1311,1.9816,1.8712,1.8171,1.7457,1.7101,1.6556,1.6275,1.5806,1.4905,1.3998,1.4582,1.5261,1.3913,1.2339,1.1843,1.1741,1.1945,1.2145,1.215,1.2252,1.2268,1.2584,1.2786,1.3106,1.3383,1.3895,1.4449,1.4815,1.5131,1.5873,1.6411,1.6518,1.6829,1.7364]}]]